GFSSGP_sfc_dewp_000.txt.gz
Dewpoint
55 37 37 46 45 43 39 39 38 38 36 30 30 30 32 35 35 42 57 57 59 61 64 69 71 69 67 65 63 63 62 62 61 59 62 64 61 60 60 59 58 60 61 60 59 60 59 58 60
49 39 42 46 39 38 37 37 40 40 32 31 31 30 30 33 43 51 55 57 58 61 63 67 71 70 67 65 64 63 61 61 60 61 62 64 62 60 61 61 59 56 58 58 58 59 58 58 58
51 35 41 40 39 36 37 40 40 33 31 31 30 30 31 35 39 51 57 57 57 61 62 66 71 69 67 65 63 62 61 61 60 64 63 63 62 59 59 58 56 57 57 56 57 58 57 57 60
40 39 35 37 34 36 38 45 39 34 31 29 28 31 38 41 41 53 56 56 56 58 65 70 71 69 68 66 64 63 61 61 60 60 63 63 62 60 59 56 56 56 57 57 56 57 57 57 58
41 35 32 30 32 33 35 48 35 36 34 29 28 31 41 47 53 55 56 55 56 56 65 68 72 69 67 65 64 63 62 62 60 61 61 60 62 59 58 59 58 58 59 58 57 57 57 58 57
38 33 27 27 27 29 31 38 37 35 34 28 28 29 44 48 51 55 56 55 56 56 63 67 69 68 68 66 64 64 63 63 62 62 60 59 57 59 59 59 61 60 60 58 56 56 57 58 58
39 33 27 23 22 27 30 37 36 35 34 30 30 30 44 47 52 55 55 55 56 56 59 64 65 66 67 67 66 66 64 64 64 62 60 61 62 61 61 62 62 62 59 57 55 54 55 58 58
40 35 26 25 23 28 33 36 36 34 33 30 30 32 39 48 54 55 54 55 56 55 56 59 62 63 61 60 66 66 66 65 65 65 64 63 63 64 63 64 63 62 59 57 53 52 54 57 59
41 33 27 29 28 30 35 34 35 34 31 31 30 37 49 54 54 54 54 55 55 54 54 54 57 59 59 58 63 66 66 65 65 64 63 62 59 60 61 62 63 61 60 57 53 53 55 56 58
40 36 29 27 29 35 36 37 35 34 32 31 31 42 52 54 53 54 54 54 54 54 54 54 55 56 56 53 61 59 61 62 61 60 61 59 57 57 59 62 63 61 61 59 55 54 55 56 49
39 36 35 28 35 36 35 34 37 32 34 34 32 41 48 54 53 52 53 52 54 55 55 55 55 56 55 51 59 58 58 58 58 57 56 57 55 58 58 60 60 60 62 59 57 55 55 50 47
37 35 32 32 36 36 33 35 34 34 34 34 34 40 47 52 53 52 51 50 51 53 55 56 56 57 56 54 51 54 56 57 56 57 55 56 55 54 55 55 57 57 57 57 55 52 51 47 44
36 33 31 31 32 36 34 32 34 34 35 34 34 36 45 48 49 50 50 49 47 50 52 54 56 56 57 55 52 52 54 55 55 56 55 55 55 54 53 53 54 53 53 53 52 50 48 48 44
33 35 32 33 33 34 32 32 33 33 35 34 34 34 36 43 46 47 48 47 46 47 49 52 56 57 58 58 56 53 53 54 54 55 56 55 55 55 53 52 53 53 53 52 52 50 49 49 50
33 31 34 32 32 31 32 30 30 32 34 33 33 32 34 36 38 41 46 48 48 47 48 49 52 58 59 58 58 57 56 55 55 54 55 56 55 55 54 52 52 54 54 53 53 52 51 50 50
32 32 30 31 31 31 31 28 28 30 39 31 32 32 33 34 35 36 40 44 48 49 48 48 49 54 59 59 58 59 58 57 57 55 55 55 56 56 56 55 53 54 54 54 54 54 53 52 51
31 25 26 26 31 30 30 29 31 31 29 29 29 29 30 30 32 34 37 40 43 47 49 50 50 51 56 59 59 59 59 58 58 57 56 55 55 56 56 56 55 53 54 54 54 54 53 53 53
26 24 24 24 30 30 28 28 28 27 27 28 27 26 26 26 27 28 30 33 36 41 44 48 51 51 52 56 59 60 60 59 59 59 58 57 56 56 56 56 56 55 53 54 55 54 54 53 53
29 25 22 23 30 28 26 26 26 24 24 30 22 26 27 27 30 32 35 37 36 35 39 43 46 51 53 56 57 59 59 59 60 60 59 58 57 56 56 56 56 57 55 54 54 55 54 54 54
28 25 24 28 29 29 26 27 23 22 22 23 26 29 32 32 32 34 37 41 41 42 42 41 43 47 51 54 57 58 59 59 59 60 60 59 59 58 57 57 57 57 57 57 54 55 55 55 55
28 27 28 28 29 30 28 27 23 24 27 28 30 33 34 34 35 37 38 41 45 46 45 45 44 45 49 52 55 56 57 58 58 58 59 59 59 59 59 58 58 58 58 58 58 56 55 55 56
27 31 31 30 28 26 27 23 23 25 29 29 32 34 35 35 36 38 40 41 44 46 48 46 44 44 45 49 53 54 55 56 57 57 58 59 59 59 60 60 59 59 60 59 59 59 57 56 55
32 35 30 29 27 26 25 24 22 26 28 30 31 35 36 36 36 38 41 43 45 46 46 45 45 44 45 44 45 49 54 56 57 57 56 56 57 59 60 60 60 60 60 60 60 60 59 58 57
33 28 28 27 26 24 21 21 21 24 27 31 33 34 36 36 36 38 41 43 44 46 45 44 42 41 42 46 49 49 48 49 51 53 54 54 55 56 59 60 60 60 60 61 61 61 60 59 58
28 27 26 26 25 23 20 22 22 23 29 31 33 35 36 37 36 38 41 42 43 43 44 42 43 42 42 42 42 42 46 51 54 54 54 55 55 55 56 58 59 60 60 61 61 61 61 61 59
25 28 28 26 25 22 22 23 24 23 26 29 33 36 37 36 36 39 41 42 42 43 44 44 44 43 43 43 42 42 42 44 46 48 48 51 53 55 56 57 58 58 59 60 61 61 61 61 61
29 30 27 27 31 25 25 28 25 23 24 26 31 35 36 36 35 38 41 41 41 42 43 43 42 43 43 43 43 42 42 42 42 42 43 45 45 45 45 50 54 56 58 58 58 59 59 60 60
22 22 24 26 22 21 23 25 23 22 23 25 31 34 36 36 36 38 39 41 41 41 42 42 41 42 43 43 42 42 43 43 43 42 42 42 42 42 43 44 45 47 50 54 56 57 58 57 58
25 24 23 22 22 21 20 22 24 25 24 24 32 36 36 36 37 39 39 40 40 40 41 40 41 41 42 42 43 43 44 44 44 43 44 44 43 43 42 42 42 43 44 46 48 50 53 56 56
28 27 25 24 23 23 21 21 27 27 32 33 35 36 35 37 39 39 39 39 39 40 40 39 40 40 42 43 44 44 44 45 44 44 44 45 45 45 44 44 44 43 43 44 46 47 48 50 52

GFSSGP_sfc_dewp_003.txt.gz
Dewpoint
59 47 40 39 40 40 38 40 40 43 34 31 31 29 32 34 35 30 57 59 64 66 68 69 72 70 68 67 65 64 62 62 61 60 63 64 63 62 60 60 60 62 61 60 60 60 60 59 63
57 46 38 40 36 36 37 38 41 41 33 31 30 29 30 33 48 53 56 56 63 65 68 69 72 70 67 66 65 64 63 62 62 62 65 65 64 62 62 61 59 58 60 59 60 58 58 57 57
50 46 35 36 37 34 36 42 42 41 30 30 29 30 33 34 48 53 56 57 60 64 67 69 72 71 68 66 65 64 62 63 62 64 64 65 64 61 60 59 57 59 58 58 58 58 58 57 56
40 34 31 34 33 35 36 40 43 38 30 29 27 33 39 47 45 55 57 57 60 62 64 71 72 70 69 68 65 64 62 62 62 64 65 63 64 62 59 58 57 58 58 58 57 58 58 56 57
38 31 29 26 28 31 33 42 39 37 33 29 28 32 40 50 55 56 56 56 57 65 68 70 72 70 69 66 65 64 63 63 62 64 64 62 62 59 60 60 59 59 59 59 58 57 58 58 58
35 30 23 25 26 26 28 40 38 37 34 28 27 38 42 51 54 55 55 55 57 64 67 69 71 70 69 67 67 65 64 64 62 62 62 61 60 61 62 60 61 61 61 60 58 58 58 60 59
36 33 26 24 23 24 24 37 41 35 35 30 29 37 46 48 53 56 55 54 56 65 67 68 67 67 69 68 67 67 66 64 65 63 62 62 62 62 61 62 63 62 62 60 58 56 57 60 60
37 32 27 24 23 25 28 34 35 33 31 30 31 36 42 46 54 55 55 55 55 63 65 66 66 66 65 65 67 67 66 65 65 66 65 63 63 64 65 65 65 63 62 60 58 55 54 56 59
40 33 26 26 28 29 36 35 36 33 32 30 35 41 48 52 54 54 53 55 55 55 59 64 65 64 63 61 65 66 66 65 65 65 64 63 61 62 63 64 65 64 62 60 57 54 55 59 61
38 35 31 28 31 29 35 34 35 34 32 33 40 52 53 53 54 53 53 54 55 55 55 58 62 62 62 59 61 63 63 63 63 62 62 60 60 59 61 62 64 63 62 62 58 55 57 59 52
38 36 37 36 36 34 33 33 35 35 33 34 31 47 53 53 53 54 54 54 55 55 55 56 57 60 59 57 61 60 61 61 61 60 60 60 59 59 60 61 61 61 61 60 59 56 54 53 51
39 38 37 38 36 35 34 33 31 35 34 35 35 43 53 53 53 53 54 54 54 55 56 57 57 57 57 55 60 58 58 59 59 59 58 59 58 57 58 60 59 59 59 59 58 56 54 53 49
39 38 37 34 33 32 35 34 31 32 34 35 38 45 49 53 54 54 53 53 51 54 55 57 57 58 57 55 55 57 57 58 58 58 57 57 57 55 55 56 56 58 57 58 56 56 52 51 48
35 35 34 34 32 33 34 32 33 32 33 33 33 39 45 49 51 51 52 51 50 50 54 56 57 58 58 56 53 52 54 56 56 56 57 56 56 55 54 54 54 54 54 54 54 53 52 49 48
36 33 33 34 34 32 31 29 28 30 32 33 32 33 35 43 46 48 49 50 50 48 50 54 57 58 59 59 57 52 53 54 55 55 56 56 56 56 55 53 53 53 53 52 52 52 51 49 48
32 32 31 33 33 33 29 28 30 30 31 32 31 30 31 33 36 39 41 48 49 49 48 51 55 58 58 60 59 58 55 54 54 54 54 56 56 56 55 55 53 53 54 54 53 53 52 52 50
32 28 28 29 31 31 29 28 30 30 29 29 29 29 27 27 29 31 33 35 38 48 49 49 51 57 59 59 60 59 58 56 55 55 54 54 55 56 55 55 55 53 54 54 54 54 53 53 52
29 27 26 25 28 29 29 28 30 29 26 26 26 26 29 32 33 37 40 41 41 39 41 49 50 52 59 59 59 60 59 59 58 57 56 55 54 55 56 56 56 55 53 53 55 54 54 53 53
29 27 24 25 30 28 28 28 28 25 22 27 28 30 31 33 35 39 42 45 45 45 44 43 44 52 53 57 59 59 59 60 60 59 58 58 57 56 56 56 56 57 55 54 53 54 54 54 54
28 26 25 27 30 27 27 28 25 22 24 29 33 34 34 36 38 39 42 44 46 47 46 45 44 45 52 54 57 59 60 60 60 61 60 60 59 58 57 56 56 57 57 56 54 54 54 54 54
28 27 29 29 30 29 31 28 22 25 28 32 34 34 36 37 38 40 41 43 45 45 46 46 44 44 47 53 56 57 58 58 58 59 59 60 60 60 59 58 57 57 58 57 57 56 55 54 55
25 30 31 30 27 26 28 23 23 27 29 32 33 34 35 36 38 41 42 43 45 45 44 43 44 45 47 47 49 53 54 55 56 57 58 58 60 60 60 60 60 59 59 58 58 59 57 55 55
31 34 30 30 26 27 25 24 24 29 29 31 34 35 35 36 38 41 42 44 45 45 43 42 42 43 43 44 48 49 49 52 54 55 55 56 56 58 60 60 60 60 60 60 60 60 60 59 57
32 29 29 28 26 24 24 23 23 27 30 31 33 35 35 35 38 41 43 43 43 44 43 43 43 43 43 43 42 42 43 48 51 53 53 54 55 56 57 60 60 60 60 60 61 61 60 61 60
27 27 26 25 24 24 22 21 22 25 31 32 34 35 36 36 38 40 42 42 43 43 43 44 43 43 43 43 42 41 41 42 43 45 48 47 51 54 53 55 57 60 61 61 61 61 61 61 61
25 27 28 26 25 24 22 21 22 25 32 35 36 37 36 36 39 40 41 41 42 42 42 42 42 42 43 42 42 42 42 43 43 43 43 44 45 46 46 45 47 49 55 59 61 62 62 62 61
27 28 29 26 29 25 26 28 23 27 31 34 36 36 36 35 38 40 40 41 41 41 42 42 41 42 43 43 43 43 43 44 44 43 43 44 44 44 44 43 43 43 44 46 52 54 58 59 59
23 25 25 26 22 21 23 26 23 24 25 29 35 36 36 36 38 39 40 40 40 41 41 40 41 41 42 43 44 44 44 45 45 45 45 45 45 45 45 45 44 44 43 44 44 46 47 49 52
27 24 22 24 24 21 20 21 25 24 24 28 33 36 36 37 38 39 39 40 40 40 40 41 42 43 44 45 45 45 45 46 46 45 45 45 45 45 45 45 45 45 45 45 44 44 45 45 47
29 27 25 23 24 24 21 21 26 32 29 35 36 36 36 38 39 39 39 39 39 41 42 43 44 44 45 45 45 45 46 45 44 43 43 42 43 43 43 43 44 44 44 44 44 44 45 45 46

GFSSGP_sfc_dewp_006.txt.gz
Dewpoint
59 52 41 41 38 39 37 39 40 41 36 31 31 30 31 34 30 23 53 59 64 65 68 69 71 71 69 67 66 65 63 62 60 61 62 65 63 62 61 60 61 63 62 58 58 58 61 61 65
58 47 38 41 35 36 36 38 41 41 40 31 30 33 30 33 49 55 55 63 65 66 68 68 72 70 68 67 66 64 63 62 61 61 64 65 64 63 62 60 59 58 59 59 60 58 57 57 61
47 43 34 36 36 34 36 40 41 41 34 30 30 32 33 34 48 55 56 63 65 66 68 69 72 70 68 66 66 64 63 62 62 62 65 66 64 63 61 59 58 58 59 58 60 58 58 57 56
40 34 31 32 32 34 36 36 38 41 35 28 29 33 39 48 48 53 56 61 64 66 68 71 72 70 69 67 66 64 62 63 62 65 66 65 64 63 59 58 59 59 58 58 58 59 58 58 57
37 30 26 28 26 30 29 32 38 39 37 31 28 33 39 51 55 56 56 61 62 63 68 70 72 71 68 67 66 64 63 63 62 62 64 63 64 61 60 59 59 59 59 59 58 58 59 58 59
35 29 23 23 24 25 25 28 33 38 38 29 29 37 40 51 55 55 56 57 62 64 67 70 71 71 70 67 67 65 64 64 63 63 63 62 62 61 60 61 60 60 62 61 60 58 59 60 60
35 32 28 24 25 24 25 32 36 37 36 29 30 39 47 52 54 55 55 56 64 66 68 69 69 69 69 68 68 67 65 66 65 63 63 64 63 62 63 61 62 62 62 62 61 59 59 59 61
37 33 28 25 23 24 28 35 35 33 32 30 34 36 39 47 53 55 55 54 61 65 67 68 67 66 66 66 68 67 66 66 65 65 65 64 63 64 64 65 64 64 64 62 61 59 57 57 60
39 33 28 25 26 27 31 32 36 36 32 32 41 40 44 49 55 54 54 55 57 64 65 66 65 65 65 65 66 67 67 66 65 65 64 63 61 61 63 64 64 65 64 63 61 60 57 58 60
37 35 34 32 31 33 33 34 34 35 34 33 42 51 52 53 54 53 53 54 55 58 62 65 65 64 63 62 62 64 62 62 62 63 62 61 60 59 61 63 64 64 64 63 62 61 58 59 56
38 35 37 37 37 38 34 34 34 33 34 34 33 47 52 52 53 53 53 54 55 55 55 63 63 64 62 60 60 62 61 61 61 61 61 60 59 59 59 60 61 62 62 61 61 58 56 54 53
39 39 37 39 40 37 33 34 33 32 33 35 35 39 52 52 53 53 53 53 54 55 55 55 61 62 61 59 60 60 60 60 60 60 60 59 59 57 57 59 60 60 59 59 58 57 55 53 52
40 40 40 39 39 34 33 33 34 32 32 34 35 47 52 52 52 53 54 54 54 55 56 56 56 59 59 57 60 59 59 59 59 59 59 59 59 57 57 58 59 59 58 58 57 57 56 54 52
40 37 35 34 34 34 33 33 33 32 32 31 34 42 49 52 52 53 53 53 53 52 55 56 57 57 57 56 57 58 58 58 58 58 59 58 58 57 56 56 57 57 58 57 57 56 56 54 52
37 35 35 33 34 33 33 30 28 31 30 30 32 33 38 45 49 52 51 52 52 52 51 55 57 57 57 57 54 55 56 57 57 57 57 57 57 56 56 55 54 55 55 55 55 54 53 52 50
32 32 30 32 34 33 31 29 31 31 30 30 31 30 30 31 32 34 35 41 49 51 48 52 55 57 58 58 57 54 52 53 55 55 56 56 56 56 55 55 55 53 53 53 52 52 52 52 50
32 29 28 29 31 31 29 29 30 31 28 29 29 26 30 34 36 39 41 41 40 40 48 49 53 56 57 58 59 58 54 53 53 54 54 54 55 56 55 55 55 54 53 53 53 53 53 52 52
30 29 28 26 26 30 28 28 29 30 24 25 26 30 33 35 37 41 44 45 45 44 43 46 50 53 57 58 59 59 59 57 56 55 55 54 54 55 56 56 55 55 54 53 53 53 53 53 53
30 28 26 26 28 28 28 28 29 28 26 27 30 32 34 36 38 41 43 44 46 46 45 44 44 46 55 59 58 58 59 59 59 58 57 56 56 55 55 55 55 56 55 55 54 53 53 53 53
29 27 26 27 29 28 26 25 28 23 27 31 33 34 36 38 39 41 42 43 43 43 45 44 44 45 50 56 58 59 59 59 60 60 60 59 58 57 56 56 56 56 56 56 55 54 53 54 54
30 28 27 29 30 29 33 28 23 27 31 33 34 35 37 38 39 41 42 43 44 43 42 42 44 46 47 53 57 57 58 58 58 59 59 60 60 60 59 58 57 57 57 56 56 56 54 54 55
27 29 30 30 27 25 28 24 23 26 30 32 33 34 35 38 40 41 43 43 43 43 42 42 43 43 43 48 49 50 52 52 55 56 57 57 58 59 60 60 59 59 58 57 57 57 57 57 55
28 32 30 29 26 26 25 24 24 27 28 32 33 34 35 37 40 42 42 43 43 43 43 43 43 43 43 42 43 45 44 50 51 51 49 50 52 54 55 58 59 60 60 60 59 59 59 59 58
33 28 29 28 26 24 24 25 23 26 28 31 34 34 35 37 40 41 42 43 43 43 43 43 43 43 43 43 42 42 41 42 43 43 45 46 48 51 49 48 53 58 60 60 61 61 61 61 60
28 27 25 24 24 23 25 23 24 25 30 31 34 34 35 37 40 41 41 42 42 42 42 42 43 43 43 43 43 43 43 43 43 43 43 44 44 45 44 44 44 44 46 50 56 59 60 61 60
26 27 26 23 24 24 23 20 21 26 31 34 35 36 35 38 39 40 40 41 41 41 42 41 42 43 43 43 43 44 45 45 45 44 44 44 44 45 44 44 44 44 44 44 45 48 52 55 57
26 27 29 27 27 24 26 26 24 32 34 35 36 35 35 37 39 40 40 41 41 41 40 41 42 43 44 44 45 45 45 45 45 45 45 45 44 43 43 44 44 44 44 44 44 45 46 47 49
27 27 25 26 23 21 23 22 23 28 33 35 35 35 35 35 39 40 40 40 40 40 41 42 44 44 44 45 45 44 45 45 45 44 43 42 42 42 42 42 42 43 44 44 44 44 44 44 45
26 24 22 25 25 22 20 21 25 25 30 34 35 36 36 36 38 39 39 40 41 42 43 44 44 42 41 43 43 43 44 44 43 41 41 39 39 38 39 39 40 41 42 40 40 41 41 41 43
29 27 24 22 21 23 21 22 25 29 26 31 34 36 37 37 39 39 39 41 42 43 43 42 40 38 38 40 40 40 42 39 37 35 35 35 34 35 35 37 37 37 35 37 39 39 39 41 38

GFSSGP_sfc_dewp_009.txt.gz
Dewpoint
63 53 38 43 36 39 36 38 40 40 40 33 31 30 30 34 28 23 52 61 64 64 67 69 72 71 70 69 67 65 64 61 59 61 59 65 63 63 61 61 61 62 61 56 58 59 62 59 64
59 46 39 41 36 34 33 38 40 41 42 34 31 32 29 30 48 54 55 60 64 66 67 68 72 71 70 69 67 65 63 62 60 61 63 65 63 61 61 59 58 58 57 58 60 58 59 58 64
45 36 35 37 36 34 34 38 40 40 40 31 29 33 32 33 46 52 56 64 65 66 68 68 72 71 69 68 66 65 63 63 62 62 65 66 65 62 61 59 59 58 58 58 60 59 57 57 59
38 33 31 30 31 34 36 35 32 33 39 31 30 31 38 46 47 54 58 64 65 66 67 69 72 70 69 68 67 65 64 63 62 63 63 67 64 62 61 59 59 59 59 58 59 60 59 58 58
36 29 25 27 26 28 30 29 29 33 38 33 28 30 38 47 56 56 59 63 64 65 67 70 72 70 69 67 66 65 63 63 63 65 65 64 64 62 60 59 59 60 59 60 58 59 60 59 58
35 29 22 21 23 25 25 25 30 32 38 33 28 36 37 51 55 56 58 62 64 64 67 70 71 71 70 68 67 65 64 63 62 62 62 61 63 62 60 61 60 60 61 61 60 59 59 60 60
35 32 26 26 25 23 25 31 34 36 36 34 34 34 43 51 55 56 56 60 62 64 67 68 70 70 70 69 68 68 65 65 65 64 64 64 64 62 62 62 61 62 62 63 62 61 59 59 60
36 34 29 28 23 22 27 32 33 34 32 30 38 34 35 45 53 55 55 56 62 65 67 67 68 68 67 66 68 68 67 66 67 65 65 64 64 64 64 65 64 63 63 63 63 62 61 59 59
37 33 30 28 25 25 31 34 34 35 34 34 40 41 45 48 55 54 54 54 59 64 65 66 66 65 65 65 66 68 67 67 66 64 65 63 61 60 61 64 64 64 64 64 64 63 61 61 60
37 35 35 33 28 32 36 36 34 34 33 33 35 51 52 54 54 53 53 53 55 61 63 65 65 64 64 64 64 64 64 64 62 61 61 61 60 59 60 62 64 64 64 64 63 63 62 61 55
38 35 37 36 35 38 37 35 34 33 32 34 33 35 51 53 54 53 53 53 54 58 61 64 63 63 62 63 62 62 62 61 60 60 60 60 60 58 59 59 59 61 62 61 62 60 59 55 54
38 39 37 39 40 40 36 34 33 33 33 34 35 35 50 51 53 53 53 53 54 55 56 61 63 63 62 62 60 61 61 60 59 60 60 59 58 57 57 57 58 58 59 59 58 57 57 55 53
40 40 40 40 40 39 37 33 32 33 33 34 33 37 47 51 52 53 53 53 54 54 55 55 61 63 62 60 59 60 60 60 60 59 60 59 58 58 57 56 57 57 58 57 57 56 56 55 54
41 41 39 37 36 34 33 33 34 33 33 32 31 32 42 51 51 52 52 53 54 54 54 56 56 60 61 60 59 59 59 59 59 59 59 59 59 58 57 56 56 57 57 57 57 57 56 56 55
39 34 34 34 36 34 33 31 30 32 31 30 30 30 34 40 46 49 52 52 53 53 53 54 56 56 58 59 57 59 59 58 58 58 58 58 58 58 58 57 55 56 56 56 56 56 55 54 54
32 32 30 33 33 33 32 30 32 33 33 29 30 28 30 33 35 38 40 39 39 45 52 51 54 57 57 57 56 56 56 57 57 57 57 57 57 57 56 56 56 55 54 54 54 53 53 53 52
32 29 30 29 31 31 30 29 31 31 29 28 27 29 34 36 39 42 44 45 44 44 43 47 52 56 57 57 57 56 54 54 54 55 56 56 56 56 56 56 56 55 54 53 53 53 52 52 52
31 30 29 28 28 31 29 29 30 30 25 25 28 33 35 37 39 42 43 44 45 45 44 44 49 54 57 58 59 59 58 55 54 53 54 54 54 55 55 55 55 55 55 54 53 53 53 53 53
33 28 27 27 27 27 28 28 29 29 26 26 30 33 36 38 40 41 42 43 42 43 44 44 45 47 55 58 57 57 58 58 58 58 56 55 55 54 54 55 55 55 55 55 55 54 53 53 53
31 29 29 28 30 28 27 28 29 26 26 29 32 34 36 38 40 41 43 43 42 41 41 42 44 47 51 57 58 58 58 58 59 60 59 59 58 57 56 55 55 55 55 55 55 55 54 54 54
32 30 29 27 30 29 28 28 28 27 31 33 34 36 38 39 40 41 42 42 42 42 42 42 42 42 46 51 56 56 56 56 55 56 57 57 58 59 59 59 58 58 57 56 57 56 55 55 56
38 32 31 29 28 26 31 25 26 25 31 33 34 36 37 39 41 41 42 42 42 42 42 43 43 42 42 43 45 47 49 49 51 53 51 50 51 52 53 55 57 58 59 58 58 58 58 57 56
33 30 29 30 27 26 25 25 26 26 29 31 33 34 37 40 41 41 42 42 43 43 43 43 43 43 43 43 43 43 43 44 46 45 44 45 46 48 47 46 48 49 52 55 58 59 59 59 58
32 28 29 29 26 24 25 25 25 25 26 31 33 34 37 40 41 41 42 42 42 42 42 43 43 43 43 44 44 43 43 43 44 44 44 45 45 46 45 44 44 45 45 47 48 50 52 56 58
28 27 26 24 24 24 25 25 24 25 27 31 33 34 36 39 40 40 41 41 41 41 41 42 43 43 44 44 44 45 45 45 44 44 44 43 43 43 43 44 43 43 44 45 45 47 48 49 50
27 28 26 21 23 22 24 21 22 27 29 32 35 34 36 38 40 40 41 41 41 41 41 43 44 44 44 44 45 45 45 45 44 44 44 43 43 43 41 42 42 42 43 44 44 46 47 47 47
26 27 29 27 26 25 25 25 26 33 33 34 35 35 35 38 39 40 40 40 40 41 42 43 44 44 44 44 44 44 44 43 43 42 42 41 40 38 38 40 39 40 41 42 43 41 42 43 44
27 28 25 27 24 21 22 23 25 29 32 35 35 34 35 37 39 40 40 40 41 42 43 43 42 41 41 41 42 42 43 41 41 39 38 37 36 36 36 36 37 38 38 36 36 39 40 40 40
23 22 24 26 25 21 20 22 25 25 32 34 35 35 35 36 39 40 40 40 42 43 42 41 39 38 38 39 39 39 39 37 35 32 32 32 32 31 31 31 31 30 30 31 35 34 35 38 37
28 25 23 23 22 22 21 22 26 30 31 35 35 36 36 36 38 39 40 42 42 42 39 37 36 35 36 36 35 36 32 28 27 27 27 26 25 26 27 25 25 23 25 28 30 28 34 31 31

GFSSGP_sfc_dewp_012.txt.gz
Dewpoint
63 48 39 42 35 37 35 37 43 39 40 35 31 30 30 32 26 25 49 59 61 63 64 69 72 71 71 69 68 66 65 62 60 61 59 61 63 63 61 61 61 61 59 56 58 58 59 58 62
52 41 40 40 35 32 32 37 39 39 41 42 31 32 30 29 46 51 54 59 64 64 66 68 72 71 70 70 68 66 65 63 60 61 61 66 64 60 59 59 58 58 57 57 59 58 58 59 61
41 36 34 37 35 32 32 37 40 37 35 36 28 32 31 31 42 50 56 60 64 65 67 68 72 71 71 69 67 66 64 63 61 61 62 66 64 63 62 59 59 58 58 57 60 60 60 58 59
37 31 29 28 30 34 36 35 31 29 34 36 28 29 36 40 45 53 59 63 64 65 66 69 72 71 70 69 67 66 64 63 62 62 63 66 66 63 62 59 58 59 59 59 59 61 60 59 59
35 29 23 24 25 27 30 28 26 31 34 37 29 27 35 44 56 55 62 64 63 64 66 68 71 71 70 69 68 66 64 63 62 63 65 65 66 63 61 60 59 59 60 59 59 59 60 60 60
36 29 23 19 21 24 25 26 30 34 35 38 28 33 35 50 55 56 62 63 64 64 66 68 71 71 70 69 68 66 64 63 63 62 63 62 62 64 60 61 61 60 60 61 61 60 59 59 61
35 32 28 26 25 24 24 32 31 34 33 34 31 31 39 47 54 56 59 61 63 64 66 68 69 70 70 69 69 68 66 65 64 64 64 64 64 62 62 62 62 62 61 62 63 63 62 60 60
36 34 30 30 24 22 25 34 33 33 33 34 36 31 34 46 53 55 56 59 60 63 65 66 67 68 68 67 69 68 68 67 67 66 65 64 64 63 64 65 65 63 62 63 64 64 63 62 61
36 33 32 30 25 24 31 35 36 35 34 34 35 39 42 51 54 54 53 54 58 62 64 65 66 67 66 66 66 68 68 67 67 66 65 64 61 60 61 62 64 64 63 63 64 64 63 63 63
37 35 35 34 28 28 35 37 36 34 33 32 33 42 51 53 53 53 53 53 54 59 62 66 65 65 65 66 64 65 64 64 63 62 60 61 60 59 60 61 63 63 64 64 63 63 64 63 58
37 35 37 37 34 35 38 38 37 33 32 33 32 33 41 52 53 53 53 53 54 55 61 64 64 64 63 64 63 62 62 61 61 60 60 60 60 58 58 58 58 58 61 60 61 60 59 58 56
38 38 37 39 40 40 39 37 35 33 33 34 34 35 37 48 51 53 53 53 52 54 57 62 63 63 62 62 61 61 61 60 60 59 59 58 58 57 57 56 56 56 57 58 58 58 57 56 56
41 40 41 40 41 40 39 36 34 33 34 34 34 34 34 43 50 52 53 53 53 53 55 57 62 63 62 61 60 59 60 61 60 59 59 59 58 57 57 56 56 56 57 57 57 57 57 57 56
42 42 41 40 39 37 34 35 33 34 34 32 32 32 31 39 49 52 51 52 53 54 54 55 56 62 62 62 60 60 59 59 59 59 59 58 58 58 57 56 56 56 57 57 57 57 57 57 56
41 37 36 34 35 35 35 32 32 33 32 31 30 30 31 32 39 41 45 44 44 47 52 54 55 57 61 61 60 60 59 59 58 59 58 58 58 58 58 57 56 56 56 56 56 56 56 56 55
34 32 31 35 33 33 32 26 30 32 33 31 29 29 34 38 41 43 44 44 44 43 43 44 53 56 57 59 59 59 59 59 58 58 58 58 58 57 57 57 57 57 55 55 55 55 54 54 54
32 31 30 31 31 31 31 29 28 31 29 28 26 34 36 38 40 42 43 45 45 45 44 45 49 54 57 57 57 57 56 57 57 57 57 57 57 57 57 57 56 56 55 54 54 54 53 53 53
33 30 30 30 29 30 29 28 30 30 29 27 32 36 38 39 40 41 42 42 43 44 45 46 48 49 55 57 57 57 56 54 54 53 54 54 55 55 56 56 55 55 55 55 54 54 54 53 53
34 31 32 28 29 27 27 28 28 29 28 27 29 34 37 38 40 42 42 41 41 41 42 43 46 50 56 57 56 56 56 57 57 58 58 56 55 55 54 54 55 55 55 55 55 55 54 54 54
32 30 29 32 30 27 28 27 29 29 27 26 30 34 37 39 40 41 41 41 41 41 41 41 42 44 51 56 57 57 57 58 58 57 55 55 58 58 57 57 56 56 56 56 55 55 55 56 55
34 33 33 33 30 29 28 27 28 27 30 32 33 36 38 39 40 40 41 41 42 42 42 42 42 42 43 46 51 51 52 51 50 50 48 49 49 47 47 49 51 53 56 56 57 57 57 56 56
39 35 32 30 28 26 28 24 27 25 29 32 34 37 38 40 41 41 41 42 42 42 42 43 43 43 43 43 44 44 45 45 46 47 45 45 46 46 44 45 45 46 49 48 50 50 55 56 55
40 35 33 32 29 25 27 25 25 26 28 31 33 35 38 40 41 41 42 42 42 42 42 43 43 44 44 44 44 44 44 44 44 44 43 44 43 45 44 43 44 43 44 45 46 46 47 48 50
36 30 29 29 26 24 25 24 24 25 26 30 34 34 38 40 41 41 42 41 41 42 43 43 44 44 45 45 45 44 44 43 42 42 42 42 42 43 42 41 42 43 43 44 45 46 46 46 47
33 29 26 25 24 24 26 24 25 26 27 30 32 34 37 40 40 41 40 41 41 41 43 44 44 44 45 44 44 44 44 43 42 42 41 39 38 38 38 38 39 40 41 42 44 45 45 45 46
32 28 26 22 22 22 25 22 22 30 32 30 33 34 37 40 40 40 40 40 40 42 43 43 43 43 43 43 43 42 41 41 40 39 39 38 38 38 35 36 37 38 39 39 38 40 43 43 44
27 28 29 26 25 25 26 25 27 32 33 33 34 34 37 39 39 40 40 40 41 43 43 42 41 41 41 40 41 40 38 37 36 36 35 33 33 31 32 34 33 33 32 30 32 36 36 36 40
28 29 26 27 24 22 24 22 24 24 30 34 33 34 36 38 39 40 40 40 42 43 41 39 39 38 38 38 38 36 34 32 31 30 29 29 28 28 28 27 26 25 23 25 26 34 27 30 37
24 24 25 27 26 22 20 21 25 25 27 33 34 34 36 38 39 40 39 42 43 41 39 37 36 36 35 35 34 30 27 26 25 25 25 24 25 24 23 21 23 21 20 21 23 28 22 29 29
25 24 24 25 22 23 22 22 26 29 31 34 35 35 35 37 39 39 40 42 41 38 36 33 32 32 32 32 29 25 24 22 22 22 22 21 20 20 19 18 19 18 18 19 22 20 19 27 23

GFSSGP_sfc_dewp_015.txt.gz
Dewpoint
59 44 42 47 39 39 36 37 40 39 40 39 36 31 30 32 28 31 51 59 61 63 64 69 73 72 71 70 69 67 65 63 62 61 58 60 62 61 62 62 60 60 59 57 58 60 59 60 59
48 38 45 43 36 33 32 37 39 39 36 40 35 33 31 30 43 47 54 58 62 63 64 69 73 72 71 70 69 67 65 63 61 61 60 62 64 62 58 58 57 60 57 57 58 60 59 60 59
39 37 40 40 37 32 33 37 37 34 31 34 31 31 31 32 38 47 55 60 64 63 65 68 72 72 71 70 69 67 65 64 62 61 62 65 64 62 62 60 59 58 59 57 59 60 58 60 60
38 37 32 28 30 35 36 37 32 29 35 38 30 29 34 39 44 51 57 61 63 64 66 69 72 71 72 70 68 67 65 64 63 61 62 65 66 64 62 61 59 58 59 59 59 59 61 61 60
38 33 27 25 25 28 30 31 28 32 34 35 30 30 34 43 55 54 62 62 63 65 67 67 71 71 71 70 68 67 65 64 62 63 64 64 67 65 62 60 59 59 59 59 59 59 59 60 61
40 33 29 28 22 24 26 27 30 33 35 36 30 30 35 48 54 56 62 63 63 65 66 67 70 72 71 70 69 67 65 64 63 63 63 64 64 64 62 62 60 60 60 60 60 61 60 59 59
40 36 33 27 28 28 25 33 32 33 33 33 32 32 34 44 54 57 62 63 64 65 66 67 67 70 71 70 69 69 67 65 65 64 64 64 64 62 61 61 62 62 62 60 62 63 63 62 61
37 37 31 30 29 27 25 35 35 34 33 35 35 33 34 43 53 56 58 61 63 64 65 66 67 69 69 68 69 69 68 67 67 67 66 65 64 64 63 65 64 63 63 62 63 63 64 63 63
37 35 33 33 28 31 29 36 37 36 35 34 34 38 42 51 54 55 55 57 60 62 64 66 67 69 69 68 67 68 68 67 67 66 66 64 62 62 61 62 63 63 64 63 63 63 64 64 64
39 38 36 36 31 30 32 37 38 37 35 34 33 37 45 51 53 53 53 54 56 60 63 65 67 68 68 67 67 67 66 65 64 63 62 62 62 61 60 60 62 62 63 64 64 63 64 64 61
39 38 38 37 36 34 37 39 39 35 37 35 34 35 36 45 49 52 53 53 53 55 61 64 66 67 67 67 67 66 65 65 64 63 62 61 61 61 60 60 60 60 60 59 60 60 60 60 60
37 38 38 39 40 40 39 39 38 36 37 37 36 36 36 35 39 46 52 53 53 54 55 61 65 65 66 66 66 65 64 64 64 63 62 61 60 60 60 59 60 60 59 59 60 58 58 59 59
39 40 40 40 41 41 41 39 38 36 37 36 36 37 35 34 37 48 52 53 54 53 54 56 61 64 65 65 65 64 63 63 63 63 62 60 60 59 60 59 59 59 59 59 59 58 58 58 57
42 42 41 42 41 40 37 38 36 38 36 34 34 33 32 33 40 50 51 52 52 53 53 55 56 61 64 64 64 63 63 62 62 61 61 60 60 59 59 59 59 59 59 58 58 58 58 58 57
42 40 39 37 37 37 37 34 34 36 35 33 32 30 34 37 40 42 43 42 42 43 44 45 52 56 61 63 63 63 62 61 61 60 60 60 60 60 60 59 58 58 58 58 58 57 57 57 56
39 35 37 38 34 34 33 33 32 32 33 33 30 32 38 40 42 43 44 45 46 45 46 47 47 55 58 60 61 61 61 61 60 60 60 59 59 59 59 58 58 58 58 57 56 56 56 55 55
34 37 32 35 35 35 33 31 33 31 31 30 28 34 37 39 41 42 42 44 45 45 47 50 51 52 57 58 59 59 59 59 59 58 58 58 57 58 58 57 57 57 57 56 56 56 55 55 55
33 33 31 32 32 31 30 30 30 31 31 31 28 34 38 39 40 41 42 42 42 44 45 49 52 55 57 58 58 58 58 57 57 57 57 57 56 56 56 56 56 57 57 57 57 56 56 56 56
33 33 35 35 31 29 29 28 30 31 30 30 29 35 38 39 41 41 41 42 42 43 43 45 50 54 57 58 58 58 58 56 53 52 52 52 54 55 55 54 53 55 55 55 56 56 56 56 57
34 33 31 33 31 29 30 29 30 31 31 29 29 35 38 39 40 41 41 42 42 42 43 43 44 46 53 58 59 58 54 50 49 48 47 46 43 44 42 44 45 45 47 47 48 50 50 52 53
35 34 33 35 33 30 29 29 29 29 29 31 32 37 38 39 39 40 41 42 43 43 43 44 44 45 45 47 48 47 48 48 46 45 44 44 43 42 41 42 42 43 44 44 45 46 46 45 45
38 36 36 34 35 31 29 26 28 28 28 32 34 37 38 40 41 41 41 42 43 43 45 45 46 45 45 46 46 46 45 44 44 44 43 42 42 41 39 40 41 41 42 42 43 42 44 43 43
40 40 38 36 32 26 26 26 27 26 26 31 34 37 39 40 41 41 42 43 43 45 45 46 46 46 46 45 45 44 43 43 42 41 40 40 39 40 37 38 39 39 39 41 42 41 42 42 43
33 31 31 29 27 25 26 26 26 25 26 30 33 36 39 40 41 42 42 43 43 45 46 46 45 45 44 44 43 43 42 39 38 38 35 35 34 35 33 33 34 35 35 37 36 38 40 41 42
35 36 33 27 25 25 26 25 26 27 27 31 33 35 39 41 41 41 41 42 43 44 45 45 44 43 42 41 40 40 38 37 34 33 30 28 27 30 29 30 28 29 30 29 30 34 40 40 40
39 36 28 23 23 23 26 24 23 27 32 32 33 35 39 40 41 41 41 42 43 44 44 42 41 41 40 39 36 34 33 31 28 28 26 25 25 26 26 26 24 24 23 21 25 29 38 34 36
36 36 31 27 26 25 27 27 28 30 32 33 34 36 39 40 40 41 41 41 43 43 42 40 39 39 39 36 31 27 25 24 24 23 22 23 22 18 21 22 21 22 20 20 23 24 27 25 28
35 33 32 27 24 23 25 23 26 26 27 33 33 35 38 40 40 40 40 42 43 41 39 38 37 35 35 30 25 22 21 19 19 19 19 20 18 19 19 18 18 19 17 17 18 21 22 20 23
30 31 28 28 27 24 21 22 26 26 27 30 34 35 38 39 40 40 40 43 41 38 36 35 33 33 31 25 21 18 17 17 16 16 17 17 17 17 16 15 15 14 14 14 16 16 16 19 23
28 28 27 26 23 23 22 23 26 29 29 32 35 35 37 39 40 40 42 41 38 35 32 31 29 29 27 21 17 15 15 15 13 14 15 15 15 15 14 13 13 12 13 14 13 14 18 20 22

GFSSGP_sfc_dewp_018.txt.gz
Dewpoint
56 42 43 43 35 35 27 31 39 37 38 36 35 34 32 32 30 32 54 59 58 59 59 68 73 72 71 70 69 68 67 64 62 60 57 59 61 61 59 61 60 60 57 58 60 62 61 61 60
48 37 43 43 26 25 23 35 39 38 33 33 34 34 33 31 35 43 49 58 59 59 59 66 73 72 72 70 70 68 66 64 61 60 59 61 63 61 62 58 58 60 59 57 59 61 61 60 61
42 36 35 33 32 23 27 37 35 32 33 34 35 31 31 32 36 42 54 58 60 60 60 64 73 72 72 71 70 68 66 65 62 60 62 62 66 61 59 59 59 59 59 58 59 60 60 61 61
41 38 33 26 20 29 34 36 29 32 35 37 35 33 32 39 41 50 55 58 58 59 61 68 73 72 72 71 70 68 66 65 63 62 61 63 66 64 63 61 59 58 59 59 59 59 59 61 61
41 35 31 28 27 21 25 28 28 32 33 35 36 35 34 43 52 52 57 58 58 59 61 64 71 72 71 71 69 68 66 64 63 62 63 64 64 66 62 62 60 58 59 59 59 59 60 59 60
40 36 31 31 31 30 29 26 31 32 33 34 34 32 36 47 50 54 59 58 58 60 62 61 69 72 72 70 69 68 66 65 63 62 62 63 65 63 63 62 60 60 60 59 61 60 61 61 60
41 36 32 32 31 33 25 30 30 32 33 33 34 33 34 42 52 56 59 59 60 61 62 61 62 67 71 71 70 69 67 66 64 63 64 63 62 62 61 61 62 62 63 62 62 63 64 64 63
40 37 33 32 30 33 28 27 36 34 32 35 33 32 34 44 50 56 58 58 60 61 62 61 62 63 66 66 69 69 69 68 67 67 66 65 65 64 62 64 63 63 63 63 63 63 64 64 64
39 36 32 33 33 33 29 35 38 38 36 33 33 35 38 46 51 54 54 56 58 60 62 63 62 63 64 64 65 68 68 68 67 66 66 64 59 59 60 62 62 62 62 63 63 63 63 64 65
40 37 35 36 35 34 35 37 39 39 35 34 31 34 35 37 42 46 49 51 55 57 59 61 63 63 64 63 64 65 62 63 61 60 59 57 57 58 59 61 61 62 63 63 63 63 63 64 58
42 38 38 38 37 35 37 39 40 39 38 35 34 33 34 37 37 38 43 49 50 52 56 59 61 63 63 64 64 63 63 62 61 61 60 58 56 57 58 59 59 59 60 58 58 58 57 57 57
40 40 39 39 39 40 39 40 40 40 40 40 39 39 37 35 35 35 39 46 50 52 53 56 59 61 63 63 64 63 62 62 62 61 61 59 58 57 57 56 57 58 57 57 58 57 57 57 57
41 39 40 40 40 40 41 40 40 40 40 40 40 39 37 35 35 35 46 49 51 52 53 54 56 59 61 63 63 63 62 62 61 62 61 60 59 57 57 57 57 57 57 57 57 57 57 57 57
42 42 40 40 40 41 40 40 39 38 39 38 36 36 35 34 35 41 47 49 50 51 52 53 54 56 58 61 62 62 62 62 62 61 61 61 60 59 59 59 58 58 58 58 57 57 57 57 57
43 41 41 41 41 40 39 38 37 37 32 31 31 33 34 38 40 42 44 43 44 44 44 45 46 51 57 59 60 62 62 62 61 61 61 61 60 60 60 60 59 58 58 58 58 58 58 57 57
42 42 39 38 40 40 38 35 35 34 30 31 30 30 37 40 40 42 43 44 44 46 48 50 50 47 54 58 60 60 61 61 61 61 60 60 59 60 60 59 58 58 58 58 58 58 58 58 58
41 37 38 36 39 38 37 34 34 31 31 30 30 31 36 38 40 42 43 44 45 47 49 52 52 52 56 58 59 59 59 59 59 59 58 58 58 58 58 58 59 59 59 58 58 57 57 56 56
35 36 33 35 35 34 35 34 32 32 31 31 30 32 36 37 39 41 42 44 45 48 51 53 56 57 57 57 58 58 59 59 59 58 58 58 57 57 57 55 52 52 53 52 51 52 52 52 52
35 33 34 35 36 33 34 35 33 33 34 31 31 32 35 37 40 41 42 43 44 46 48 53 56 57 56 57 57 56 52 51 48 47 44 43 43 43 44 44 42 43 43 43 42 43 43 43 44
35 34 33 35 33 32 34 35 36 34 32 31 31 32 36 38 38 40 41 42 42 43 44 46 51 56 58 58 56 50 48 46 46 45 44 42 40 40 39 41 40 41 40 41 41 42 42 41 41
37 34 33 33 34 36 33 33 32 30 29 30 29 33 36 37 37 39 41 43 44 45 45 45 46 48 48 48 47 47 47 47 45 43 42 41 39 38 38 39 39 39 40 39 40 39 41 38 39
36 36 36 37 38 34 33 29 31 28 29 30 31 35 36 38 38 39 41 43 45 46 47 47 46 46 47 47 46 46 44 43 42 41 40 39 38 35 32 33 34 34 34 34 35 32 35 35 35
34 39 38 39 37 34 34 30 29 28 26 29 32 36 37 39 39 40 42 44 45 47 47 47 46 45 44 44 43 42 42 41 40 37 36 35 34 32 28 28 29 29 28 29 30 29 30 31 32
40 38 34 31 30 31 31 28 27 23 25 28 33 36 38 38 39 41 43 44 46 47 47 46 44 43 43 42 41 41 39 36 34 33 29 28 26 26 25 23 23 24 25 25 24 26 29 33 32
38 36 36 33 32 27 26 26 27 26 27 29 32 36 38 40 40 41 42 43 44 46 46 44 42 40 39 38 37 35 34 32 29 26 23 21 19 21 21 21 19 19 21 21 22 27 31 34 30
37 36 30 25 26 26 26 26 23 26 30 30 32 36 39 40 40 41 42 44 44 45 43 42 40 39 36 34 31 29 28 26 22 20 19 16 16 17 19 18 16 17 17 17 19 22 26 28 26
39 36 32 27 27 24 25 27 28 29 30 31 31 37 39 40 41 41 42 43 43 42 41 40 39 37 34 30 26 22 20 19 18 16 15 15 15 12 14 15 15 15 15 15 18 18 17 19 20
40 38 34 29 24 22 24 25 25 26 26 31 32 36 38 40 40 41 41 43 42 40 40 38 36 33 30 25 21 18 15 12 13 13 13 14 12 13 13 12 12 12 12 12 13 14 15 15 18
37 37 37 31 28 23 20 22 26 26 28 29 32 35 38 40 40 40 41 43 40 39 37 34 34 31 26 21 18 16 13 10 10 10 11 11 11 11 10 10 10 9 10 10 11 11 13 16 18
38 36 37 31 26 26 24 23 25 28 29 31 33 35 38 40 40 40 42 41 38 37 34 31 31 28 23 18 14 13 12 11 10 10 11 10 9 10 10 10 9 9 10 11 10 11 14 16 18

GFSSGP_sfc_dewp_021.txt.gz
Dewpoint
57 47 41 42 33 29 26 26 35 38 38 35 35 35 35 33 32 34 52 55 54 56 59 69 73 73 71 70 69 69 67 65 62 60 57 57 60 60 59 61 61 61 58 58 60 62 62 61 63
51 44 40 37 26 23 20 25 33 36 36 34 34 34 34 32 34 44 50 55 55 55 58 63 73 72 71 70 70 69 67 65 62 59 59 59 62 61 62 58 58 59 60 58 59 60 61 62 62
48 40 36 34 27 20 25 30 31 34 35 35 36 33 32 34 37 43 52 55 55 55 57 68 73 72 72 71 70 68 67 64 62 59 60 62 64 64 59 59 59 59 60 59 59 60 60 60 61
44 40 35 31 29 24 27 33 33 32 35 35 36 35 33 41 42 50 53 54 54 55 57 71 73 72 72 71 70 68 67 65 63 61 61 62 64 65 63 61 60 58 59 59 59 59 59 60 61
44 38 32 32 31 26 17 27 28 31 34 34 36 36 36 45 49 50 54 54 54 55 58 66 72 72 71 71 70 68 66 64 62 61 61 63 64 66 63 62 60 59 59 59 60 59 60 60 59
40 37 31 28 30 31 30 23 27 31 33 33 34 35 39 46 49 52 55 54 55 57 59 62 70 72 71 71 69 68 66 64 63 60 63 63 65 64 63 63 61 60 61 61 60 62 62 62 61
41 36 33 29 28 32 33 24 26 31 32 33 34 33 38 43 48 54 55 54 56 58 59 59 61 67 71 71 70 69 67 65 64 63 63 63 62 62 61 62 62 62 63 63 62 62 64 64 64
41 37 34 32 30 30 33 27 26 33 31 34 34 34 36 43 48 53 55 54 56 58 58 58 60 61 65 66 70 69 69 68 67 67 66 66 65 64 63 63 64 63 63 63 63 63 62 64 65
44 36 33 32 31 30 33 33 34 37 36 34 33 34 37 38 45 50 52 53 54 56 58 59 59 60 62 62 65 68 68 67 67 66 65 64 58 58 59 62 63 61 62 62 62 62 63 64 65
42 37 34 33 33 32 33 36 38 38 36 35 35 33 35 35 36 38 42 47 53 54 56 58 59 59 61 60 63 63 62 63 62 61 59 60 55 55 58 60 62 62 63 63 63 63 63 64 58
43 38 37 35 35 36 35 36 37 38 38 37 35 34 37 37 37 34 36 40 45 51 54 56 58 59 60 61 61 61 61 60 59 58 58 56 54 54 56 57 57 59 60 59 59 60 60 58 56
40 39 38 38 38 38 38 37 37 38 39 39 40 40 40 38 33 33 34 37 44 48 50 54 56 58 59 60 61 60 60 60 59 59 58 57 57 56 55 54 56 57 57 57 58 57 56 57 57
41 39 38 38 38 39 39 38 38 38 39 40 39 40 40 39 36 33 35 43 45 48 51 52 54 56 58 60 60 60 60 60 59 60 59 58 58 56 56 56 56 57 57 57 57 57 57 57 57
43 40 39 38 38 38 38 38 38 38 39 37 37 36 36 37 36 37 41 44 47 49 51 52 53 54 55 58 60 60 60 60 60 60 60 60 60 59 59 59 59 58 58 58 58 58 58 58 57
44 41 39 39 38 38 39 38 37 38 37 34 29 29 31 34 38 39 42 43 44 45 44 44 46 48 54 56 58 60 61 60 60 60 60 60 60 60 60 60 60 59 59 58 58 58 58 58 58
40 44 40 38 37 38 39 36 36 34 34 31 29 28 33 38 38 40 42 43 44 45 46 49 50 46 49 56 58 59 60 60 60 60 60 59 59 59 59 59 59 59 59 59 59 58 56 55 54
42 38 39 39 37 36 38 36 35 34 33 30 30 28 33 37 38 41 41 43 44 46 48 52 52 52 53 58 59 59 59 58 58 58 59 59 59 59 59 59 57 54 55 53 52 50 50 50 50
36 37 38 37 34 37 36 35 35 34 32 33 30 28 32 36 37 40 42 44 47 50 52 54 55 56 57 57 57 57 58 57 54 52 50 48 46 47 48 46 44 44 45 43 44 44 43 43 42
37 36 35 35 33 34 34 34 32 32 33 33 32 29 32 36 39 41 43 44 45 49 53 55 55 56 56 57 57 54 51 49 47 45 43 42 41 41 42 42 40 41 41 41 40 42 43 43 42
37 35 34 32 34 34 33 31 33 33 34 35 33 30 32 37 38 40 40 41 41 44 48 53 55 56 57 53 52 50 47 46 45 45 42 40 38 38 38 39 39 39 39 39 39 39 39 39 39
38 36 31 30 33 34 33 33 34 35 35 34 31 30 33 37 37 39 40 43 44 44 45 47 48 48 49 49 49 48 47 47 43 42 41 39 36 33 33 34 34 34 35 36 36 35 37 34 35
38 35 34 31 34 31 35 27 29 29 31 30 29 30 35 37 37 38 41 43 45 46 46 46 46 46 46 47 46 45 43 41 40 40 39 37 35 31 27 28 28 29 30 29 31 27 30 31 32
35 36 34 35 34 35 35 33 29 30 27 29 29 32 36 37 37 39 42 44 45 47 47 46 44 43 43 42 42 41 40 39 38 36 34 32 31 28 25 23 25 24 25 26 27 27 28 28 32
40 36 36 35 35 32 32 31 26 27 27 26 30 34 36 36 38 41 43 45 47 47 46 45 43 41 41 41 40 39 38 36 35 33 30 28 25 25 24 21 21 21 23 24 23 26 28 30 34
39 37 35 32 31 26 28 29 27 25 27 28 31 34 36 38 39 41 42 44 45 45 45 42 40 38 38 37 35 35 34 33 30 27 24 22 21 21 21 19 17 18 22 21 23 27 32 32 33
40 37 27 25 24 24 27 25 25 27 28 28 32 35 37 38 40 41 42 44 45 45 42 41 39 36 34 33 31 30 30 27 24 21 20 18 17 17 17 16 15 15 16 16 19 24 28 29 27
39 33 33 27 27 25 27 27 26 28 30 30 31 35 37 38 40 40 42 43 44 43 42 41 38 35 32 30 27 24 22 21 20 18 17 17 15 11 13 14 13 13 13 13 18 20 18 19 21
39 36 32 29 24 22 24 24 24 26 26 30 30 35 37 38 39 40 42 43 42 41 40 39 36 33 30 27 25 21 18 15 15 15 14 13 11 11 12 11 11 11 11 12 14 15 16 15 18
38 36 36 31 28 23 22 22 26 26 27 29 31 35 37 38 39 40 41 42 41 40 39 36 33 30 27 25 22 20 16 14 14 13 11 10 9 9 9 9 9 9 10 10 12 12 14 13 17
40 36 35 30 28 26 24 23 25 28 30 30 32 34 37 39 40 40 41 42 40 39 36 34 33 29 27 22 19 18 17 16 14 11 10 9 8 9 9 9 10 10 10 11 11 12 12 13 16

GFSSGP_sfc_dewp_024.txt.gz
Dewpoint
60 50 46 47 40 36 31 28 27 39 38 35 34 34 34 35 34 40 53 53 56 61 69 72 74 73 72 71 69 68 67 65 63 60 58 58 59 60 61 61 60 62 60 60 61 62 62 64 64
58 52 47 45 33 27 27 24 35 37 35 35 35 35 35 36 42 49 53 54 55 58 68 69 73 73 72 71 70 69 67 65 63 60 59 59 62 61 61 59 60 60 61 60 60 61 61 61 62
55 45 42 41 36 26 26 33 34 32 34 36 36 36 33 38 46 49 55 55 55 55 63 68 74 73 72 71 70 69 67 65 62 60 60 62 63 64 58 60 61 60 60 59 59 59 59 60 61
49 45 40 33 32 33 26 26 34 31 34 36 36 36 40 47 48 51 54 54 54 55 70 73 73 73 73 72 70 68 67 66 63 61 60 61 63 66 63 62 61 60 60 60 59 59 59 58 59
47 44 36 34 32 32 25 20 30 30 34 34 35 36 41 47 49 52 54 53 54 57 68 71 73 73 72 72 70 69 67 65 63 61 61 64 64 65 64 63 61 60 59 59 59 58 59 61 60
44 42 34 31 29 29 30 30 26 26 31 34 35 34 43 48 52 53 54 53 55 57 64 69 72 72 72 72 70 69 67 65 64 60 61 63 65 64 64 64 62 61 61 61 60 60 63 63 63
43 40 35 33 30 29 35 25 24 28 32 32 34 33 42 44 52 54 54 54 56 58 59 64 69 70 71 72 70 70 68 67 65 63 63 64 65 63 63 63 63 63 62 63 63 62 62 63 64
44 41 35 34 33 32 33 31 28 28 32 36 35 33 38 43 50 54 55 54 55 58 58 60 61 65 66 70 70 70 69 68 67 67 66 65 64 64 65 65 65 63 63 62 62 63 62 62 63
47 40 37 35 34 34 33 33 34 37 36 36 35 33 38 42 49 51 53 53 54 57 58 58 59 61 64 66 68 69 69 68 67 66 65 64 61 59 61 63 64 63 61 61 62 63 63 65 65
45 41 39 36 34 33 33 35 37 38 37 36 36 36 35 36 37 38 45 52 53 55 57 58 59 60 62 61 66 65 64 65 64 63 62 62 60 58 59 61 62 63 64 64 63 63 64 64 61
45 42 41 37 36 36 36 36 36 36 38 38 37 39 40 40 39 37 36 39 49 53 56 57 59 59 61 61 64 64 63 63 63 62 59 59 55 55 57 58 59 60 62 60 61 62 62 60 59
43 43 41 40 39 39 38 38 37 36 38 40 40 40 40 40 39 37 35 35 40 50 53 56 56 59 59 61 61 61 61 61 60 59 58 57 57 56 55 55 56 57 58 59 58 58 57 57 57
44 43 41 39 39 38 39 38 38 37 39 39 39 40 40 40 40 38 35 42 44 47 50 52 55 56 59 59 61 61 60 60 60 60 59 58 58 57 57 57 57 58 58 57 57 58 58 58 58
44 44 43 41 38 38 37 38 38 38 38 38 38 38 36 37 38 37 38 43 49 49 51 52 53 54 56 59 59 60 60 60 60 61 60 60 60 59 60 59 60 60 59 59 59 58 58 58 58
39 40 43 42 39 38 38 36 37 39 38 37 37 33 31 34 37 39 43 43 44 45 45 45 46 48 54 55 59 60 61 61 61 60 60 60 60 60 60 60 60 60 59 59 59 58 59 58 57
41 41 40 41 42 38 38 35 38 38 37 36 35 29 32 37 39 40 42 43 44 45 46 50 49 46 46 55 59 60 61 60 60 60 59 59 59 59 59 59 56 57 59 57 56 53 50 51 51
41 37 37 40 41 38 36 35 38 38 36 34 32 30 32 37 38 41 42 43 44 47 50 52 51 48 51 58 59 59 59 58 58 57 54 49 48 51 53 48 45 46 48 46 45 44 45 44 43
35 38 36 38 41 39 37 35 37 37 35 32 32 31 33 37 38 41 43 45 49 51 54 54 56 57 58 58 58 56 50 48 47 46 45 44 43 43 45 44 42 43 43 43 42 41 43 43 42
35 35 36 36 38 37 36 34 35 36 36 34 34 32 32 37 40 41 44 46 50 54 54 55 56 56 57 57 56 51 49 46 45 44 41 40 40 41 40 42 41 41 40 40 37 39 38 38 39
37 38 38 37 37 37 35 34 35 34 34 33 33 33 32 38 39 41 42 43 46 51 54 55 56 54 52 52 50 49 46 46 45 44 40 37 35 35 33 35 36 34 36 35 34 33 35 35 35
33 37 37 38 35 35 33 33 33 33 32 33 34 36 34 38 38 39 41 44 44 46 48 48 49 49 49 48 47 46 47 46 43 42 40 37 32 30 30 30 30 31 32 32 31 31 30 31 33
32 36 39 40 36 33 34 28 31 32 32 33 34 33 36 37 38 40 42 45 45 46 47 47 47 47 48 48 47 45 43 41 41 40 39 37 31 28 26 27 27 27 29 27 28 26 28 29 31
32 38 40 40 38 37 37 33 33 32 30 32 30 30 36 37 38 41 44 45 46 47 46 44 43 43 43 43 42 42 40 40 38 36 33 30 30 27 24 24 25 24 27 25 25 25 27 29 31
36 38 40 42 38 34 32 34 30 29 29 29 30 32 36 36 39 42 45 46 47 47 45 43 41 41 41 40 39 38 36 35 34 30 29 28 27 28 24 22 21 21 23 24 24 24 25 29 31
36 37 32 33 34 32 32 31 31 26 27 29 30 34 36 37 40 43 44 46 45 45 43 41 40 38 37 36 34 34 32 29 26 25 24 22 22 23 20 19 18 19 20 21 21 25 26 29 28
38 35 33 28 29 25 28 29 28 28 28 30 33 36 37 38 41 42 44 45 45 44 41 39 37 34 33 31 29 28 28 27 24 21 21 19 19 18 17 17 16 15 16 17 17 23 26 23 24
36 33 38 30 24 25 27 27 25 30 30 30 34 36 37 38 41 41 43 44 44 42 41 38 35 33 30 28 25 21 20 19 19 17 17 18 16 12 13 14 13 14 14 14 16 20 18 17 18
41 40 34 33 24 25 27 26 25 27 30 29 34 36 37 39 40 41 43 44 43 42 40 37 34 31 29 26 23 19 16 15 15 15 13 13 11 12 12 12 12 12 13 13 13 16 17 15 17
41 39 36 33 31 27 23 24 27 27 30 30 32 36 37 38 39 41 42 42 41 40 39 34 31 29 27 24 21 18 16 16 15 13 12 10 11 10 11 11 11 12 13 12 13 13 13 13 15
41 37 36 29 31 31 25 23 28 29 29 31 31 36 38 39 40 41 42 41 40 39 36 33 30 28 25 21 19 19 18 16 13 11 11 11 10 11 11 12 13 13 14 14 13 12 13 13 15

GFSSGP_sfc_dewp_027.txt.gz
Dewpoint
64 56 52 42 32 33 31 30 27 36 36 35 35 34 34 35 36 40 52 62 67 70 72 72 73 73 72 71 69 68 67 65 63 61 60 60 61 61 62 61 61 59 59 60 60 62 62 64 64
63 56 44 40 29 24 25 29 31 32 35 35 36 35 35 36 47 52 53 56 67 69 71 72 73 73 72 71 69 68 67 65 63 61 60 59 62 62 61 61 61 60 60 59 59 59 60 60 61
58 54 40 37 35 28 23 29 31 33 32 36 36 36 37 43 49 51 54 55 68 69 70 71 73 73 73 71 70 69 67 65 63 61 61 61 63 64 59 62 61 60 59 59 58 58 58 60 60
48 44 39 32 30 31 29 22 32 31 32 35 36 35 45 47 49 53 54 55 57 65 67 72 74 73 73 72 70 69 67 65 63 62 61 61 63 65 63 63 61 61 60 59 59 58 59 58 57
46 42 35 34 32 32 31 20 29 29 33 34 35 37 43 49 52 53 53 54 64 69 70 72 73 73 73 72 70 69 68 66 63 62 62 64 64 66 65 64 62 61 60 60 59 59 58 60 61
44 40 34 32 32 33 31 28 24 27 27 32 34 34 44 51 52 53 53 54 67 69 70 71 72 73 73 72 70 69 67 66 64 62 64 65 65 67 65 64 62 62 61 61 61 60 61 63 64
44 40 36 34 33 33 33 25 23 26 32 33 34 34 42 48 52 54 53 55 59 66 69 70 71 71 72 72 71 70 68 67 66 63 63 65 65 64 63 65 64 63 63 62 63 63 62 62 63
46 41 38 36 34 34 35 30 26 28 31 36 35 34 39 45 52 55 54 54 57 62 65 69 69 70 69 70 70 70 69 68 67 66 65 65 64 64 65 66 66 64 63 63 61 62 62 62 63
51 42 39 38 35 34 35 31 34 35 35 37 36 34 39 47 52 53 53 54 56 58 61 64 66 67 67 70 69 69 69 68 67 66 65 64 62 61 62 64 64 66 64 62 62 63 63 65 65
48 43 42 40 38 35 35 33 36 38 38 37 37 38 38 45 49 51 52 52 53 56 57 59 62 63 64 67 68 67 67 66 65 64 62 62 61 59 59 61 63 64 64 64 63 64 65 65 62
48 45 43 42 40 39 37 37 38 37 38 39 38 38 41 40 39 38 37 51 53 54 57 58 59 61 63 64 66 66 65 64 64 63 62 62 61 58 58 59 59 59 61 60 61 60 62 61 61
46 47 46 44 44 42 38 38 37 37 37 40 39 40 40 40 40 39 39 35 44 53 55 58 59 59 60 64 64 64 63 63 63 62 60 59 56 55 55 55 57 58 59 58 59 58 57 58 59
44 43 45 44 43 41 40 38 37 38 39 39 39 39 40 40 40 40 37 40 47 52 54 56 57 58 59 61 62 61 61 61 60 59 58 58 57 57 57 57 57 57 58 57 57 58 58 58 58
40 42 43 45 44 41 38 38 39 39 39 38 38 39 39 38 38 38 39 41 45 50 51 55 55 56 59 59 61 60 60 60 60 61 60 59 60 59 59 59 60 60 60 59 59 58 58 58 57
42 39 38 38 44 43 42 37 37 39 39 38 38 38 38 33 37 39 43 43 44 44 45 46 48 51 55 58 59 60 61 61 61 60 60 60 60 60 60 60 58 58 58 54 51 46 48 48 47
40 41 37 38 41 43 40 37 38 39 38 38 38 37 34 37 38 41 42 43 44 44 46 49 48 45 48 56 60 60 60 60 59 58 55 51 51 58 55 45 44 46 46 45 43 44 44 43 43
39 35 37 38 41 42 41 38 38 39 38 37 36 35 32 38 40 41 42 43 44 45 50 51 50 47 52 59 57 54 52 48 46 45 44 42 42 44 43 43 42 43 43 43 41 42 42 41 41
31 34 36 38 38 40 40 40 38 38 38 37 36 33 33 38 40 41 43 46 49 52 53 54 55 57 58 53 49 46 44 44 42 41 40 40 40 40 41 40 38 40 41 39 37 37 36 37 37
34 34 35 37 38 38 38 38 39 38 37 36 35 32 34 38 41 43 46 49 53 54 55 56 57 57 57 51 48 45 44 42 41 38 36 35 36 35 35 37 35 35 36 33 31 34 33 34 34
35 35 35 36 39 38 38 38 38 37 36 36 36 35 37 39 41 43 44 47 51 53 53 54 53 52 52 51 49 47 44 43 42 40 34 31 30 31 29 31 32 30 32 29 28 29 31 33 32
34 34 34 33 37 39 38 37 37 37 36 35 36 35 38 39 40 41 42 45 47 48 49 49 49 48 47 46 45 44 45 43 41 39 36 30 27 27 28 27 27 28 30 28 26 27 28 29 32
31 32 31 32 35 34 38 35 34 35 33 33 32 34 37 39 40 41 43 44 45 46 47 47 48 47 47 46 46 44 41 40 40 39 36 31 26 24 25 25 25 25 28 24 26 25 27 29 29
31 33 33 33 35 37 36 36 34 32 32 33 33 35 37 39 40 42 44 45 46 45 43 42 42 43 43 42 42 41 39 39 37 33 30 28 25 23 23 22 23 23 25 23 23 24 24 26 29
34 33 34 35 35 32 35 37 33 32 32 32 33 36 37 39 42 44 46 46 45 43 42 41 40 39 39 39 38 37 35 31 28 26 26 26 25 25 21 20 19 19 21 21 21 23 22 25 28
34 32 26 26 28 27 35 35 35 31 28 32 31 36 37 40 43 45 45 44 44 42 40 39 37 36 34 33 32 30 26 24 23 23 21 20 20 20 18 17 16 17 18 19 19 22 23 25 24
33 31 25 20 22 25 36 34 30 36 29 31 35 36 38 42 44 45 45 44 43 41 39 36 34 32 30 28 27 26 24 24 22 20 19 18 17 17 15 14 14 14 15 15 17 21 23 20 21
31 30 31 32 33 30 32 29 26 29 31 35 35 37 39 42 43 44 45 44 43 40 37 35 32 30 28 25 22 19 19 18 17 16 16 16 14 12 12 12 12 13 14 14 16 19 16 17 17
35 34 30 32 26 28 27 24 24 28 29 34 35 36 39 41 42 44 44 44 42 39 36 33 30 28 26 22 18 16 15 15 14 13 11 11 11 11 11 12 12 13 14 14 14 16 17 16 17
35 35 33 34 29 29 25 25 27 29 29 34 35 36 39 41 41 43 44 42 41 38 35 31 28 26 24 20 17 16 16 14 13 11 11 10 11 11 11 12 13 13 14 14 14 14 14 14 16
38 35 35 29 32 33 25 23 28 29 30 33 35 37 39 40 41 43 43 41 39 37 32 29 28 25 22 20 18 18 16 13 11 11 11 12 11 12 12 14 14 15 16 16 15 14 14 15 17

GFSSGP_sfc_dewp_030.txt.gz
Dewpoint
66 59 53 42 32 32 29 31 28 32 34 35 35 34 34 37 36 36 55 64 69 71 72 72 73 73 71 70 69 68 66 65 63 61 60 61 62 61 61 60 60 58 60 59 60 62 62 63 63
66 58 44 39 31 24 24 28 33 31 33 34 36 34 35 42 49 51 55 67 69 71 71 71 73 73 71 70 69 68 67 65 63 61 60 61 60 62 62 61 60 60 59 59 59 59 61 60 61
56 54 40 36 33 28 24 26 32 32 33 35 36 37 41 44 51 52 56 67 69 70 71 71 73 73 73 71 69 68 67 65 64 62 61 62 64 64 61 62 61 60 59 59 58 58 59 60 60
50 44 39 33 30 32 31 31 29 30 32 35 36 39 45 48 49 53 57 67 69 69 71 72 73 73 73 72 69 68 67 65 64 61 63 62 64 64 61 63 62 62 60 59 58 58 58 58 58
46 41 36 33 33 32 32 31 27 28 32 33 34 36 44 50 53 54 55 65 67 68 70 72 74 73 73 72 70 69 67 66 63 62 63 63 64 65 64 64 62 62 61 60 59 59 58 60 61
45 40 34 32 31 32 33 33 25 25 30 32 33 39 44 50 52 53 54 60 66 67 69 71 72 73 73 72 70 69 68 66 63 63 65 65 65 66 65 64 63 62 61 61 61 60 61 62 64
46 40 36 34 33 34 34 35 24 26 31 34 35 38 44 47 52 54 53 64 68 69 70 71 72 72 72 71 71 70 68 67 65 64 65 65 65 67 66 65 64 63 63 63 63 63 63 62 62
46 42 38 37 35 35 36 32 25 28 29 37 35 39 42 44 51 54 54 61 65 68 69 70 70 71 71 70 70 70 69 68 67 66 66 66 64 65 66 67 66 64 64 64 63 61 62 62 63
51 43 39 38 36 36 36 34 34 33 34 37 37 35 37 44 53 53 53 55 61 65 67 69 69 69 69 69 69 69 69 68 67 66 65 64 62 61 62 64 64 65 65 64 62 63 63 65 65
49 44 43 41 40 37 38 36 35 38 38 38 37 39 43 49 51 53 53 53 55 59 63 67 68 68 68 69 68 68 67 66 65 64 63 63 61 60 59 61 64 65 66 65 64 64 66 65 62
49 46 44 43 42 41 40 38 37 36 36 38 38 39 41 41 46 51 52 53 53 56 59 62 64 65 65 67 67 67 66 65 65 63 63 62 61 60 60 60 61 61 61 60 60 60 60 60 60
43 47 47 47 46 45 43 39 37 36 36 38 39 40 40 40 40 41 40 41 49 53 57 59 61 62 63 65 67 66 65 64 63 63 62 61 60 56 56 57 57 58 58 58 58 58 58 57 58
41 43 44 46 47 46 45 42 39 38 38 39 39 39 39 39 40 40 41 37 39 52 55 58 59 60 61 64 65 64 64 63 63 62 61 59 57 56 57 57 57 57 58 58 58 58 58 56 54
40 40 41 43 44 45 43 42 40 39 39 39 39 39 39 39 39 38 38 40 44 49 54 56 58 59 61 63 63 62 62 62 61 60 59 59 59 59 59 59 59 59 58 57 50 47 47 46 46
41 40 40 39 39 40 45 43 42 39 39 38 38 38 39 39 38 37 39 42 45 46 50 55 56 57 59 61 61 60 61 60 60 60 60 60 60 60 55 47 46 47 45 44 43 43 43 41 41
40 38 35 37 38 40 43 40 42 40 38 38 38 38 38 38 37 40 43 44 44 44 46 47 47 52 56 59 60 60 60 58 53 47 46 47 46 46 44 43 43 44 42 41 41 40 38 39 39
37 33 34 38 38 40 42 39 42 41 38 38 38 38 37 36 38 41 42 42 44 45 49 50 48 46 58 57 55 51 47 46 44 43 42 41 42 42 41 40 40 40 39 37 37 36 36 36 34
31 31 34 35 38 38 38 39 41 40 38 38 38 38 37 35 39 41 43 46 48 50 52 51 49 57 51 48 46 44 42 41 40 39 39 38 37 37 38 35 34 37 34 32 32 32 31 34 32
34 32 33 35 37 38 37 37 37 40 40 38 37 37 35 36 40 42 47 51 54 54 55 56 57 55 49 47 44 43 41 38 36 34 33 33 32 32 32 34 31 33 30 28 28 29 31 31 33
37 35 33 33 34 35 37 38 38 38 38 39 38 37 34 39 41 44 48 51 54 54 55 55 55 53 50 47 45 42 41 39 35 32 29 28 28 28 27 29 29 28 28 25 26 27 28 29 32
33 34 33 32 33 33 30 33 36 38 40 38 38 38 36 39 41 44 47 50 51 51 51 50 50 48 46 44 42 41 39 39 36 34 30 26 25 26 26 26 26 27 27 26 25 26 27 27 30
31 34 34 31 30 28 36 30 34 36 37 38 37 36 37 39 42 43 46 47 48 48 48 48 47 46 45 44 41 39 38 37 38 36 30 26 23 23 23 24 24 24 26 22 24 25 24 26 27
31 32 31 31 29 30 29 31 33 37 35 37 37 35 36 39 41 43 46 46 46 46 45 45 45 45 45 44 41 40 38 38 36 32 27 23 22 22 21 21 21 21 24 21 20 22 21 24 28
35 33 33 33 32 29 27 29 28 34 34 35 36 34 37 39 41 44 45 45 43 42 42 42 42 42 41 40 38 37 34 30 28 27 26 24 23 22 19 18 18 18 19 20 20 20 20 22 23
31 31 26 24 24 21 25 29 28 35 37 34 33 34 38 40 43 44 44 42 41 40 39 38 38 36 36 34 32 29 27 24 22 22 21 19 18 19 16 16 14 16 17 17 18 20 21 22 21
32 30 26 16 16 17 33 29 30 35 34 34 33 35 38 42 43 44 43 41 40 38 37 35 33 31 30 28 25 23 22 24 22 19 19 17 16 16 14 13 13 13 15 15 16 20 21 19 19
31 30 29 28 28 28 29 32 34 36 32 34 35 37 40 42 44 43 42 41 39 37 35 32 30 28 26 24 22 20 19 19 17 15 15 15 13 11 12 12 12 13 14 15 16 19 16 16 17
30 31 27 30 15 20 29 28 20 28 31 35 36 38 41 43 44 43 42 41 38 35 33 30 28 25 22 19 17 17 16 15 13 12 10 10 11 11 12 12 13 14 15 15 15 16 17 15 17
33 30 29 26 27 25 27 29 28 28 32 34 36 39 42 43 44 43 42 40 37 34 31 28 26 22 19 17 16 16 15 13 12 11 10 10 11 11 12 13 14 14 15 15 15 15 15 14 16
32 30 29 24 21 26 30 26 31 29 34 35 36 39 41 43 44 44 42 39 35 32 30 27 24 21 19 18 17 16 14 12 11 11 12 12 11 12 13 14 15 15 16 17 16 16 15 14 17

GFSSGP_sfc_dewp_033.txt.gz
Dewpoint
66 63 49 41 33 32 28 30 29 30 34 35 35 34 35 38 35 35 55 63 68 70 72 72 73 73 71 69 68 67 66 64 63 62 60 61 61 60 60 60 59 58 60 58 61 62 63 64 63
63 56 43 38 31 26 23 28 33 31 32 33 35 35 36 43 49 52 58 66 70 71 71 71 73 73 71 69 68 68 66 65 63 61 61 61 61 61 61 60 60 60 59 59 59 59 61 61 61
56 49 38 35 32 29 25 26 29 31 32 36 36 41 41 45 51 52 55 68 71 71 71 71 73 73 72 70 69 68 67 65 63 61 61 61 61 63 61 61 60 59 59 58 58 58 59 60 61
49 44 38 33 31 33 29 31 32 30 30 35 36 40 45 48 49 52 65 68 69 70 70 72 73 73 73 72 69 68 67 66 63 62 61 62 64 65 63 63 62 62 60 59 58 58 58 57 58
45 41 35 34 33 32 32 32 31 29 29 30 34 36 44 48 53 56 66 68 68 69 70 71 73 73 73 71 69 68 67 66 64 61 63 63 64 66 62 64 63 62 61 60 59 59 59 59 61
45 40 35 31 31 33 33 33 32 26 27 33 33 41 43 49 53 54 64 66 68 69 70 71 72 73 73 71 70 69 68 66 64 62 63 64 65 66 65 64 63 63 62 61 61 61 60 61 63
45 38 36 33 32 33 34 35 31 27 29 33 34 39 42 46 52 54 57 64 66 68 70 70 72 72 72 71 71 70 69 68 65 64 66 66 66 68 66 65 64 63 63 63 63 63 63 63 62
47 42 37 37 34 34 36 35 27 27 28 36 36 39 41 43 51 53 57 65 66 68 69 70 71 71 71 70 70 70 69 69 67 66 67 66 65 66 67 67 66 64 63 64 63 62 61 62 63
48 42 39 37 36 36 37 36 36 35 33 36 36 38 38 46 54 53 56 61 64 67 68 69 70 70 70 69 69 70 69 68 67 66 65 65 62 61 62 64 65 66 64 64 64 63 63 65 65
49 44 41 41 39 37 38 36 37 36 37 37 37 39 47 51 53 52 53 57 61 64 65 69 69 69 69 69 68 67 67 66 65 64 62 62 61 60 60 61 64 65 65 66 64 64 66 65 62
47 45 44 44 43 42 40 39 40 37 36 37 37 39 40 48 51 53 53 53 57 61 63 66 67 68 68 68 67 67 66 65 64 63 62 61 61 60 59 59 59 60 61 60 59 59 58 58 59
41 44 47 47 47 46 44 42 39 37 36 38 39 40 40 39 46 48 51 52 53 54 59 63 65 66 66 66 67 67 66 64 63 63 62 61 60 59 57 57 57 58 58 58 58 58 58 57 57
40 42 44 45 46 46 47 45 43 42 41 40 39 40 39 39 40 40 41 42 42 48 55 59 62 63 64 65 66 65 65 64 64 63 63 61 60 56 56 56 58 58 58 58 57 53 49 46 45
40 40 40 40 42 43 43 43 44 42 41 40 39 39 39 39 39 39 39 39 39 39 50 57 60 62 62 64 64 64 64 63 63 62 61 59 58 59 59 56 54 48 48 46 45 44 43 41 40
42 39 40 39 39 38 41 39 40 44 43 39 39 39 39 39 40 39 38 38 40 45 50 57 58 60 61 63 64 63 63 62 61 60 60 60 60 51 47 46 46 44 43 42 40 39 38 36 35
39 37 34 36 38 39 39 34 41 43 44 41 39 38 38 39 39 39 38 41 44 45 48 55 58 59 60 61 61 61 60 57 50 49 48 47 45 44 43 43 42 40 38 37 36 34 33 33 32
35 31 32 35 38 38 40 36 38 43 41 39 38 38 38 39 38 38 41 43 44 45 48 48 51 56 58 59 55 51 48 46 44 43 43 41 40 39 38 39 38 35 33 32 33 32 32 31 30
28 31 33 33 37 37 36 36 39 40 41 40 40 39 38 38 37 38 41 42 44 46 49 49 53 55 53 49 45 43 42 41 41 39 38 36 35 34 34 33 33 32 29 29 28 29 28 32 30
35 32 31 33 35 35 35 37 38 39 39 40 40 39 38 38 37 40 42 47 50 52 52 51 54 49 49 47 44 42 40 37 35 33 31 30 30 31 30 31 30 29 26 25 25 27 27 29 31
35 34 32 33 34 32 32 32 34 32 33 39 39 40 40 37 39 41 45 51 53 53 54 55 52 49 49 46 43 41 38 34 31 30 27 27 26 27 26 28 27 25 25 24 24 25 26 27 30
32 31 30 31 33 33 32 28 25 28 35 38 40 39 39 38 38 41 47 51 52 53 54 54 51 48 45 42 39 36 33 32 29 27 26 25 24 25 25 25 25 25 25 24 24 24 24 24 27
30 32 32 32 32 26 32 23 26 29 32 36 38 39 39 37 38 41 48 50 51 52 51 50 48 45 42 41 38 36 34 32 35 30 25 23 22 22 23 23 22 23 24 21 22 22 22 25 25
30 32 33 34 31 29 28 25 25 30 29 33 38 39 39 38 40 43 48 50 50 49 48 47 46 44 43 41 39 38 37 35 32 26 22 20 21 20 20 20 20 20 22 20 20 19 19 23 25
34 33 34 36 31 25 25 27 21 22 29 35 37 38 38 37 40 44 47 47 45 45 45 45 45 43 42 40 39 37 34 30 27 26 24 22 21 21 19 17 17 17 19 18 19 19 18 20 21
31 33 25 24 25 21 24 25 24 24 32 35 36 36 37 38 42 45 46 45 43 43 43 43 43 40 38 36 35 32 29 27 24 23 22 19 17 18 15 14 14 16 16 17 18 19 20 20 19
31 31 26 19 19 19 25 23 23 27 27 25 27 35 36 39 43 45 45 44 42 41 41 40 38 35 32 30 27 25 24 24 22 20 19 17 16 16 13 13 13 14 15 15 16 19 20 19 18
32 30 30 27 29 26 25 25 25 28 30 34 34 34 37 40 43 45 43 41 40 38 37 36 33 30 27 24 22 21 21 19 17 15 15 15 14 12 12 13 13 14 15 15 16 19 16 16 16
31 31 27 29 19 18 21 24 20 21 20 17 32 35 38 41 43 43 41 39 37 35 32 31 29 26 23 20 19 17 15 14 13 12 11 11 11 12 12 13 14 15 15 16 16 17 18 16 17
32 31 29 25 25 20 18 21 31 25 22 23 35 38 41 43 43 41 40 38 35 32 30 26 23 21 19 18 16 15 14 12 11 11 11 11 12 12 13 14 14 15 16 16 16 16 16 15 16
32 31 30 23 20 23 27 22 30 31 30 35 39 40 43 43 42 41 38 35 33 30 27 24 20 18 17 17 16 15 13 12 11 11 12 12 12 13 14 15 15 16 17 17 16 16 16 16 16

GFSSGP_sfc_dewp_036.txt.gz
Dewpoint
65 59 45 39 32 30 27 26 35 29 34 35 35 34 35 37 36 36 54 63 66 68 72 72 73 72 71 70 69 67 65 64 63 62 62 62 62 61 58 58 59 59 59 59 62 63 65 66 64
61 54 41 38 30 27 26 28 31 31 32 32 35 36 36 41 49 52 58 63 68 70 72 71 73 73 71 69 68 67 66 64 62 61 60 60 60 60 59 59 59 60 59 58 59 60 62 62 62
55 45 36 34 32 28 27 24 30 32 32 34 36 40 40 44 51 52 56 67 70 70 71 71 74 73 72 69 69 67 66 65 62 61 62 62 61 62 61 60 60 59 59 58 58 58 59 60 61
49 43 38 33 31 33 29 29 32 31 31 34 37 40 45 47 49 52 65 70 70 70 70 72 73 73 72 71 69 68 67 65 63 61 62 62 63 64 62 62 62 61 59 58 58 58 57 57 58
45 41 34 33 32 32 32 33 32 31 29 29 33 36 43 49 54 62 67 69 69 69 69 71 74 73 72 70 69 68 67 66 64 62 61 62 63 66 64 64 63 62 61 60 59 58 59 59 61
45 40 34 31 32 33 33 34 33 28 27 29 34 41 43 48 53 61 67 67 68 69 70 71 72 73 73 72 70 69 68 66 64 62 63 64 64 66 65 65 63 63 61 60 60 60 60 61 62
44 39 35 32 31 32 32 34 32 32 27 29 34 40 43 45 53 58 65 66 67 68 69 70 71 72 72 71 71 70 69 67 65 63 64 66 67 66 66 65 64 63 62 62 63 62 62 62 62
46 41 36 36 33 33 35 36 33 26 26 34 37 38 43 43 52 54 59 65 65 67 69 69 70 71 70 70 71 70 70 69 67 66 67 66 65 67 67 67 66 64 63 63 64 63 62 62 63
47 41 38 37 36 35 37 35 36 36 31 35 36 39 38 47 53 56 59 63 65 66 67 68 70 70 69 69 69 70 69 68 67 66 66 65 62 61 61 64 66 66 64 64 64 64 64 66 65
48 43 40 41 38 37 38 38 38 37 37 37 37 39 47 53 53 52 56 60 62 64 66 69 69 69 69 69 68 67 67 66 65 63 61 62 60 60 60 61 62 64 65 65 64 64 64 62 60
46 44 44 44 45 44 41 40 41 38 38 38 37 38 42 52 54 52 52 57 60 61 65 68 67 68 69 69 67 66 66 65 64 63 61 61 61 59 59 59 59 59 60 59 59 58 58 57 58
40 44 47 47 47 47 45 44 44 40 39 38 40 39 39 39 48 52 52 53 53 57 62 65 67 68 68 67 67 66 66 64 63 63 62 60 60 59 57 57 56 57 58 57 57 57 56 49 44
39 42 43 43 42 45 46 45 45 45 43 44 44 41 40 39 39 42 46 45 48 52 55 62 66 67 67 67 67 66 66 65 64 63 62 62 60 58 55 56 58 58 57 55 48 46 44 41 39
40 41 40 40 39 40 41 41 43 44 45 43 41 41 41 40 40 39 39 40 40 40 43 57 63 65 65 66 66 66 65 64 64 63 63 62 59 58 59 54 47 45 45 44 43 40 38 35 33
42 39 40 39 39 38 40 38 39 40 44 44 44 42 40 40 40 39 40 39 39 39 41 52 60 63 64 64 65 64 64 64 63 62 60 59 60 52 48 46 44 42 41 38 34 33 33 29 29
39 38 33 35 38 38 38 33 37 38 39 42 43 42 41 41 40 40 40 39 40 41 46 52 58 61 62 63 63 63 62 60 55 55 56 52 46 45 44 42 39 34 33 33 32 30 31 28 28
35 29 32 34 37 37 38 35 39 40 40 41 42 41 40 40 40 40 40 39 42 44 47 51 57 59 61 61 60 55 51 49 46 45 44 41 40 40 39 36 33 30 29 29 29 29 31 28 26
27 29 30 32 35 35 35 35 37 37 38 38 40 41 40 40 39 40 39 41 43 45 48 48 55 58 58 51 47 45 44 43 41 40 38 36 34 33 33 30 28 28 27 26 25 25 27 30 29
33 31 31 33 34 34 33 33 34 35 38 39 39 40 40 40 40 39 39 42 44 47 49 52 54 52 51 48 46 44 41 37 35 33 31 31 30 29 29 29 26 26 24 24 23 25 23 27 30
34 32 30 30 34 33 31 31 32 32 34 35 36 39 40 40 39 39 41 47 49 50 51 53 51 50 50 49 44 41 45 35 31 30 27 27 26 27 25 26 25 23 24 23 22 22 22 25 29
32 31 29 27 30 32 32 27 21 24 27 31 31 33 38 40 40 39 42 48 51 52 53 53 50 48 45 41 37 33 33 29 27 26 26 25 24 25 24 24 24 23 24 24 23 22 23 23 25
29 31 32 30 29 24 30 21 21 24 24 24 27 34 39 40 40 39 42 49 51 52 53 51 48 45 42 41 38 36 34 29 29 26 24 22 22 23 23 22 22 22 23 21 22 20 21 23 23
29 32 32 32 31 29 28 25 21 25 22 25 34 36 38 40 39 39 43 47 51 51 51 48 45 43 41 39 38 36 34 30 26 23 20 19 20 20 20 20 20 20 22 19 18 18 19 22 22
34 32 33 34 33 26 24 25 21 18 19 24 31 34 38 40 39 40 44 50 49 49 48 46 44 42 41 39 38 35 28 24 22 22 20 21 21 21 18 17 17 18 19 18 19 18 17 19 19
32 32 23 21 23 19 24 24 23 22 23 26 28 34 37 39 39 44 47 49 47 47 46 45 43 41 40 38 35 31 26 24 22 21 20 18 17 18 14 14 15 17 17 17 18 19 19 19 18
30 29 21 12 17 19 24 22 20 26 26 25 25 29 35 37 41 44 47 48 47 47 46 44 42 38 36 34 30 28 26 26 23 21 19 17 16 16 13 14 14 15 15 16 17 20 20 18 17
32 29 29 26 23 22 24 26 26 24 22 25 32 29 28 37 42 45 47 47 46 45 43 41 38 33 31 28 26 23 22 21 18 15 16 16 15 13 13 14 14 15 15 16 17 19 16 16 16
33 32 28 28 19 16 20 21 20 22 22 20 19 24 34 39 43 45 46 43 43 41 38 36 33 29 25 23 21 18 16 15 14 13 12 12 12 13 14 14 15 15 16 16 16 17 17 15 17
33 31 33 28 27 16 14 14 24 27 31 33 31 20 35 40 43 44 42 39 36 35 33 29 26 23 20 18 16 14 13 11 11 11 12 12 13 13 14 15 15 15 16 16 15 15 15 16 17
30 31 30 26 21 23 21 16 28 33 34 36 36 37 40 43 42 40 37 35 34 30 28 25 22 20 18 16 14 13 12 12 11 12 12 13 13 14 14 15 15 15 16 16 14 14 15 17 18

GFSSGP_sfc_dewp_039.txt.gz
Dewpoint
63 58 45 44 37 33 28 26 31 31 33 35 34 35 35 37 38 39 58 64 65 66 70 71 73 73 71 70 69 67 66 65 63 62 63 64 65 62 58 59 59 60 60 60 63 65 67 66 65
59 52 45 41 32 29 28 28 32 32 33 34 35 38 36 40 49 52 57 62 66 68 71 70 73 73 71 69 68 67 65 64 63 61 61 60 59 60 60 60 60 60 59 59 60 61 63 63 63
52 43 41 36 33 28 28 27 32 33 34 33 36 40 39 43 51 52 58 64 68 70 71 71 73 73 71 70 68 67 66 64 62 61 61 61 61 61 60 60 60 60 59 58 59 59 60 61 61
50 45 39 34 31 33 30 30 31 33 33 33 36 39 45 48 51 53 63 68 69 70 71 72 73 73 72 71 69 67 66 65 63 62 62 62 62 62 63 62 62 61 60 59 58 58 58 58 59
46 42 35 34 32 32 33 34 33 33 32 29 33 35 42 49 55 62 66 69 68 69 71 71 74 73 72 70 69 68 67 66 63 62 62 62 63 65 64 64 63 62 60 60 59 58 59 59 61
45 41 34 32 32 34 34 34 34 31 30 28 34 39 42 50 55 65 68 69 69 70 70 71 72 73 72 71 70 69 68 67 64 62 62 63 64 65 65 65 64 63 61 60 60 61 62 62 62
45 40 36 33 32 32 33 34 33 32 32 30 36 37 41 46 54 65 67 68 69 70 70 70 70 71 72 71 71 70 69 68 66 63 64 65 66 66 67 66 64 63 62 62 63 63 62 62 62
45 41 37 36 33 33 35 36 36 32 27 33 37 36 38 44 54 63 65 66 67 69 70 70 71 70 70 69 70 70 70 69 67 66 66 66 64 66 68 66 66 64 63 63 64 64 63 63 63
46 43 39 37 35 35 37 35 37 37 34 37 36 38 40 51 55 59 62 64 65 67 69 70 70 71 71 70 69 70 69 68 67 65 66 64 63 62 62 64 66 65 64 64 64 64 65 66 64
48 44 41 41 39 38 38 38 38 38 38 38 38 39 47 52 53 55 56 59 64 65 67 69 69 70 70 70 69 69 68 67 65 62 64 63 63 61 60 61 61 62 64 63 63 62 61 60 59
48 43 44 44 44 46 44 43 41 39 41 40 39 40 41 50 53 53 54 56 59 63 66 68 68 68 69 69 69 69 68 67 65 63 62 62 61 61 60 60 60 60 61 60 59 59 59 58 53
42 44 47 46 46 46 45 46 46 43 42 41 40 41 41 41 41 52 53 53 57 60 63 66 67 67 68 68 68 68 67 66 65 64 63 62 61 61 60 58 58 59 59 59 60 55 46 44 40
41 42 43 43 41 41 45 45 45 46 47 45 46 46 45 44 42 41 46 52 53 54 57 64 67 67 67 67 67 68 67 66 65 64 63 62 61 60 57 58 59 58 56 50 47 44 40 35 31
40 41 41 41 40 40 40 40 44 43 46 46 46 46 45 43 43 43 42 41 42 43 46 56 64 67 67 66 67 67 67 66 65 64 63 62 62 58 60 50 48 46 45 42 40 36 34 29 26
42 40 40 40 40 39 39 37 38 40 42 43 44 44 45 45 44 42 43 42 42 42 42 46 57 65 67 67 67 67 66 66 65 64 63 63 60 59 51 47 44 42 39 33 31 32 30 27 24
38 36 34 36 38 39 38 30 36 37 39 39 40 41 43 43 43 43 42 42 43 43 43 45 53 63 65 66 66 66 65 65 64 63 61 59 53 49 46 42 36 33 32 32 29 30 30 26 25
33 29 33 34 37 37 38 35 38 41 39 39 40 41 42 43 44 44 43 42 42 41 43 47 55 61 63 65 65 64 63 60 57 53 49 47 45 44 40 36 31 28 28 29 27 28 30 26 24
28 31 32 32 33 35 33 33 35 35 36 36 37 39 40 41 42 42 42 42 41 44 46 49 55 61 62 62 57 53 51 52 51 48 42 40 38 36 33 31 28 27 27 25 27 24 27 25 26
33 33 31 31 33 32 32 32 32 34 34 35 35 35 37 40 41 42 42 42 43 45 49 50 57 60 57 54 53 50 48 50 44 39 34 34 34 30 29 27 26 26 24 22 20 25 24 25 27
32 31 29 30 31 32 31 30 30 31 31 31 31 33 35 37 40 42 41 42 44 45 49 53 57 56 55 54 51 48 49 47 46 35 32 32 30 27 25 26 25 24 24 22 22 23 23 23 28
32 31 29 28 29 30 29 25 21 22 26 28 30 32 33 35 36 40 41 42 48 49 50 53 53 53 51 45 44 41 42 39 36 30 31 32 26 25 25 25 24 25 25 23 23 24 26 22 26
28 31 31 31 30 24 29 20 21 21 21 21 23 27 31 32 34 38 41 42 48 50 53 53 51 49 46 44 44 43 45 40 35 31 29 25 23 23 23 23 23 23 24 22 22 21 22 24 20
29 31 31 31 30 30 27 26 22 24 23 24 25 27 28 32 33 38 41 43 47 52 54 52 49 46 44 44 45 45 41 37 28 23 21 20 21 22 22 22 23 22 22 21 21 20 21 20 21
33 32 32 33 33 25 24 26 21 20 20 21 22 24 33 34 36 39 42 44 49 53 52 49 47 44 43 42 40 38 32 27 22 21 20 21 19 20 20 20 21 21 21 21 20 20 21 19 21
32 33 24 21 22 18 23 25 23 22 23 23 23 25 29 34 39 41 44 48 50 52 50 47 45 42 41 39 37 33 28 23 21 20 20 18 16 17 18 18 18 19 21 21 21 23 24 23 21
31 30 23 13 15 18 24 22 21 24 26 26 26 26 27 35 39 40 44 48 50 51 48 46 44 41 39 37 32 27 27 25 23 21 19 17 16 16 17 17 17 18 18 18 20 22 22 23 21
30 29 30 24 23 21 19 21 21 22 23 26 25 26 31 30 36 42 46 48 50 50 48 45 42 39 37 33 28 26 24 23 21 19 17 16 16 15 16 18 17 18 18 18 20 20 18 18 19
32 32 27 28 19 17 19 19 18 21 20 25 33 35 33 30 36 43 46 48 49 48 45 42 39 35 32 28 25 23 20 18 17 15 15 15 14 15 16 17 17 17 17 17 17 17 18 17 19
31 30 32 31 29 20 15 14 19 19 25 33 35 38 38 30 39 44 46 46 45 42 40 36 32 29 26 23 20 18 15 14 13 13 13 14 14 15 16 16 16 16 16 15 14 14 16 17 19
30 29 29 26 25 27 24 19 23 30 35 36 37 41 42 41 43 44 41 39 39 36 34 32 28 24 21 19 17 15 14 13 12 12 13 14 14 15 15 15 15 14 15 14 13 14 17 19 20

GFSSGP_sfc_dewp_042.txt.gz
Dewpoint
59 54 47 43 34 32 28 23 29 31 31 35 34 35 36 37 39 38 57 62 63 65 66 70 73 73 71 70 69 68 67 66 64 66 65 68 66 63 59 60 60 60 59 62 64 66 68 67 66
56 47 45 39 30 27 25 26 25 32 33 34 34 35 37 37 45 52 55 62 63 65 67 67 73 73 71 70 68 67 66 65 63 63 63 63 61 61 61 60 61 60 59 60 61 63 64 64 64
53 43 39 34 30 26 26 28 27 33 33 32 36 39 38 40 49 51 57 62 63 65 66 68 73 72 71 69 68 67 65 64 63 62 62 62 61 61 61 61 61 61 59 59 59 60 61 61 60
49 43 39 31 28 30 29 28 32 32 32 33 35 37 42 48 50 53 59 63 63 65 65 72 73 73 72 70 68 67 66 64 63 63 63 62 63 63 63 63 63 61 60 59 59 58 59 60 61
48 42 32 31 28 28 31 31 32 32 31 30 30 34 39 48 52 56 61 64 63 65 65 69 73 73 72 70 69 68 67 65 63 63 63 63 63 63 64 64 64 62 61 61 60 60 60 60 61
41 39 30 27 26 28 31 31 32 31 31 30 29 31 36 50 54 60 62 63 64 66 66 67 72 72 72 71 70 68 68 66 64 63 63 62 63 65 65 65 64 63 61 61 61 62 62 62 62
38 35 28 27 25 27 30 32 32 30 30 30 32 31 38 46 54 62 63 64 65 66 66 66 68 70 71 71 71 70 68 68 65 63 64 64 65 65 66 66 64 63 62 62 63 63 62 61 62
41 36 29 31 27 28 30 32 32 32 29 31 34 28 33 46 56 61 63 63 64 65 65 65 66 67 68 68 70 70 70 69 68 66 66 66 65 67 68 67 66 64 63 63 63 63 63 63 64
48 34 28 30 29 30 35 33 33 35 33 36 35 36 42 47 55 60 61 61 62 64 64 64 66 66 66 67 68 70 69 68 67 65 66 64 60 63 64 64 66 65 63 63 64 64 65 64 63
42 36 32 33 35 33 34 36 35 36 35 35 36 38 43 48 53 56 57 57 60 62 64 64 65 66 66 66 68 68 66 65 63 59 61 59 58 58 59 61 61 62 63 62 62 61 60 60 59
42 38 36 40 40 43 42 41 41 37 36 37 36 37 41 44 50 52 52 52 56 59 62 64 65 67 67 67 66 67 66 64 63 60 59 58 57 56 56 58 57 59 60 59 60 60 59 56 51
40 40 41 42 44 44 43 43 42 40 36 39 41 41 43 43 43 46 51 51 53 56 60 63 64 66 67 67 67 66 66 64 63 62 58 58 58 59 58 57 59 60 59 60 60 54 48 45 43
39 37 39 39 42 40 40 39 40 40 42 43 44 45 44 44 44 44 43 48 52 53 57 61 64 65 66 67 67 66 65 64 64 62 60 59 59 59 58 57 58 59 58 53 50 45 41 42 38
38 39 39 39 39 39 38 37 37 37 38 37 38 41 42 43 43 44 44 43 43 50 51 56 62 64 65 66 67 67 65 64 64 62 61 60 60 60 59 56 52 48 46 44 45 43 40 36 30
40 38 36 36 36 37 38 35 35 36 36 35 36 36 38 38 40 43 44 44 44 42 43 44 53 61 64 66 66 67 64 64 64 63 62 62 62 61 56 51 49 46 43 39 38 36 33 30 27
35 36 31 33 36 36 36 28 29 34 35 36 35 35 36 38 38 40 43 45 45 45 44 44 44 51 61 64 66 65 64 64 64 64 63 63 61 57 50 45 41 39 39 36 32 31 32 29 27
32 25 29 31 35 35 36 32 33 39 36 36 34 36 37 38 38 38 38 41 43 43 43 44 47 49 56 62 63 64 63 63 64 64 63 60 58 52 46 41 36 34 33 32 28 30 28 27 25
24 27 27 28 30 32 31 31 32 34 34 34 35 36 37 38 39 41 42 42 42 43 44 44 47 51 57 60 62 63 63 64 63 61 57 54 51 45 38 36 32 31 30 29 28 27 26 24 24
30 29 29 28 30 29 27 26 26 27 28 28 29 31 32 33 37 39 41 43 45 44 45 46 48 53 57 59 60 62 60 59 58 56 50 47 42 37 33 33 30 30 27 24 23 25 25 25 25
30 29 27 28 28 28 26 25 26 26 27 28 27 25 24 25 28 33 37 41 43 44 45 47 50 55 58 59 58 58 56 54 51 47 43 42 35 32 30 30 29 27 25 24 23 24 25 24 26
30 28 27 26 27 28 28 25 23 21 22 24 25 26 26 26 25 26 28 37 43 45 45 48 51 57 58 58 58 53 49 44 40 38 38 35 31 28 30 29 27 27 26 25 25 26 26 24 25
27 29 30 29 28 25 28 21 22 22 22 23 22 23 25 27 28 28 29 30 40 44 48 49 52 56 57 55 52 51 52 48 43 38 36 34 31 29 26 26 25 25 24 24 23 21 22 24 22
28 30 29 29 28 28 26 27 19 19 20 20 21 22 23 25 27 29 32 32 35 46 49 51 53 55 54 52 53 54 52 47 39 35 30 29 26 26 25 24 25 23 23 23 23 22 21 19 22
32 31 30 30 31 25 21 25 17 10 11 15 19 21 22 23 27 29 32 35 37 44 52 53 52 52 52 53 53 54 50 41 35 30 29 29 29 25 23 22 23 22 23 23 22 22 22 21 23
32 33 27 24 24 20 18 20 20 16 20 22 21 20 23 25 27 31 35 38 40 44 52 53 51 50 50 51 52 49 43 40 37 28 26 26 22 22 22 21 20 21 23 23 23 25 27 26 23
33 29 24 18 15 10 20 20 15 19 23 24 23 21 28 29 30 28 35 41 43 46 51 51 50 48 48 48 47 45 39 30 24 22 21 21 22 23 21 19 19 19 20 20 22 24 24 26 23
29 29 29 27 24 21 15 15 16 17 17 19 21 28 31 31 32 33 32 41 43 47 51 50 49 47 47 45 42 36 28 25 23 20 20 20 19 18 19 19 18 19 19 18 21 20 18 18 19
30 29 26 30 19 17 16 15 15 17 18 20 21 28 30 34 37 33 31 41 45 49 51 50 48 45 44 39 36 31 24 21 19 20 20 19 17 17 18 18 18 18 17 16 16 16 17 16 18
31 31 31 29 28 20 18 17 18 17 17 18 29 30 32 38 39 34 34 42 47 50 50 47 45 42 39 35 30 25 20 19 18 19 19 17 16 16 16 15 16 15 15 14 13 13 15 16 19
27 27 27 27 26 28 26 22 22 22 23 31 29 28 33 40 42 41 42 46 48 48 46 43 40 38 34 28 25 20 19 18 18 17 16 15 15 15 15 14 14 13 13 12 11 11 15 18 19

GFSSGP_sfc_dewp_045.txt.gz
Dewpoint
61 50 46 42 35 32 28 27 23 27 26 28 34 34 36 37 37 40 56 60 60 64 67 70 73 73 72 70 69 69 68 67 67 67 67 68 66 63 61 61 61 61 60 64 66 68 69 69 67
55 46 44 38 31 27 26 25 24 24 30 33 33 35 35 37 42 53 56 60 61 63 66 68 73 73 71 70 69 68 67 65 65 65 67 67 63 61 61 61 61 60 60 60 63 65 65 65 64
53 45 39 35 31 26 25 27 25 28 32 33 33 37 38 40 46 51 57 60 61 63 65 69 73 72 71 69 68 67 65 64 63 64 63 62 61 61 61 62 62 60 60 60 60 61 61 61 61
48 42 37 32 29 28 26 27 25 30 30 33 35 36 40 46 48 52 58 59 60 62 64 71 73 72 71 70 68 66 65 64 62 63 63 63 63 62 62 63 62 61 60 60 59 60 61 61 63
47 39 33 29 27 26 26 28 27 29 29 31 32 35 39 48 52 56 59 59 60 61 66 69 73 72 71 69 68 67 65 64 63 63 63 63 64 64 64 64 64 61 61 61 61 61 61 62 61
39 36 30 26 25 26 25 29 30 30 30 30 30 33 37 50 52 56 59 59 60 61 64 68 71 72 71 70 69 68 67 65 63 64 63 64 63 64 65 65 64 63 62 62 62 62 62 62 62
40 35 29 26 23 23 24 30 29 29 29 29 30 30 36 44 54 58 59 59 61 61 62 66 68 69 71 71 70 70 68 67 65 65 64 64 64 64 66 66 65 63 62 62 63 63 62 61 62
40 35 30 27 22 23 24 28 30 29 29 30 32 30 31 48 56 58 58 59 60 62 61 63 66 67 67 68 70 70 69 69 67 66 67 66 66 67 68 67 66 64 63 63 64 64 63 64 64
45 36 29 29 24 24 28 29 32 31 30 31 30 32 41 46 55 57 58 58 59 61 61 61 62 65 65 66 68 69 69 68 67 65 66 64 60 63 64 65 67 65 64 64 64 64 64 63 64
42 34 30 26 25 26 30 32 31 33 32 30 33 34 40 45 51 54 55 56 58 60 60 60 62 63 65 66 68 67 66 65 62 58 61 59 57 59 61 62 64 64 64 63 62 61 61 62 59
41 35 31 31 38 37 35 32 35 34 34 31 31 34 39 44 47 50 52 52 55 58 60 60 62 62 62 64 68 66 66 64 63 58 58 57 55 57 56 58 57 59 60 60 60 61 59 54 51
37 36 35 36 39 41 40 39 36 35 36 33 35 39 40 41 41 46 49 49 49 54 58 61 61 62 62 64 64 65 65 64 63 60 57 57 55 54 55 56 58 59 58 58 60 54 51 48 46
37 37 35 36 38 39 40 38 38 37 39 38 38 40 42 42 41 42 43 48 49 50 55 59 60 62 64 64 64 62 64 64 62 61 57 57 57 57 57 56 57 57 58 56 53 50 47 46 42
37 37 36 37 36 37 37 36 36 35 35 35 37 38 39 41 42 42 43 43 46 49 52 55 59 61 62 65 66 64 62 64 64 62 59 58 58 58 58 58 57 54 52 50 49 47 44 41 36
39 37 36 35 35 35 36 34 34 35 35 34 33 34 34 35 38 40 42 44 44 43 49 50 55 58 61 63 65 66 63 63 64 62 59 59 60 61 59 56 54 52 49 46 44 41 37 33 32
35 34 30 31 33 32 34 30 28 31 31 32 32 32 33 34 33 35 38 42 44 45 44 44 44 54 59 61 65 66 64 63 64 63 60 60 61 61 57 54 50 47 46 43 39 35 34 33 30
31 26 27 27 31 32 34 31 29 33 34 31 31 31 32 33 33 34 36 38 42 44 44 45 46 46 52 59 62 64 63 61 63 63 61 61 61 59 53 50 44 43 41 38 33 33 30 30 30
25 26 26 24 28 30 29 29 30 31 31 33 33 33 34 33 34 36 35 36 37 41 43 43 46 47 49 54 60 61 61 62 64 63 62 62 60 55 49 44 41 39 37 34 33 32 29 27 27
29 27 26 27 27 27 26 26 26 26 26 26 27 28 29 30 34 35 37 40 40 40 42 44 44 46 49 54 58 60 61 64 64 65 63 60 56 49 45 41 38 37 34 31 29 29 29 29 27
30 28 26 26 27 27 25 24 25 26 26 26 26 26 26 27 28 30 33 37 39 41 44 45 45 47 51 55 58 59 62 59 59 59 57 53 49 44 39 38 36 32 30 28 27 29 29 28 28
29 27 26 25 26 27 26 25 23 24 26 26 26 26 26 27 25 24 25 32 41 42 43 45 45 49 53 56 58 59 55 50 48 48 46 45 43 40 40 40 33 33 33 32 31 31 33 30 29
27 27 27 27 27 24 27 23 23 21 21 22 22 23 24 25 25 26 26 27 33 41 46 47 48 50 54 58 58 57 53 50 46 47 46 43 39 37 35 33 31 30 31 29 28 25 25 30 26
28 29 28 28 27 27 26 26 21 17 14 16 19 21 21 23 24 25 28 32 30 37 46 50 49 51 56 57 58 56 53 53 45 43 39 38 38 32 29 31 32 30 29 26 27 25 24 21 25
31 29 29 29 29 26 23 23 18 10 9 13 13 18 21 21 23 24 28 32 34 39 46 52 51 53 56 57 54 53 55 45 39 37 38 39 36 32 30 27 29 28 28 27 25 25 25 23 25
32 30 27 26 25 21 16 16 18 15 16 17 17 19 19 20 23 25 27 30 33 38 41 51 51 52 54 53 54 54 54 44 40 38 38 33 31 29 28 27 24 26 27 25 26 29 31 29 27
31 30 25 20 17 14 17 17 14 15 19 20 21 22 22 22 26 31 32 33 35 41 42 48 51 51 51 53 53 55 47 44 40 36 30 27 28 26 26 24 22 22 22 22 25 28 27 28 26
31 30 29 26 23 20 15 11 13 15 16 17 19 21 23 26 29 34 35 34 35 40 42 49 51 50 51 52 54 48 45 39 35 28 27 25 25 23 22 23 21 20 20 20 24 23 18 19 20
29 28 26 29 20 17 14 15 16 18 18 19 19 21 24 28 32 35 34 34 32 40 43 50 50 49 50 51 48 43 35 28 24 24 23 23 23 24 21 20 20 19 18 18 17 17 17 16 18
30 30 29 26 26 20 18 17 19 20 20 19 20 21 27 29 33 37 35 33 35 42 46 48 49 48 48 46 39 34 28 22 21 21 22 20 21 20 19 18 17 16 16 14 13 13 14 15 18
27 27 27 27 24 27 26 22 23 23 22 23 23 26 28 27 36 39 39 38 41 46 49 48 47 46 43 38 33 28 23 22 21 21 20 20 19 17 16 15 14 14 13 12 10 11 13 16 18

GFSSGP_sfc_dewp_048.txt.gz
Dewpoint
63 55 49 48 41 38 32 31 27 29 28 26 32 34 34 35 43 48 59 60 67 68 71 72 74 73 72 70 70 70 69 69 69 69 69 67 66 63 63 62 62 61 64 66 68 69 69 68 67
59 53 49 45 37 31 30 30 28 28 31 33 32 32 33 38 52 54 58 60 65 67 69 71 73 73 71 70 70 69 68 67 67 67 68 67 63 62 62 62 61 61 62 64 66 67 66 66 65
57 52 45 41 35 31 29 28 27 26 31 32 31 32 35 44 50 54 59 60 64 67 67 70 73 72 71 70 69 68 66 65 66 65 67 64 62 62 62 63 61 61 60 62 63 63 62 62 61
50 48 42 34 31 31 30 28 30 30 31 32 33 35 41 49 49 56 58 60 62 65 68 72 72 72 71 70 68 67 65 64 64 63 63 62 62 62 63 63 61 61 61 60 61 61 62 63 63
48 46 36 31 29 30 29 27 29 30 29 31 33 33 44 50 55 57 58 59 60 67 69 70 72 72 71 69 68 67 65 64 64 64 63 64 64 64 64 64 62 62 61 61 62 62 62 63 63
42 41 33 31 30 28 27 25 28 30 30 29 30 31 45 51 54 57 58 58 61 68 68 69 71 71 71 70 69 68 66 65 65 65 64 65 65 65 65 65 63 62 62 63 63 63 63 63 63
41 37 32 30 28 26 26 26 28 29 29 29 30 29 42 48 56 58 58 58 60 67 68 68 69 70 70 70 70 69 68 66 66 67 67 67 66 67 66 66 64 63 63 64 64 63 62 62 63
41 39 35 31 27 26 26 25 30 29 29 30 31 29 38 53 56 58 58 59 60 61 66 67 68 68 68 69 70 69 69 68 67 67 67 65 65 66 68 67 66 64 64 64 64 64 64 63 64
42 37 33 32 29 28 26 29 31 32 30 30 31 31 43 51 56 57 57 58 60 61 61 65 67 67 66 67 68 69 69 68 66 65 66 64 62 65 66 65 66 66 65 64 65 64 65 66 65
42 40 38 35 29 30 31 31 32 32 30 30 31 32 43 46 53 56 56 57 59 60 60 61 65 66 65 66 68 67 67 66 63 61 64 63 60 64 63 65 66 66 66 65 65 63 64 63 60
40 39 36 32 30 39 38 36 35 33 34 34 31 32 39 44 47 52 54 55 57 59 60 59 62 64 64 66 67 66 66 65 63 58 62 60 58 59 60 61 61 62 63 62 63 61 59 51 50
37 38 38 38 37 40 39 39 38 34 35 36 35 36 40 41 43 47 50 51 55 58 59 60 61 62 65 67 68 66 66 64 62 58 58 57 57 56 54 59 58 59 58 60 58 53 49 48 46
35 35 36 36 36 37 40 40 39 39 38 37 37 38 40 41 42 42 46 49 49 54 58 60 60 61 63 64 66 65 65 64 62 62 58 58 56 55 56 57 58 58 56 55 53 49 47 45 40
37 37 37 37 36 36 36 36 37 36 36 36 37 38 38 40 42 42 43 43 44 49 56 59 60 61 63 63 64 64 64 63 63 62 58 57 58 58 58 57 56 54 52 51 51 47 43 40 33
39 37 38 37 36 36 36 34 35 36 36 35 34 34 35 37 39 41 42 43 44 44 50 55 59 60 63 64 65 66 64 64 63 62 59 58 59 59 59 56 54 52 49 47 43 40 36 34 33
37 37 34 32 34 34 34 31 33 34 34 34 34 33 33 34 35 35 39 41 43 45 45 51 56 59 60 63 66 66 65 63 63 63 60 59 61 60 57 55 53 48 47 43 39 36 35 32 31
33 28 30 30 33 32 32 31 33 32 33 33 32 32 32 32 33 33 34 37 39 44 45 46 48 53 58 62 65 65 65 63 63 63 62 60 61 58 54 51 46 45 43 38 35 32 31 30 30
27 28 27 26 31 31 30 30 30 30 29 32 33 33 32 33 32 33 33 34 38 40 44 45 47 46 50 59 64 65 65 64 63 63 62 61 60 56 52 46 43 41 38 35 35 31 29 29 28
29 28 27 27 27 26 26 26 26 27 27 26 28 29 30 32 33 34 35 37 36 37 41 44 46 46 47 50 59 62 62 63 65 65 62 62 59 51 45 44 39 38 36 34 30 30 30 29 28
28 28 28 27 27 26 26 25 26 26 25 25 25 25 26 28 29 30 33 36 38 40 40 41 44 46 47 49 55 60 60 58 58 62 62 58 52 48 43 40 36 33 30 28 28 30 29 29 27
30 28 27 25 27 27 26 25 25 25 27 26 27 26 26 27 27 27 27 31 37 38 40 42 45 45 49 53 58 55 55 52 50 49 47 47 46 45 47 46 40 32 34 33 31 31 30 30 27
27 29 28 27 27 24 27 23 23 22 22 23 24 26 27 27 27 28 27 27 29 37 40 43 45 45 49 55 57 57 57 54 50 49 48 45 44 44 43 44 38 33 33 30 28 28 26 29 26
28 31 29 29 27 26 25 24 24 21 19 17 19 22 24 25 25 26 28 29 30 33 40 41 45 45 49 54 57 57 53 50 48 45 43 42 44 43 40 35 35 31 31 27 26 25 23 24 27
32 30 30 29 28 24 25 24 22 17 15 15 15 19 21 21 23 25 27 31 32 34 36 44 47 48 52 56 58 54 50 46 43 40 41 41 40 36 33 30 30 29 29 28 27 26 25 25 25
32 29 22 23 23 19 20 23 22 19 18 19 17 18 20 19 20 24 28 30 32 32 38 38 49 49 55 57 56 53 47 44 41 40 39 35 34 33 33 33 30 29 29 28 29 30 29 27 27
31 31 24 16 18 20 22 19 16 18 18 21 21 21 23 23 23 26 33 35 36 36 37 38 49 50 55 55 53 52 43 41 40 40 37 36 34 33 32 31 28 25 26 27 29 30 29 28 28
30 29 29 26 23 18 18 13 13 13 14 16 19 22 22 23 24 31 35 35 35 36 39 39 49 51 54 53 53 46 43 40 39 36 34 33 31 28 29 26 22 23 22 24 26 27 21 20 20
30 29 26 26 12 14 17 14 15 18 20 20 19 20 22 24 28 32 37 37 35 36 41 41 50 51 52 53 47 44 41 38 33 30 30 29 24 24 24 25 21 21 20 20 21 19 17 16 19
30 31 29 27 24 17 18 17 20 22 23 23 23 24 24 28 29 34 38 39 37 36 42 46 50 50 51 49 40 32 28 27 27 26 24 23 24 22 22 23 19 19 17 16 16 14 15 16 18
30 28 28 21 18 24 22 22 24 24 24 27 27 25 26 28 29 38 39 40 40 40 45 49 50 50 43 34 30 25 24 22 21 21 21 22 21 20 18 17 17 16 15 12 11 12 14 16 18

GFSSGP_sfc_dewp_051.txt.gz
Dewpoint
63 59 54 45 37 36 33 34 33 27 26 31 32 33 33 37 42 45 61 68 70 71 72 73 74 73 72 72 71 71 70 70 70 70 69 67 65 64 64 62 62 65 66 67 65 66 69 68 68
61 58 48 42 35 32 32 32 32 27 32 31 31 31 32 48 53 57 61 68 69 71 72 72 73 73 72 71 70 70 69 69 69 70 68 66 64 64 63 61 61 63 66 67 67 68 67 66 65
60 56 43 40 34 32 32 30 28 29 31 31 31 33 35 47 54 57 61 67 70 70 71 71 73 72 71 70 70 69 68 68 68 69 67 65 64 63 63 62 61 61 64 65 65 65 64 63 62
52 47 42 34 33 33 32 31 31 30 30 32 33 34 45 51 54 58 63 67 68 69 70 72 72 72 72 71 68 67 66 67 66 67 65 64 63 63 63 61 61 61 62 63 63 63 64 64 63
46 45 37 34 31 31 32 32 28 29 29 32 33 33 46 53 58 58 62 66 66 68 70 71 72 72 71 69 68 67 65 65 64 65 64 63 64 65 64 62 62 61 61 62 62 63 63 63 63
41 42 36 34 32 30 30 30 27 29 30 30 30 30 47 54 57 57 59 65 68 68 69 70 71 71 70 69 69 68 66 66 65 65 65 65 65 66 65 63 63 63 63 63 63 63 63 63 63
39 36 34 33 31 31 31 30 27 29 29 29 30 29 48 52 57 58 58 68 68 68 68 70 69 69 69 69 69 68 67 67 67 67 67 68 68 67 66 64 63 63 64 64 64 63 63 63 64
41 39 36 33 30 29 29 27 28 29 29 31 31 29 49 55 58 58 58 67 67 67 68 69 69 68 68 68 69 68 67 67 68 68 67 66 65 67 67 67 65 64 64 65 65 64 64 64 64
41 37 35 36 34 31 31 30 30 32 29 30 31 37 49 56 57 57 58 61 66 67 67 68 68 68 68 68 68 69 68 67 67 66 65 64 63 66 66 65 66 66 65 65 65 65 65 66 65
39 38 37 37 35 32 35 37 34 31 30 30 31 42 46 55 56 56 57 58 61 65 66 67 67 67 67 67 68 67 67 65 64 64 64 62 61 66 64 64 65 67 66 66 65 65 64 63 61
39 38 40 39 38 37 39 37 38 33 34 31 30 32 44 47 52 56 56 58 59 61 64 67 67 66 66 67 67 67 66 65 62 61 63 62 60 64 63 64 64 63 63 63 64 62 60 52 59
38 39 39 39 39 39 39 41 40 39 35 37 36 37 39 43 47 51 55 56 58 60 60 66 66 65 65 66 66 66 66 65 63 59 62 59 59 61 60 60 61 61 61 60 60 58 50 48 44
36 37 38 38 38 36 38 39 39 39 40 39 39 39 38 40 41 44 48 51 56 59 60 61 64 64 65 67 66 66 65 64 63 59 60 58 57 57 56 58 58 59 59 58 53 49 47 41 35
39 38 37 38 37 37 36 36 37 38 38 36 36 36 38 39 41 42 43 43 48 56 59 60 62 63 65 66 67 66 65 65 62 60 59 57 56 54 55 57 58 55 53 52 50 48 43 35 31
40 38 38 38 38 37 36 35 35 37 38 37 36 35 35 36 38 41 42 43 43 44 58 60 60 62 64 64 66 65 65 65 62 62 57 57 57 56 58 55 53 52 50 46 41 38 34 33 30
37 37 35 36 36 37 36 32 35 36 36 35 36 36 35 35 35 36 38 41 43 44 50 59 60 61 63 63 65 66 65 64 63 61 58 57 59 59 56 54 53 51 47 43 38 36 33 32 30
34 29 33 34 33 35 35 32 34 34 33 32 34 35 35 35 34 35 36 36 38 42 44 51 58 59 62 63 65 65 66 64 64 62 59 58 60 57 55 52 49 46 41 38 33 31 31 29 28
28 30 29 28 31 31 30 31 32 33 31 30 32 34 33 33 33 34 34 35 36 38 43 45 51 59 61 64 65 65 65 65 64 62 60 60 59 54 52 47 45 41 37 36 33 29 29 28 26
32 28 28 29 29 26 28 28 27 28 28 28 28 29 30 32 34 35 34 34 34 37 39 44 46 50 57 64 64 64 63 64 63 64 61 61 57 53 48 46 41 38 35 32 30 30 28 27 27
32 28 28 29 28 27 26 26 27 27 27 27 27 27 28 29 30 31 32 34 36 36 37 41 45 45 50 59 64 64 63 60 62 63 62 61 55 49 45 42 39 36 33 30 28 29 30 29 27
30 28 28 27 28 27 26 25 25 27 27 27 27 26 26 26 27 29 29 30 33 36 38 40 42 46 46 49 57 57 56 55 55 53 53 52 50 48 45 43 40 33 32 31 31 30 31 29 27
28 29 29 28 27 24 27 22 25 24 21 23 26 27 27 27 27 27 27 27 28 32 37 40 42 45 47 52 57 58 59 58 54 52 50 47 46 48 46 45 39 39 36 31 30 28 28 30 26
29 31 29 29 27 25 25 23 23 25 20 20 18 21 26 28 28 28 29 29 29 30 33 39 41 45 47 51 56 58 58 52 50 48 46 47 45 44 44 40 37 39 40 34 29 24 25 26 28
31 30 29 29 27 21 24 23 19 20 19 16 19 18 23 24 23 26 27 30 31 32 32 39 41 44 46 51 57 57 53 50 49 46 45 45 45 43 38 35 37 37 37 36 31 28 23 24 25
30 27 16 24 23 18 24 24 23 24 23 21 20 18 20 20 20 22 32 34 34 34 34 35 38 44 47 53 57 54 52 51 48 46 44 44 38 37 33 33 35 36 35 33 31 29 29 28 25
30 27 18 13 15 21 23 22 20 20 23 20 21 20 20 22 22 22 34 34 34 35 36 36 37 43 51 56 55 50 48 49 47 46 43 43 38 37 34 33 33 31 32 33 30 31 30 29 27
31 27 29 22 22 16 20 17 16 17 20 17 20 21 21 22 23 28 35 36 36 36 36 37 37 46 55 55 49 46 46 46 45 43 41 40 37 33 30 31 31 33 33 30 29 28 23 23 23
29 30 23 20 8 12 18 16 15 20 22 23 24 24 25 26 27 31 37 37 38 38 38 38 39 50 54 53 46 43 44 44 42 39 35 32 28 27 28 28 27 29 29 24 25 22 19 18 21
31 31 28 25 22 14 15 18 20 21 23 24 26 27 27 26 27 29 38 39 40 40 40 41 47 52 52 46 43 43 41 40 37 35 31 27 26 26 26 24 24 24 21 19 18 18 17 16 18
31 29 27 17 14 19 23 22 25 24 25 27 28 33 33 34 29 31 38 39 39 41 43 43 50 49 41 37 38 36 35 32 33 30 26 24 23 24 22 22 22 19 17 16 17 17 14 16 18

GFSSGP_sfc_dewp_054.txt.gz
Dewpoint
62 59 55 45 35 36 33 35 35 33 27 31 32 32 34 41 41 40 61 67 71 71 72 72 74 74 74 73 72 72 71 70 69 68 67 66 66 65 63 64 65 65 65 65 64 66 69 69 67
60 56 47 42 35 31 31 34 32 32 31 31 31 30 35 48 53 63 65 69 71 71 72 72 73 73 73 72 71 71 71 70 70 69 68 66 65 64 63 61 63 65 66 66 66 68 69 68 66
58 55 42 39 35 32 31 32 31 29 31 30 31 32 41 48 56 61 66 69 70 71 72 71 73 73 72 72 71 71 70 70 70 69 67 66 65 63 62 61 62 65 67 67 67 66 65 65 64
52 47 43 36 35 34 33 32 31 30 29 32 33 35 47 52 57 61 68 69 70 71 71 72 73 72 72 72 70 69 69 69 68 69 66 65 63 63 62 61 61 64 65 65 64 64 64 64 63
47 44 38 35 34 34 33 33 32 30 29 30 33 34 48 56 58 67 69 69 69 70 71 71 73 72 71 70 69 68 68 67 68 67 65 63 64 64 62 62 62 62 63 64 64 64 64 63 64
40 43 36 32 32 32 31 31 31 29 29 30 30 42 48 56 60 66 68 68 69 70 70 70 71 72 71 70 68 68 68 67 67 66 64 64 65 65 62 63 62 62 63 63 63 63 63 63 63
39 37 37 34 33 34 33 32 28 28 28 29 30 35 50 56 57 61 66 67 68 69 69 70 70 70 70 69 69 68 68 67 67 67 67 67 67 66 64 63 63 63 64 64 64 63 63 63 63
40 39 35 34 32 31 32 29 28 28 28 31 30 42 48 53 57 64 67 68 68 68 68 69 69 68 67 67 68 68 67 67 67 68 67 67 67 67 66 65 65 64 64 64 64 63 63 64 63
41 37 36 34 32 32 34 34 32 31 29 30 32 43 51 56 58 62 66 66 66 67 68 68 68 67 67 67 67 67 67 67 67 67 66 65 64 66 66 65 65 66 65 65 65 64 64 66 65
39 37 37 38 37 35 34 37 36 32 30 30 37 47 55 57 57 59 65 65 66 66 67 68 68 67 67 66 67 66 65 65 65 65 64 62 62 65 65 64 65 66 66 66 65 65 66 64 61
39 38 39 39 40 40 39 38 39 36 32 32 34 46 48 55 56 57 61 65 66 66 66 67 67 67 67 66 67 66 65 64 63 63 63 62 61 65 64 63 64 64 64 63 65 63 60 54 58
39 39 38 40 40 39 38 40 40 39 36 40 40 38 38 45 48 56 57 60 61 65 66 66 66 66 67 66 67 66 66 64 62 61 63 61 60 63 62 63 62 61 62 60 61 59 51 47 44
37 38 38 39 39 38 37 38 39 39 40 40 39 39 38 38 43 47 53 57 59 62 65 66 66 66 66 66 66 66 65 64 63 60 61 61 59 62 62 61 60 60 60 59 59 53 47 38 32
39 37 37 38 38 38 37 36 36 38 39 38 38 37 37 37 38 41 43 46 54 59 61 66 66 66 66 66 66 65 65 65 63 61 59 59 59 61 59 58 58 58 58 57 53 48 42 33 31
40 38 38 38 38 37 38 35 35 37 37 37 37 37 37 36 36 37 41 42 43 51 60 62 66 65 65 66 66 66 65 65 63 61 58 58 58 57 57 57 57 55 53 51 44 37 34 32 29
37 37 34 36 37 36 36 32 35 36 36 36 36 36 36 37 36 36 37 39 42 44 49 60 63 65 64 66 66 66 66 65 64 62 59 57 57 56 56 56 54 51 48 43 39 35 32 31 29
34 30 32 33 35 35 36 33 34 35 34 34 34 34 35 36 36 36 36 36 37 40 43 57 61 63 64 65 66 66 65 65 64 61 58 57 56 57 56 55 52 49 44 39 36 33 31 28 27
31 31 30 30 29 33 32 34 34 33 33 33 32 31 33 35 36 36 36 36 36 37 40 46 59 62 64 65 65 66 65 65 64 62 58 57 58 57 56 53 49 43 39 36 32 29 29 27 25
32 30 28 29 30 27 26 27 29 30 29 29 29 29 30 31 34 35 34 34 35 36 36 41 48 59 63 64 64 64 64 64 64 63 60 59 58 55 53 49 43 39 37 34 29 29 25 25 26
34 32 30 29 29 27 26 26 27 27 27 27 27 27 28 28 29 32 34 34 35 34 35 37 44 50 60 63 63 64 64 63 63 63 62 60 57 55 54 46 41 37 34 31 30 30 29 27 26
31 28 28 28 28 27 26 21 22 26 27 27 27 28 28 28 27 28 30 31 32 34 36 37 39 46 56 62 62 58 58 57 57 59 60 60 56 54 52 46 42 38 35 32 30 31 30 27 26
28 29 29 28 26 23 27 20 24 24 25 23 25 27 28 28 27 27 28 29 29 30 33 37 40 43 46 58 61 61 60 59 59 59 54 53 53 53 50 46 43 43 40 32 32 32 34 32 25
29 30 29 29 26 24 25 23 21 23 21 20 18 18 21 28 28 28 29 29 29 29 30 33 38 42 46 54 60 60 60 59 52 52 52 50 51 52 49 45 42 43 41 36 35 35 34 30 29
31 29 29 29 25 15 22 23 19 20 19 16 18 20 21 24 26 28 29 29 30 32 32 33 38 41 44 49 56 59 57 51 50 49 50 48 48 50 48 43 43 43 40 39 38 30 29 27 27
30 25 14 13 13 14 24 24 23 23 24 23 23 22 20 22 22 27 32 33 34 34 35 35 35 35 42 46 53 57 57 54 52 50 49 47 45 45 45 43 42 40 37 32 32 33 33 28 26
28 25 18 9 17 20 23 21 20 23 22 20 20 22 24 25 24 23 33 34 34 36 36 36 36 36 37 46 54 56 55 54 52 50 48 47 45 42 41 39 38 36 32 33 34 34 33 29 26
30 24 27 21 18 14 19 19 15 22 22 23 25 27 27 28 27 26 32 35 36 35 36 37 38 38 38 48 54 51 52 50 48 46 47 43 42 39 39 39 35 33 32 32 33 32 28 26 24
29 30 23 17 4 9 16 18 15 19 22 23 26 28 30 34 33 30 33 37 37 37 38 39 40 39 40 52 49 49 49 48 46 45 44 42 38 37 38 35 31 31 30 29 28 25 22 21 22
31 29 26 23 20 13 14 15 20 20 23 26 28 29 34 35 34 32 35 34 38 38 38 39 42 44 50 47 45 45 45 45 44 44 43 38 34 33 31 27 28 27 25 24 22 22 19 18 19
31 29 25 16 11 15 22 19 25 25 25 27 28 34 37 37 37 37 33 36 39 39 43 46 47 49 45 44 43 43 43 43 42 42 38 34 32 29 28 25 25 24 24 17 18 20 22 23 21

GFSSGP_sfc_dewp_057.txt.gz
Dewpoint
61 58 53 43 35 36 33 33 37 32 31 29 32 33 35 40 39 38 61 68 69 71 72 73 74 74 74 74 73 73 72 71 70 69 68 67 66 65 65 66 66 63 61 66 65 68 68 68 67
60 54 46 41 33 30 30 34 32 32 32 32 31 32 41 46 55 63 64 69 70 71 72 72 74 74 73 72 71 71 71 70 69 68 66 66 66 64 63 64 64 63 63 64 65 67 69 68 66
56 52 42 39 35 30 28 31 31 31 30 31 30 34 41 47 56 63 65 70 70 71 71 72 74 73 73 72 71 71 70 70 70 69 67 66 65 64 62 62 63 66 67 67 68 68 67 66 64
52 48 43 37 35 34 32 31 31 32 32 30 32 43 49 53 58 62 69 70 70 70 71 72 73 73 73 72 72 71 71 71 70 69 67 66 64 63 62 62 64 65 67 66 66 65 64 64 63
47 44 39 36 35 36 34 34 33 32 31 30 31 35 50 55 62 68 69 70 69 70 71 71 73 72 72 71 71 71 69 69 70 68 66 65 64 62 61 61 63 65 65 65 65 65 64 64 64
43 42 36 33 34 33 33 33 32 30 30 29 31 46 49 58 66 68 69 69 70 70 70 71 71 72 71 69 70 70 69 68 69 67 66 64 64 62 62 62 62 64 64 64 64 64 64 63 63
40 40 37 34 31 30 33 33 30 30 29 28 31 45 50 56 65 68 68 68 70 70 70 70 70 70 70 70 69 69 69 69 69 68 66 67 66 64 63 62 62 63 64 64 63 63 63 63 63
40 38 35 35 32 31 33 31 30 28 28 30 37 45 50 54 62 66 67 68 68 69 69 69 69 69 68 67 68 68 68 68 68 67 67 67 67 66 64 65 65 64 64 64 64 63 63 63 63
41 37 35 33 33 33 34 34 35 34 29 30 31 45 49 56 65 66 66 67 67 67 68 68 68 67 66 66 67 67 67 67 67 67 66 65 65 66 65 64 65 66 65 64 64 64 64 65 64
39 37 36 37 36 35 35 37 37 35 33 29 38 51 56 59 64 65 65 64 65 66 68 68 67 67 66 66 65 65 65 65 65 65 64 64 64 65 65 63 65 66 66 66 65 65 66 64 61
40 37 38 39 40 40 39 37 39 37 34 34 36 37 44 57 61 64 65 65 65 66 66 67 67 67 66 65 66 65 64 63 63 63 63 62 62 64 64 63 63 63 64 63 65 63 60 57 58
39 39 39 40 41 40 38 39 39 39 38 39 41 40 38 44 53 59 64 65 65 66 66 67 67 66 66 66 66 65 64 63 62 62 62 61 60 63 62 62 61 61 62 60 61 59 53 48 48
38 39 39 39 39 39 38 37 39 39 40 41 40 39 38 38 39 49 56 61 64 65 66 66 67 66 66 65 66 66 65 63 62 61 62 62 60 62 62 61 61 60 60 59 59 56 46 38 33
39 38 38 37 37 38 37 37 37 37 40 39 38 38 37 37 37 40 45 52 60 65 66 66 66 66 66 66 65 65 65 64 63 61 61 62 60 62 62 60 60 59 59 59 58 51 41 33 29
40 38 38 38 38 37 37 35 36 37 37 37 37 37 37 37 37 37 38 42 50 58 63 66 66 66 65 65 66 65 65 65 64 62 59 60 60 61 61 60 58 58 58 56 51 40 34 32 29
38 37 34 36 37 37 36 31 35 37 36 36 36 36 36 37 37 37 37 39 42 44 58 63 66 66 65 65 66 65 65 65 64 63 59 59 59 59 59 58 57 56 54 49 41 36 33 31 29
34 31 33 33 36 35 35 33 34 35 35 35 35 35 35 35 35 37 37 37 38 42 44 59 65 65 65 65 66 66 66 65 65 63 60 58 58 57 57 57 56 52 47 43 37 34 32 30 27
31 31 30 30 29 33 33 34 35 36 34 35 34 34 34 34 34 35 37 37 37 38 41 46 60 64 65 65 66 66 66 66 65 62 61 59 57 56 56 55 53 49 43 39 35 31 29 28 25
32 31 29 29 30 27 27 28 28 29 30 30 31 32 33 32 32 34 35 36 36 36 37 41 56 61 64 64 65 65 64 65 64 64 61 59 58 57 56 54 51 46 42 38 32 29 26 25 26
34 32 31 30 30 27 27 26 27 28 28 28 28 28 29 29 29 30 33 34 35 35 35 37 46 59 61 64 64 64 65 64 64 64 61 59 58 58 56 53 49 44 39 33 30 30 29 26 26
33 31 29 28 28 27 26 23 23 24 26 27 27 28 28 28 28 28 29 31 33 34 35 35 37 46 59 62 63 60 60 60 60 60 62 59 58 58 56 53 48 42 40 37 37 33 30 27 25
30 29 29 28 26 23 27 18 23 23 23 25 24 24 27 28 28 29 28 29 30 31 32 34 37 40 52 60 62 62 60 60 61 62 62 59 57 57 55 53 48 46 48 43 44 41 38 32 27
29 30 28 28 26 22 24 23 21 21 20 20 21 20 21 23 27 29 29 29 29 29 30 31 34 38 44 53 61 62 60 60 58 55 58 53 53 56 53 51 47 45 46 46 44 44 41 33 32
31 28 28 28 24 15 22 21 16 18 19 18 22 22 22 22 23 26 30 30 30 31 30 31 34 36 40 48 58 61 61 55 54 53 55 52 51 52 51 49 49 48 46 43 44 43 39 33 33
28 25 17 13 13 14 24 23 21 23 25 25 23 23 27 28 28 27 27 33 34 33 34 34 34 34 38 44 51 57 58 55 55 55 55 51 50 49 48 46 47 47 46 43 38 37 33 33 31
28 25 18 8 13 18 23 21 20 22 21 21 25 28 31 32 30 30 28 33 34 35 34 35 35 35 36 37 45 53 56 56 54 53 54 53 51 49 47 46 46 45 40 38 36 36 33 31 29
29 22 26 21 18 15 19 18 14 22 23 26 28 29 31 35 36 33 32 34 36 36 35 35 36 37 38 39 43 51 53 52 52 50 50 49 46 46 45 45 43 39 36 34 33 32 28 26 26
28 29 22 18 8 10 14 17 12 19 22 26 27 28 31 36 37 37 34 33 35 37 37 36 38 39 40 41 48 50 51 51 48 48 46 44 44 43 43 40 36 33 33 31 29 27 25 24 25
30 27 25 23 20 14 14 10 20 19 24 26 27 28 32 36 38 38 37 37 35 35 38 38 39 42 44 48 46 46 46 45 45 45 44 42 41 40 38 36 34 30 28 25 23 22 22 23 25
30 28 25 17 14 16 20 17 23 25 25 26 28 31 35 38 38 38 38 39 40 40 45 46 46 47 47 44 43 43 43 43 43 42 41 39 41 38 34 32 28 26 24 21 20 20 22 24 26

GFSSGP_sfc_dewp_060.txt.gz
Dewpoint
60 56 51 43 35 35 32 31 36 32 30 29 32 33 34 37 40 38 60 67 69 69 72 73 74 74 74 74 74 74 73 72 71 69 68 67 67 67 67 68 66 63 63 65 67 68 68 67 67
59 53 45 41 32 28 29 34 32 33 32 31 31 34 38 43 56 61 64 68 69 71 72 73 74 74 74 74 73 73 72 71 70 69 67 66 65 65 65 65 64 62 63 65 66 68 69 68 66
55 49 42 39 34 29 27 30 31 32 32 31 30 33 38 46 57 62 63 70 70 71 72 72 74 74 74 73 73 72 71 70 69 68 67 66 65 64 63 63 63 65 65 67 66 68 68 66 64
51 47 42 36 34 34 29 34 32 33 31 31 32 34 46 55 58 63 69 70 70 70 71 73 74 74 73 72 72 71 71 70 70 68 66 65 65 62 63 64 65 67 69 68 68 67 66 64 63
47 44 38 35 36 36 35 34 34 33 32 32 30 29 46 56 63 68 69 70 69 70 71 72 73 73 73 72 72 72 71 71 70 68 67 66 64 63 62 64 65 65 66 66 66 65 65 64 64
44 42 35 34 35 35 34 35 33 31 30 30 30 41 49 59 65 68 68 69 68 69 71 71 72 72 72 72 72 72 70 71 70 68 67 65 64 62 62 63 65 65 65 65 65 64 64 64 63
42 41 36 33 33 32 33 33 31 30 30 29 33 43 48 56 65 68 68 69 67 69 70 70 70 71 71 69 71 70 70 69 70 69 67 66 65 63 62 62 63 65 65 65 64 63 63 63 63
40 40 36 35 32 31 32 32 31 30 29 31 34 34 43 54 67 67 68 68 68 69 69 68 69 69 69 68 69 69 69 69 69 68 67 67 66 65 64 64 64 64 64 64 64 63 63 64 64
41 37 34 34 33 33 34 32 35 34 31 31 31 41 50 61 66 66 67 66 66 68 68 69 68 67 66 66 67 68 68 68 67 67 66 65 64 64 63 64 65 66 65 64 64 63 64 65 65
39 36 36 36 35 33 36 36 38 36 35 32 33 45 58 65 65 64 64 64 65 66 67 68 68 66 65 66 65 64 65 64 65 65 64 64 64 64 64 63 65 66 66 66 64 65 66 62 60
40 36 36 39 38 39 38 38 39 37 35 33 35 38 50 59 64 63 63 64 64 64 65 66 67 66 65 65 64 63 63 63 63 63 63 63 63 63 63 62 62 62 63 63 64 63 60 58 56
38 39 38 39 40 40 38 38 38 38 37 37 40 41 39 54 58 62 63 64 64 64 65 65 67 66 65 65 64 63 63 62 62 62 62 61 61 62 62 62 61 61 61 60 61 59 52 56 44
39 39 39 39 39 39 39 37 37 39 40 40 40 41 39 38 39 48 59 64 65 64 65 65 66 66 65 64 65 64 63 63 62 62 62 61 60 61 61 61 61 60 60 59 59 56 46 40 35
39 39 39 38 37 37 37 37 37 37 38 39 39 39 39 39 38 38 44 55 64 65 65 65 66 66 65 65 65 65 64 63 62 62 62 61 61 61 62 61 60 59 59 58 58 53 40 33 29
40 37 37 37 38 37 38 35 36 37 37 37 37 37 37 38 38 37 37 42 56 64 66 66 66 66 65 65 65 65 65 64 62 62 61 62 61 60 62 61 59 59 58 58 54 44 34 32 28
38 37 35 37 38 38 35 30 34 37 37 36 36 36 37 37 38 38 38 38 39 53 63 66 66 66 65 65 65 65 65 65 64 62 60 60 61 60 60 60 60 59 57 56 49 38 34 32 30
37 31 34 35 37 36 36 33 34 35 35 35 35 36 36 36 36 37 38 37 38 40 46 61 66 66 65 65 65 65 65 65 64 64 62 59 60 60 60 60 59 57 54 51 43 35 34 31 28
32 31 32 33 31 34 34 33 34 35 36 34 34 35 35 35 35 35 36 37 37 38 40 45 62 66 66 65 65 65 66 65 65 64 63 60 58 58 59 58 57 55 50 45 38 34 30 30 27
33 32 31 30 30 28 28 28 28 28 29 29 32 32 33 34 35 34 34 36 36 37 37 40 53 63 65 65 65 65 64 65 65 64 63 61 59 58 57 57 56 53 49 45 37 32 28 26 26
32 31 30 31 30 28 27 27 28 28 28 28 28 28 29 30 31 30 31 33 34 35 36 37 40 54 63 65 65 65 65 64 65 64 63 61 59 59 57 56 55 52 47 39 34 31 29 26 28
35 32 30 29 28 27 26 23 23 24 26 26 27 28 28 28 28 29 29 30 32 33 34 35 38 43 59 63 64 61 62 61 62 63 63 61 60 59 58 56 55 51 47 43 40 38 33 31 27
33 32 30 28 26 25 26 21 23 22 21 23 24 22 22 23 24 28 29 29 29 30 33 34 36 39 47 61 63 62 62 61 62 63 63 62 59 59 58 56 55 51 48 46 45 43 44 42 36
30 31 28 27 26 22 24 22 20 20 19 17 22 23 26 28 26 27 30 30 30 30 30 31 33 38 41 52 61 62 62 62 58 60 61 61 57 58 58 56 53 48 48 49 46 45 44 45 40
31 28 28 26 23 14 20 20 13 17 19 22 22 26 30 31 32 32 30 34 34 33 33 32 31 33 38 45 55 61 61 58 55 56 60 57 55 56 55 54 51 49 48 47 47 45 43 39 37
28 25 15 11 13 13 24 22 20 23 25 25 24 29 31 34 34 33 34 33 35 35 35 35 35 33 36 41 48 58 60 57 56 57 58 56 54 53 54 52 49 48 48 47 46 45 43 39 35
28 25 18 6 13 16 23 21 19 22 22 25 28 29 32 35 37 36 34 35 35 36 36 36 35 35 35 36 42 49 54 56 57 55 56 56 55 55 53 52 51 49 48 47 43 42 38 33 31
28 22 25 19 16 14 19 19 16 22 24 27 27 30 30 34 37 38 37 35 36 36 37 37 36 36 37 38 39 42 49 53 54 52 52 51 50 49 49 49 48 46 45 43 41 37 33 28 27
28 28 22 18 10 9 12 14 9 19 23 26 26 28 30 34 37 39 39 37 37 37 37 38 37 37 39 42 42 44 47 50 51 48 48 47 46 47 47 46 44 44 41 37 33 28 25 24 27
29 28 25 23 19 13 13 7 19 20 24 26 27 29 31 36 38 39 39 38 39 40 43 44 44 45 46 46 45 45 45 46 45 45 44 44 45 44 43 42 40 37 33 30 27 24 24 24 25
30 28 24 17 15 19 19 15 21 23 26 26 27 30 37 40 40 40 39 39 40 43 41 38 36 39 42 42 42 44 45 45 44 43 42 41 41 40 38 35 32 29 24 22 21 22 25 25 27

GFSSGP_sfc_dewp_063.txt.gz
Dewpoint
60 54 50 46 37 36 32 31 33 32 31 30 32 33 35 37 43 40 64 68 67 68 71 72 75 75 75 74 74 74 74 73 71 70 69 69 68 68 68 68 67 66 66 66 68 68 67 67 65
58 51 48 43 35 29 29 33 33 34 33 33 32 33 40 41 55 62 64 68 68 70 71 71 74 75 75 75 74 74 73 72 71 70 68 68 67 67 68 66 64 63 65 66 68 69 68 67 63
54 48 44 41 34 29 29 30 33 32 33 32 31 34 36 44 56 62 65 69 69 71 71 72 74 75 75 74 74 74 73 72 70 69 68 66 65 65 65 64 63 66 67 68 68 69 68 65 62
51 48 42 37 35 35 29 30 32 33 32 32 31 30 42 53 56 62 68 69 70 71 71 73 74 75 74 74 74 73 72 71 70 69 68 66 64 63 64 64 67 69 69 69 69 68 66 63 63
47 44 39 37 36 36 35 34 34 33 33 33 30 29 36 55 66 68 69 69 69 70 71 72 74 74 73 73 72 72 71 71 70 68 67 65 64 63 64 64 67 68 68 68 67 66 65 65 63
44 42 36 34 35 36 36 36 35 34 32 31 30 33 43 63 66 67 68 69 68 69 71 71 72 73 73 72 72 71 72 72 70 68 67 66 64 63 63 65 65 66 66 66 66 65 65 64 64
43 41 36 34 33 34 35 35 33 34 31 30 33 35 44 59 66 67 67 68 68 69 71 71 70 71 71 71 71 71 71 72 71 69 68 67 66 64 63 65 66 66 65 65 65 65 64 64 64
43 40 37 35 31 32 33 33 32 32 30 31 35 31 35 55 66 67 67 67 67 68 70 70 70 69 68 67 70 69 69 69 70 69 68 66 65 65 64 65 66 66 65 65 64 63 64 64 64
41 38 34 34 33 33 33 31 34 34 31 32 32 37 48 60 66 66 66 66 67 68 69 70 69 69 69 67 68 69 68 68 68 67 66 65 62 62 61 63 65 66 65 64 64 64 65 65 65
40 37 36 37 36 34 35 35 37 36 35 34 34 44 61 64 64 64 63 64 66 66 67 68 69 68 68 67 67 67 66 65 64 64 64 64 63 62 62 62 65 66 66 66 64 65 65 62 60
41 36 37 38 36 38 39 38 39 37 36 36 35 40 57 62 63 63 63 63 64 65 67 67 67 68 67 66 66 65 66 65 65 64 64 64 64 64 62 62 63 64 64 63 64 64 62 61 55
39 39 38 38 40 40 39 39 38 39 38 37 41 41 43 60 62 62 62 63 64 64 65 66 67 67 67 66 65 64 64 64 64 64 64 64 64 65 65 62 63 64 64 64 64 62 57 58 49
40 39 40 39 40 39 39 38 38 38 40 40 41 41 40 42 52 59 62 63 63 64 64 66 66 67 67 66 65 64 63 63 63 64 64 64 63 64 65 64 62 62 63 62 63 60 52 53 42
40 40 39 39 39 38 38 37 38 38 39 39 39 40 40 40 39 39 50 61 64 64 64 65 66 66 66 65 65 64 63 63 63 63 64 64 63 63 64 64 63 62 62 61 61 57 48 46 38
39 38 39 38 38 37 38 35 36 37 38 37 37 38 39 39 39 39 40 45 60 65 65 65 65 66 66 66 65 65 64 63 62 63 63 63 63 62 62 63 64 62 61 60 59 52 42 37 33
39 38 35 38 37 37 35 29 34 37 37 37 37 37 38 38 38 39 39 40 41 55 65 66 66 66 66 66 66 66 66 64 62 62 62 63 62 62 62 62 63 63 61 60 57 50 41 37 34
38 33 35 35 38 37 34 32 34 36 36 35 35 35 36 37 38 38 39 39 39 39 48 64 66 67 66 66 66 66 65 65 66 64 62 61 62 62 62 62 62 62 61 59 55 46 42 38 35
33 32 34 32 33 36 35 35 36 34 34 35 35 35 35 35 36 36 37 38 38 39 40 47 64 66 67 66 65 66 66 65 66 66 63 62 60 61 61 61 61 61 60 58 52 47 38 38 35
34 31 32 33 31 29 30 30 29 30 30 29 30 31 32 33 36 37 37 37 39 39 39 40 47 62 66 66 64 64 64 65 65 66 65 63 61 60 61 60 60 59 59 56 52 44 38 34 32
33 31 31 30 30 29 27 27 28 29 30 30 29 30 30 30 29 30 33 35 36 37 39 40 41 49 64 65 64 64 65 65 65 65 65 64 62 61 60 60 59 58 57 54 48 42 37 34 32
33 31 30 29 28 27 26 25 24 24 24 25 25 26 26 26 25 25 28 32 36 36 36 38 40 43 56 64 65 64 65 64 64 64 64 64 63 61 60 59 59 57 57 54 49 44 43 36 32
35 34 31 28 28 27 26 22 25 22 21 24 27 29 30 30 30 29 32 31 33 34 36 37 39 40 46 61 64 63 61 61 62 63 64 64 63 62 61 60 59 58 57 54 51 46 46 45 39
35 36 29 28 26 25 24 23 21 20 19 23 26 30 32 34 34 33 33 36 34 37 36 36 36 38 40 50 61 63 62 63 63 63 63 63 62 62 61 60 59 58 55 54 50 48 45 46 43
32 28 27 26 24 21 20 20 15 18 20 23 26 31 33 36 36 36 36 37 37 40 40 41 36 34 37 42 53 62 62 62 62 62 62 63 61 61 60 60 59 58 55 53 51 51 48 46 44
29 28 21 18 20 17 24 22 19 21 25 25 28 30 33 37 38 38 37 38 39 40 41 40 38 37 37 39 42 51 61 62 61 61 61 61 58 58 58 58 57 56 54 53 51 50 49 47 45
28 29 22 12 14 15 23 21 18 22 22 26 29 30 33 36 38 40 40 38 39 41 41 39 38 38 38 39 39 43 50 58 60 60 60 60 60 59 58 57 56 54 52 51 50 50 48 46 44
28 26 24 19 18 17 19 20 19 23 26 27 27 30 33 36 38 40 40 40 39 40 40 42 42 41 40 40 42 42 43 48 55 58 58 59 58 56 56 55 53 52 51 50 49 48 44 40 35
29 28 24 21 13 14 11 13 13 22 24 26 27 29 32 37 39 40 41 40 39 40 43 44 43 44 46 47 47 47 48 48 50 53 54 54 52 52 52 51 49 49 48 47 45 41 34 29 28
29 28 25 23 20 14 11 7 17 23 25 26 27 29 34 41 41 41 40 41 41 43 40 37 37 41 43 44 45 46 47 47 48 49 49 49 48 48 49 47 46 44 42 39 35 30 27 25 25
29 27 23 20 19 20 20 14 20 22 26 26 27 29 40 41 41 38 38 41 43 39 36 35 36 39 41 43 44 45 46 46 47 46 45 45 46 45 44 43 39 36 33 29 26 24 24 24 27

GFSSGP_sfc_dewp_066.txt.gz
Dewpoint
61 56 50 46 35 32 28 27 30 31 32 30 31 32 32 35 36 38 63 65 62 64 69 71 75 75 75 75 75 74 74 73 72 71 70 70 69 68 69 68 67 66 67 69 68 67 67 66 63
58 50 47 42 31 28 26 28 30 29 31 32 32 32 32 37 48 58 62 66 64 66 68 69 75 75 75 74 74 74 73 72 71 70 69 68 68 69 68 67 64 65 66 66 69 68 68 64 63
56 49 42 37 33 28 26 29 28 30 32 32 31 34 36 40 53 58 64 66 65 67 68 70 75 75 75 75 74 74 73 72 71 70 69 67 66 67 66 64 63 64 68 68 69 69 67 63 64
49 45 41 35 32 32 29 28 29 30 32 32 31 31 38 54 54 61 65 65 65 66 68 73 75 75 75 75 74 74 73 72 70 69 68 65 65 64 64 63 68 69 69 68 69 68 64 63 65
48 43 37 36 33 32 33 30 31 31 31 30 29 29 32 55 62 64 65 65 65 66 67 71 75 75 75 74 74 72 72 71 70 69 67 65 64 63 64 64 68 69 69 69 68 66 64 63 65
43 41 34 33 33 33 34 33 32 31 31 30 27 30 35 60 63 65 66 66 67 66 67 69 73 74 73 73 73 71 71 71 70 68 67 66 64 64 64 64 68 68 68 67 67 66 65 64 65
40 38 34 30 31 32 34 35 33 30 29 29 28 29 37 56 65 66 66 66 67 67 67 67 70 70 71 71 71 70 70 71 70 70 68 66 66 65 64 65 65 66 67 66 66 65 64 64 64
38 38 33 31 30 31 33 35 33 32 30 30 31 27 31 55 65 67 67 65 66 68 66 67 67 67 67 66 70 70 70 71 70 69 68 66 65 65 64 67 67 66 66 65 64 64 64 64 64
41 32 27 31 32 30 32 32 32 32 28 29 31 34 46 56 65 66 66 65 65 67 66 66 65 65 64 64 66 68 68 69 69 67 66 64 59 60 61 63 66 67 66 64 64 64 65 65 64
36 31 27 28 31 31 33 31 31 31 29 30 31 41 55 58 65 64 64 63 65 65 67 66 65 64 64 63 64 65 63 63 62 65 63 61 58 57 56 61 65 66 66 66 64 66 65 63 57
37 32 31 36 35 34 34 33 36 32 33 30 31 38 55 60 63 63 63 63 64 65 66 66 66 65 64 63 62 62 62 61 61 61 61 60 58 59 57 59 61 61 63 59 62 64 60 59 56
38 36 35 36 40 39 37 36 35 35 32 35 40 40 45 58 61 63 62 63 63 64 65 66 66 67 65 63 63 60 60 60 60 60 61 60 59 60 58 55 58 59 58 58 59 59 59 59 55
40 37 37 35 39 38 39 37 33 36 37 39 40 41 40 46 58 61 62 62 63 63 64 66 66 66 65 64 63 60 59 60 59 60 60 59 59 59 61 60 58 57 58 58 59 59 57 58 54
40 40 38 37 36 38 37 37 38 36 37 37 38 38 39 40 42 56 61 62 63 63 64 65 66 66 66 65 64 62 60 60 59 59 60 60 59 59 61 62 62 58 58 58 58 58 56 55 51
40 38 38 37 37 36 37 34 35 35 35 33 34 35 37 39 40 40 45 55 61 63 64 65 65 65 67 66 65 64 62 60 60 59 59 60 61 62 62 61 62 62 57 57 58 58 55 51 48
39 37 35 35 36 37 34 24 29 33 33 31 30 30 32 35 37 38 40 41 43 52 60 64 65 66 66 67 66 65 64 62 61 60 59 60 60 61 61 61 61 61 61 58 57 57 53 50 45
36 29 30 32 36 33 34 26 28 31 33 32 33 33 33 34 35 35 37 39 40 40 43 53 61 64 66 67 67 67 65 64 63 61 60 60 60 60 61 60 60 61 61 60 58 56 54 51 46
30 29 30 28 35 34 31 29 34 35 35 34 32 32 33 34 34 34 36 37 38 39 40 40 50 60 64 66 67 67 66 65 64 64 62 61 60 60 61 59 59 60 61 61 60 55 53 52 49
26 30 28 31 31 35 33 32 32 33 33 32 31 30 30 31 33 35 36 37 39 39 40 40 41 49 58 65 65 65 64 65 65 66 65 64 62 61 61 60 59 59 60 61 60 56 52 48 47
31 30 28 31 33 30 30 30 31 31 32 31 30 30 30 31 30 30 29 31 33 36 38 41 40 42 48 58 64 64 64 65 65 66 65 65 64 63 62 61 60 59 59 60 60 57 52 50 44
32 27 27 28 29 29 28 28 29 25 24 25 25 27 28 29 28 29 30 30 34 36 36 38 40 41 43 51 57 62 63 66 65 65 65 65 64 65 63 63 63 62 59 59 60 57 53 49 43
35 33 32 29 29 26 27 19 24 21 25 27 30 32 33 33 32 33 35 34 35 35 37 37 38 39 40 45 53 58 59 60 61 63 64 65 64 64 64 64 63 63 62 60 60 57 54 53 45
37 33 31 31 29 28 26 24 21 22 25 28 32 35 36 36 36 36 38 38 39 42 41 39 36 37 39 40 48 56 58 58 60 62 62 63 64 64 63 63 63 62 61 60 59 57 54 54 51
36 30 28 28 28 28 24 23 17 17 21 28 32 34 37 38 38 38 39 41 42 44 43 43 39 36 36 40 43 51 55 57 60 61 61 62 63 63 63 62 62 62 61 60 59 58 55 53 53
35 35 30 28 27 22 23 23 18 22 23 29 32 35 38 40 40 40 40 40 42 44 45 42 40 38 38 39 39 42 50 56 58 59 60 61 61 62 61 61 61 61 60 60 59 57 56 54 53
32 30 26 19 19 15 24 19 18 22 23 28 30 32 37 40 41 42 42 42 41 43 44 45 45 42 39 40 39 40 44 47 55 59 59 59 60 61 60 60 60 60 59 58 57 57 56 55 54
29 31 24 25 21 20 17 21 21 24 25 27 29 32 37 40 41 42 42 42 41 42 44 45 43 44 45 46 45 43 43 44 47 52 57 58 59 60 60 59 59 58 56 55 54 54 53 52 50
30 27 26 31 21 16 13 14 17 24 26 28 30 31 35 41 41 41 40 42 43 44 43 41 41 42 45 46 46 46 48 49 50 50 51 52 54 56 55 57 56 54 53 52 52 50 50 45 41
28 29 26 24 22 16 9 6 19 24 27 26 28 30 36 40 40 39 40 41 44 41 40 39 39 41 43 44 46 47 48 48 49 50 50 50 51 51 52 52 51 50 49 48 46 41 38 36 35
29 27 24 28 24 24 23 13 20 26 25 26 26 30 37 41 37 40 42 43 40 38 38 37 38 39 41 43 46 47 47 48 48 48 48 48 48 48 48 48 47 45 43 39 34 31 28 28 28

GFSSGP_sfc_dewp_069.txt.gz
Dewpoint
60 57 50 45 36 32 30 29 27 27 28 28 30 30 28 32 29 40 60 62 60 65 69 71 75 75 75 75 75 74 74 73 72 71 70 69 68 68 67 67 66 66 68 68 67 67 66 64 64
55 53 47 41 33 29 27 28 29 27 29 30 31 31 31 31 42 57 60 64 61 65 67 68 75 75 75 75 74 74 73 72 72 71 70 69 69 69 69 67 65 65 66 69 68 68 65 64 64
58 51 42 37 34 28 28 27 28 28 30 30 31 33 35 37 52 56 62 62 61 65 66 70 75 75 75 75 74 74 73 72 71 70 70 68 68 69 66 64 63 64 67 68 69 68 64 64 64
53 47 43 36 32 32 29 27 27 26 29 30 31 31 37 52 53 59 63 62 63 64 65 73 75 75 75 75 74 74 73 72 71 70 68 66 66 65 63 63 66 69 70 69 69 66 64 65 65
48 43 38 35 34 32 30 29 28 26 28 29 29 30 35 56 60 62 62 62 62 63 69 70 75 75 75 74 74 73 72 72 70 69 66 64 64 64 64 67 69 69 69 69 67 65 64 65 65
45 42 35 34 33 33 31 31 29 27 28 28 28 29 40 59 61 62 62 62 63 63 69 69 73 74 74 74 74 72 71 71 71 69 66 64 64 64 65 67 69 69 69 68 67 66 64 64 65
40 38 36 31 30 31 32 33 31 29 27 29 28 27 42 56 62 63 63 64 63 64 68 69 69 71 73 72 72 71 70 71 70 69 69 66 66 65 65 65 68 68 68 67 66 65 64 64 65
39 37 35 32 29 29 32 32 34 30 27 28 29 26 32 58 64 64 63 63 63 64 65 67 67 67 67 67 70 70 70 70 69 69 68 67 65 65 66 66 67 67 67 66 65 64 64 64 64
38 33 31 32 30 29 30 32 34 33 30 28 29 27 47 59 64 65 65 62 64 65 63 65 66 65 65 64 66 69 69 69 68 67 66 64 59 59 62 64 66 67 66 65 64 64 65 66 65
38 33 29 31 31 30 32 32 33 30 29 27 26 32 48 55 63 63 64 62 64 66 63 62 62 62 61 60 65 64 65 66 66 65 63 61 56 55 54 61 65 67 66 66 65 66 66 65 58
39 31 31 26 33 32 32 31 29 29 27 26 27 28 44 50 58 62 63 63 63 65 65 64 62 61 60 61 61 61 61 61 60 62 63 59 56 57 56 59 61 63 64 61 63 64 61 58 56
36 35 32 32 36 36 32 30 27 30 28 29 30 37 43 52 54 60 62 62 63 64 65 66 63 62 61 61 60 59 59 60 58 59 60 59 57 57 54 56 57 59 59 57 58 59 57 57 56
38 34 34 35 38 36 35 33 28 31 34 35 39 40 38 45 54 58 61 62 61 63 64 65 65 64 62 61 61 59 58 58 58 58 59 59 58 57 56 54 55 57 56 56 57 57 57 57 55
41 38 36 36 35 37 37 33 34 33 34 35 36 37 38 38 42 56 60 61 61 62 62 65 66 65 65 62 63 61 59 58 58 57 59 58 57 57 58 59 57 56 56 56 56 57 56 56 55
40 38 38 36 35 35 36 34 34 35 34 33 34 33 34 36 39 41 54 59 61 62 63 64 65 65 66 64 64 63 62 60 59 58 58 58 58 58 58 60 62 61 56 55 56 56 56 54 53
39 37 33 37 35 35 34 28 29 34 33 32 30 29 31 32 35 38 41 46 53 59 61 62 63 65 66 66 65 64 63 62 60 59 58 58 58 59 60 60 60 61 61 56 56 56 56 54 52
37 33 30 29 34 34 34 27 25 30 31 29 28 27 27 28 29 32 36 40 43 44 50 58 63 64 65 66 66 65 64 63 62 61 60 59 59 59 60 60 59 58 61 59 57 56 56 54 52
31 30 27 26 32 32 32 31 29 30 30 30 29 28 29 29 29 30 31 35 37 41 42 43 50 59 64 65 67 68 67 65 64 63 61 60 60 59 60 60 59 59 60 61 59 58 56 55 53
26 26 24 26 33 32 30 28 29 29 33 31 29 28 28 28 29 31 33 35 37 38 39 40 41 44 54 59 65 66 66 67 66 65 63 63 61 61 61 61 60 60 59 61 60 59 56 55 54
28 23 24 27 29 32 29 28 28 31 31 31 30 27 26 26 27 31 32 33 34 36 38 40 40 41 43 52 62 64 64 64 65 67 66 65 64 63 61 61 61 60 60 59 60 59 58 54 53
36 26 24 25 30 31 27 26 28 29 30 29 29 29 29 30 29 29 29 31 34 35 36 38 40 41 42 45 51 63 63 64 65 65 65 64 65 65 64 63 62 62 61 60 60 60 59 54 52
32 28 25 26 28 21 28 14 23 25 25 25 26 28 30 31 31 32 34 34 36 37 38 39 39 40 41 43 44 50 58 59 61 62 63 63 64 65 65 65 63 63 63 61 60 60 60 55 52
36 34 30 30 27 27 27 24 23 23 24 25 29 32 34 34 34 36 38 39 40 43 43 41 38 38 38 40 43 47 52 57 58 58 59 61 64 65 64 64 64 64 64 63 62 61 60 56 54
33 32 32 31 30 30 25 23 20 21 23 27 30 33 35 36 36 37 40 41 43 45 44 44 40 36 37 39 41 44 50 54 57 57 58 59 61 64 63 63 63 63 63 62 62 61 61 58 57
36 35 31 30 28 23 24 23 19 21 24 28 30 33 37 39 39 39 40 40 42 44 46 44 42 39 39 39 39 40 45 51 55 56 57 57 60 62 63 63 63 62 62 62 61 61 59 58 57
36 36 33 24 22 20 22 22 20 22 24 30 33 35 38 39 40 41 42 43 42 43 45 45 44 44 43 42 41 40 42 43 46 52 55 57 57 59 62 62 62 61 61 61 60 60 59 58 57
35 33 27 23 21 19 17 19 22 23 24 29 30 33 38 40 41 42 42 43 43 44 44 43 42 43 45 45 45 44 42 43 44 47 51 54 56 58 59 61 60 60 60 60 59 57 56 56 55
33 31 27 33 21 17 14 15 17 20 24 27 30 32 36 40 41 40 40 41 43 43 42 42 41 42 44 45 46 46 47 48 49 49 49 50 51 52 54 54 57 57 55 55 55 54 53 52 46
30 29 27 26 24 18 11 9 21 23 26 29 30 31 35 39 40 40 41 42 42 41 40 39 40 41 42 44 46 47 47 47 48 49 49 49 49 50 50 50 51 52 52 51 49 45 43 40 39
29 28 26 29 25 25 25 15 22 25 27 27 29 31 36 40 39 41 43 41 40 39 39 38 38 39 41 43 45 45 45 46 46 45 46 46 47 47 47 48 48 47 46 43 41 40 37 37 36

GFSSGP_sfc_dewp_072.txt.gz
Dewpoint
58 54 54 51 42 38 33 31 29 28 29 29 29 29 30 31 46 49 59 61 68 69 72 74 75 75 75 75 75 75 74 74 74 72 71 70 69 68 68 67 67 69 68 67 67 67 65 65 64
57 53 53 48 38 31 29 30 31 30 31 30 29 30 31 34 55 59 60 63 66 69 70 72 75 75 75 75 75 74 74 73 72 71 71 70 69 69 69 68 67 67 68 69 68 66 65 64 64
57 56 51 42 37 31 30 30 30 30 30 31 31 33 32 47 54 59 63 62 66 67 67 72 75 75 75 75 74 74 74 73 72 71 70 69 70 69 67 64 64 67 69 69 69 65 65 64 65
55 55 48 40 34 35 32 29 28 28 30 30 32 31 45 55 57 61 63 61 64 65 70 74 75 75 75 74 74 74 73 72 71 70 69 68 67 66 64 65 68 69 70 70 68 65 65 65 65
53 54 45 39 36 34 33 31 28 29 29 28 30 31 50 57 61 62 61 62 63 68 71 73 75 75 75 75 74 73 73 72 71 69 65 64 65 64 67 68 69 70 70 69 66 65 66 66 65
50 48 43 40 37 35 34 32 29 27 26 29 29 29 53 59 61 61 61 62 65 69 70 72 73 74 74 74 73 73 71 71 70 66 65 64 64 65 66 68 70 70 70 68 66 65 66 66 65
47 44 40 40 37 35 34 34 29 27 27 28 29 27 54 59 62 62 61 62 67 68 69 70 72 73 73 73 73 71 71 70 70 69 68 67 67 67 66 69 70 69 68 68 67 66 65 65 65
44 41 40 40 36 33 33 33 33 31 28 28 28 27 53 61 63 62 62 62 66 68 69 68 69 70 70 70 71 70 70 69 69 69 67 66 65 65 67 66 69 69 68 68 67 65 65 65 65
43 38 36 36 34 33 31 32 34 34 32 29 29 34 56 63 64 64 62 62 63 66 67 67 66 67 68 67 68 69 69 68 68 67 66 64 62 62 63 63 67 68 67 66 65 65 66 66 65
41 35 34 35 34 33 32 31 33 33 32 30 28 46 55 63 63 63 63 62 64 65 65 66 66 65 65 64 66 66 68 67 66 65 63 62 59 58 59 64 65 67 67 66 66 66 66 65 61
42 38 35 34 34 36 33 32 33 33 32 30 28 34 47 59 61 62 62 63 64 64 65 65 64 63 62 64 64 64 65 66 66 65 63 62 58 57 60 63 63 64 64 63 65 66 64 61 59
38 39 38 34 38 36 34 33 31 30 30 31 30 34 48 49 57 62 62 62 63 64 65 65 65 61 60 61 61 62 62 61 61 63 63 61 58 57 56 59 60 62 62 61 61 62 61 59 57
42 38 36 36 36 37 35 34 30 28 31 35 40 40 40 48 51 58 62 62 63 64 65 65 66 63 60 60 60 59 59 60 60 60 61 60 58 57 54 56 58 59 60 58 59 59 58 57 56
42 41 37 34 35 37 37 36 35 30 32 35 38 38 38 39 44 57 60 61 61 63 64 65 66 66 64 61 61 60 58 58 59 59 60 59 59 58 58 56 56 57 57 56 58 58 57 57 56
40 40 40 36 35 36 38 36 34 33 35 34 35 35 36 38 39 41 59 60 61 62 63 65 66 66 65 65 64 63 61 59 59 59 58 59 59 58 58 59 59 58 56 56 56 57 57 56 55
39 39 38 37 36 35 35 32 35 35 35 34 33 33 33 33 34 38 41 53 60 61 62 63 65 65 65 65 65 64 63 61 60 59 59 59 58 58 58 59 61 61 61 56 56 56 56 55 54
39 35 35 34 37 35 34 32 30 32 34 33 32 31 29 31 32 35 38 40 43 50 60 62 64 64 65 65 66 67 64 63 62 61 60 59 58 58 60 60 60 61 60 59 56 56 56 55 52
31 33 32 30 35 34 34 33 29 29 30 31 30 29 28 27 28 29 32 34 37 43 44 47 60 64 65 66 66 67 67 66 64 63 61 60 59 59 59 60 60 59 60 60 59 56 57 54 53
36 32 28 29 29 34 33 33 32 30 32 32 31 29 28 29 30 31 31 32 35 39 41 42 43 48 60 65 65 65 66 65 66 65 63 62 61 59 59 60 60 59 59 60 59 58 56 55 53
35 30 29 28 32 32 31 31 30 31 30 32 32 30 29 28 28 29 32 34 34 36 38 40 41 43 45 53 65 65 65 65 65 64 66 66 64 62 60 60 60 60 59 59 60 59 58 55 54
33 32 32 26 31 30 28 27 28 29 29 30 32 31 30 30 30 30 30 32 35 34 36 39 40 41 42 44 52 64 64 63 63 64 65 65 65 65 63 61 61 61 60 60 60 60 59 56 53
32 34 34 28 28 26 29 21 25 28 30 31 29 27 28 30 32 33 35 36 38 41 41 40 39 40 40 43 44 52 62 61 63 64 64 63 64 64 64 64 63 62 61 60 60 60 60 58 54
36 40 33 33 28 26 27 24 24 27 26 26 25 29 33 33 34 37 38 40 42 44 43 42 39 38 38 39 41 44 45 53 60 60 62 62 63 63 63 64 62 63 63 62 62 60 60 60 57
40 37 38 34 31 28 26 24 21 22 23 24 29 33 34 34 36 39 40 43 45 46 45 43 40 38 37 38 40 41 43 46 53 57 56 57 59 63 63 63 63 63 62 62 62 62 60 59 58
37 34 30 28 27 22 26 25 23 23 25 28 31 34 37 38 38 39 40 41 43 45 46 45 45 42 41 40 39 39 41 45 49 53 56 57 58 59 61 62 62 62 62 62 62 61 60 60 58
34 36 31 22 21 20 23 22 20 24 27 30 33 37 39 39 41 42 43 42 42 44 45 43 43 44 45 46 45 43 41 44 45 46 50 55 56 57 60 60 61 61 61 61 61 60 59 59 58
36 33 35 27 22 21 21 21 22 23 29 32 33 35 39 40 41 41 41 43 43 44 43 42 42 44 45 45 46 46 47 47 48 48 47 50 54 55 56 56 58 59 59 59 59 58 57 57 56
37 35 29 32 23 19 17 18 19 21 26 30 31 34 39 40 41 40 41 42 43 42 41 40 41 42 43 45 46 47 47 48 48 49 49 49 49 50 51 52 53 54 54 55 55 54 53 50 47
35 34 29 27 25 22 15 14 21 22 25 27 31 33 37 40 39 40 42 43 41 40 39 39 39 41 42 44 46 46 47 47 48 47 47 47 48 48 48 49 49 50 50 50 47 45 44 42 41
30 31 29 25 22 26 25 16 22 24 27 30 31 32 38 40 39 42 42 40 39 38 37 36 38 39 41 43 43 42 42 41 39 38 39 41 40 38 38 40 40 39 38 40 41 39 39 38 37

GFSSGP_sfc_dewp_075.txt.gz
Dewpoint
60 55 53 50 39 37 34 34 31 27 27 29 30 29 30 35 50 46 61 68 71 72 73 74 75 75 75 75 75 75 74 74 74 72 72 71 70 69 68 69 69 69 68 67 67 66 65 64 63
58 55 52 47 38 33 31 31 31 29 29 29 29 30 34 53 58 58 64 70 71 72 73 74 75 75 75 75 75 75 74 74 73 72 71 70 69 69 69 68 68 69 69 68 67 66 65 64 63
58 56 51 43 39 34 31 31 29 30 29 30 30 32 38 51 58 59 64 69 71 71 72 74 75 75 75 75 74 74 74 73 73 72 71 71 70 68 66 65 67 69 70 69 66 66 65 65 63
54 52 48 43 40 37 35 34 30 30 29 30 31 32 54 57 59 63 64 69 69 70 72 74 75 75 75 74 74 74 73 73 72 71 70 69 68 65 65 67 68 70 70 69 66 66 66 66 65
55 52 44 42 39 38 38 36 34 28 28 28 30 36 54 60 62 62 63 67 67 70 73 74 75 75 75 74 74 73 73 72 70 69 66 66 66 67 66 67 70 71 70 68 67 66 66 66 65
50 50 41 36 38 38 39 39 29 26 29 29 28 44 55 61 61 61 63 67 69 71 72 73 73 74 74 74 73 73 72 70 70 68 65 66 65 66 68 68 70 71 69 67 66 67 66 66 65
48 46 40 38 38 38 40 40 28 27 27 28 27 43 56 60 61 62 67 69 69 71 72 73 73 73 73 73 73 72 71 70 69 68 67 67 68 68 68 69 70 70 69 68 67 66 66 65 65
48 47 41 40 38 40 41 40 36 28 27 30 28 45 56 61 62 63 68 68 69 69 71 71 72 72 72 71 71 70 70 69 69 68 67 66 66 67 68 69 69 70 69 68 68 66 65 65 65
50 42 40 41 39 39 41 40 39 33 30 31 32 55 61 64 64 63 66 67 68 68 68 70 70 70 69 69 68 69 69 68 68 67 65 64 62 64 63 65 68 69 69 68 66 66 66 66 65
44 40 38 39 39 38 38 41 42 42 32 30 50 62 63 63 63 63 62 63 66 67 67 67 68 68 67 67 67 67 66 67 66 65 63 62 61 61 62 63 67 68 67 67 66 66 67 65 62
44 37 38 37 37 37 38 43 38 39 32 31 45 60 62 62 62 62 63 63 64 65 66 66 65 67 66 65 66 66 67 66 65 64 62 62 60 58 62 63 64 64 63 64 65 66 64 62 60
40 41 40 39 37 38 34 34 36 39 30 37 34 48 60 61 62 61 62 63 63 64 65 65 65 64 63 65 64 65 66 66 66 64 62 62 57 58 61 62 62 62 63 62 62 63 62 61 60
43 41 40 39 40 38 37 33 31 29 31 39 39 44 50 56 61 62 62 63 63 64 64 65 65 64 62 64 63 63 64 64 64 64 63 62 57 56 58 59 61 62 62 61 61 61 61 60 58
42 42 42 39 40 38 37 34 35 31 31 36 38 37 38 44 55 61 62 62 63 63 64 65 65 65 62 60 60 59 60 62 60 63 63 61 57 56 55 57 58 60 60 60 59 59 59 58 57
41 41 43 41 37 37 37 35 35 35 35 35 34 36 37 38 45 58 60 61 62 63 64 64 65 66 65 65 63 61 59 59 59 59 60 60 58 58 57 56 56 58 58 57 58 58 57 57 56
38 39 38 40 36 36 36 33 36 36 34 34 35 34 34 34 38 40 57 60 61 62 64 65 65 65 65 65 65 65 62 59 59 58 59 59 59 58 58 59 58 57 57 56 56 56 56 55 55
37 36 35 36 38 35 33 32 33 36 34 34 34 33 32 32 33 37 38 51 59 61 63 65 65 65 65 65 65 66 66 61 60 59 58 58 58 58 58 59 60 60 60 58 56 56 56 55 53
30 33 35 34 36 36 34 33 33 30 32 34 33 32 31 31 30 33 35 38 39 51 61 63 65 65 65 65 65 65 66 67 64 62 59 58 58 58 58 59 60 61 60 60 57 55 56 55 53
33 34 33 34 34 34 33 33 34 33 31 31 31 30 30 30 29 29 31 33 34 35 41 46 56 65 65 65 63 63 64 64 65 65 64 61 59 58 58 59 60 59 60 60 59 56 55 55 53
35 32 31 30 33 35 33 33 34 34 32 31 32 32 31 30 30 30 32 33 34 34 37 39 40 44 60 65 65 64 64 64 64 64 65 66 65 61 59 59 59 60 59 60 59 58 56 56 53
36 33 32 30 31 32 30 29 32 33 32 32 32 33 31 29 30 30 33 35 36 38 38 38 39 40 41 46 64 63 64 62 62 63 64 64 65 64 63 61 60 60 60 59 60 59 58 56 55
34 34 35 34 30 30 28 23 25 29 31 29 31 31 29 29 31 35 37 38 40 42 42 40 39 38 38 39 45 62 62 62 62 62 63 63 63 63 63 63 62 60 60 59 59 60 60 57 55
34 40 38 36 35 27 28 23 22 26 28 29 30 27 28 31 35 37 38 41 43 43 43 42 38 37 37 37 39 42 47 53 60 62 62 63 62 63 63 63 62 62 61 60 59 59 59 59 57
38 37 37 36 35 29 27 24 20 25 27 27 26 30 33 35 38 39 41 44 45 46 45 45 39 40 40 38 37 39 40 42 45 53 58 60 61 61 62 62 63 62 61 62 62 62 60 60 60
37 34 29 27 28 21 27 24 21 24 26 26 30 33 34 35 38 39 41 43 44 45 44 44 45 45 45 45 44 41 39 41 45 48 53 56 57 57 60 61 61 61 60 62 61 61 60 60 60
35 34 30 24 20 22 25 24 24 23 26 32 34 36 37 39 40 42 42 42 43 44 43 42 44 44 45 45 46 47 47 45 46 46 48 53 55 57 58 58 59 60 61 61 60 60 59 59 59
36 33 36 28 24 21 22 21 21 26 32 34 36 38 39 41 42 42 42 43 43 42 41 41 42 43 44 46 46 47 47 48 48 49 50 50 51 53 53 55 57 57 58 57 57 57 57 57 55
38 35 31 29 23 19 19 19 20 22 30 33 35 37 40 41 40 40 42 42 41 40 40 40 41 42 43 46 47 47 47 48 48 47 47 48 48 49 50 50 50 50 50 52 53 52 51 50 47
35 35 34 31 30 22 15 15 20 22 30 30 32 37 40 41 40 41 42 41 40 39 38 38 40 41 42 44 43 42 40 39 39 40 42 42 40 41 44 46 46 46 45 46 45 44 43 42 41
36 35 31 24 24 25 22 19 22 23 29 29 31 36 40 39 40 42 40 39 38 37 36 36 37 39 41 41 39 38 37 35 34 33 32 32 32 32 33 35 35 33 35 36 39 39 39 39 38

GFSSGP_sfc_dewp_078.txt.gz
Dewpoint
60 57 54 47 36 37 35 34 32 30 28 29 30 30 35 44 46 40 62 68 71 73 74 74 76 75 75 75 75 75 74 74 74 72 72 71 71 70 70 70 69 68 67 67 66 65 64 63 63
59 56 51 45 37 34 33 34 32 33 30 29 30 31 45 55 58 65 66 70 72 72 73 74 75 75 75 75 75 75 74 74 74 72 71 70 69 69 68 69 69 69 68 67 66 64 64 63 64
60 56 49 42 39 34 33 32 30 31 30 29 30 33 48 54 59 63 69 71 72 72 73 74 75 75 75 75 75 74 74 74 73 72 72 71 70 68 67 67 69 70 69 67 66 65 64 63 64
54 50 46 42 39 39 36 35 36 34 29 31 31 48 56 58 59 66 70 71 71 72 73 74 75 75 75 74 74 74 74 73 72 72 72 70 68 66 66 66 70 71 69 67 66 66 65 64 64
54 51 41 38 38 40 40 40 39 35 30 29 31 47 55 61 63 69 70 70 70 72 73 74 75 75 74 74 74 73 72 72 71 70 69 68 66 65 66 68 70 70 69 68 66 66 65 65 64
48 48 40 36 35 35 37 39 39 37 30 28 37 53 55 61 62 68 69 68 71 71 73 73 73 74 74 74 73 73 71 70 69 67 66 66 66 67 66 69 70 70 68 67 67 67 65 65 64
46 43 38 36 35 35 35 41 40 36 27 28 32 52 57 60 61 66 67 69 70 71 72 73 73 73 73 73 72 72 71 70 69 68 67 67 68 68 67 69 71 70 69 69 68 67 66 65 64
48 44 39 39 35 35 36 41 41 40 34 30 51 54 56 60 64 69 69 69 70 71 72 72 72 73 72 71 71 71 69 69 68 68 68 67 66 68 68 69 70 70 69 68 68 67 66 65 64
48 40 39 39 37 38 39 38 40 44 41 32 44 57 60 63 67 67 68 69 69 70 71 71 71 71 71 70 69 69 69 68 67 67 65 64 64 65 66 67 68 69 69 68 67 67 67 67 65
48 39 39 41 40 39 43 45 47 42 41 40 57 62 63 63 65 66 66 66 67 67 69 70 70 70 69 68 67 66 66 66 65 64 63 62 62 63 62 66 67 69 68 68 67 67 67 65 62
45 40 40 39 41 38 46 46 45 42 41 39 55 60 62 63 63 63 65 66 66 67 68 68 69 69 67 67 66 66 66 65 65 63 62 61 60 61 61 62 65 65 64 64 65 65 64 61 59
42 42 40 41 41 43 44 42 45 44 42 39 42 61 61 61 62 62 63 65 65 66 66 66 67 68 66 66 66 66 66 65 65 63 62 61 59 58 60 61 62 62 62 62 62 63 62 61 60
42 43 41 41 40 39 42 40 37 42 41 38 39 59 60 60 61 62 63 63 64 64 65 65 65 65 65 65 65 65 65 66 65 64 62 62 58 57 60 61 61 61 61 61 61 61 61 60 59
42 43 42 40 40 38 36 37 35 40 45 35 39 48 58 60 61 61 62 62 63 64 64 65 65 64 64 64 63 64 64 65 65 65 64 62 58 57 59 59 60 61 61 61 60 60 60 59 59
41 40 41 42 39 38 37 36 35 33 35 34 35 39 39 49 59 61 62 62 63 63 64 65 65 65 62 62 62 62 62 63 62 65 64 62 58 56 57 58 58 60 60 61 60 59 59 59 58
38 40 35 38 38 37 36 32 36 36 35 33 34 34 34 37 57 60 62 62 62 63 63 64 65 65 64 64 64 63 60 61 60 61 63 61 59 57 56 56 57 58 58 59 58 58 57 57 57
37 31 34 37 38 35 35 33 34 36 35 33 33 34 33 32 34 39 58 61 61 62 63 64 64 65 65 65 65 65 65 60 59 59 59 60 59 58 57 58 57 57 57 57 56 56 56 56 55
32 32 33 33 36 36 33 33 33 33 34 34 34 34 34 33 32 32 37 54 59 61 63 64 65 65 64 65 65 65 65 66 62 60 58 58 59 58 58 58 59 59 58 58 56 55 56 56 55
33 33 33 34 35 36 34 33 33 34 32 31 33 34 33 32 31 31 32 36 39 46 60 63 64 65 64 64 63 63 63 64 64 63 61 59 58 58 58 58 59 60 60 58 59 56 55 55 54
33 33 32 32 35 36 34 33 34 34 33 31 31 32 32 30 29 31 33 34 35 37 40 45 49 60 64 64 64 64 63 63 64 64 64 63 61 59 58 58 59 59 59 59 59 58 56 55 53
35 32 31 30 31 34 34 33 33 34 35 33 32 32 32 31 30 32 33 35 37 37 37 38 39 40 46 60 64 63 63 62 62 62 63 64 64 63 61 59 59 60 60 59 59 59 57 57 55
33 37 35 35 31 28 31 27 29 33 33 34 32 32 32 30 31 34 36 38 40 41 41 39 38 38 38 40 55 62 63 62 61 61 62 62 63 63 63 63 61 60 60 59 59 59 59 56 55
34 38 35 37 34 28 27 26 25 25 30 32 33 32 31 29 34 36 38 41 42 43 42 42 37 37 37 37 40 53 57 59 59 60 61 61 61 62 62 62 62 61 60 59 59 60 59 59 59
39 38 37 38 37 29 28 27 24 22 24 28 32 31 29 33 37 39 42 44 45 45 45 42 44 45 44 40 38 39 40 41 43 47 55 60 61 61 61 61 61 61 61 61 60 59 60 60 60
36 34 27 27 28 22 27 26 26 23 25 27 29 30 34 37 38 41 43 44 45 44 43 44 45 45 45 46 46 43 40 41 43 46 51 54 56 57 61 60 60 59 59 60 61 61 60 59 59
35 30 21 16 21 21 27 24 25 24 25 27 29 33 35 37 38 40 42 43 44 43 42 44 44 44 45 46 46 47 48 48 48 47 50 53 55 57 57 58 58 59 61 61 60 59 59 58 58
36 33 35 24 22 18 23 24 22 29 32 33 35 36 37 39 41 42 42 43 42 41 41 42 43 43 45 46 47 47 47 48 47 47 48 49 50 52 53 54 54 54 55 56 56 54 53 54 52
37 36 31 31 24 18 20 20 22 27 31 34 36 38 40 41 41 42 43 41 40 40 40 41 42 43 44 45 45 45 45 45 45 45 45 45 45 48 49 49 48 48 48 49 49 46 48 47 45
36 34 34 30 26 19 16 18 21 25 32 34 37 39 40 40 40 41 42 40 39 38 38 40 40 42 43 41 39 37 36 35 35 36 36 36 36 39 42 42 41 41 43 45 45 44 44 43 42
35 33 32 21 25 20 19 20 22 23 31 34 35 40 40 40 40 42 40 39 37 36 36 37 39 40 40 38 37 36 35 34 33 32 32 32 32 32 32 32 32 33 35 37 39 39 39 39 38

GFSSGP_sfc_dewp_081.txt.gz
Dewpoint
62 58 54 46 36 37 34 33 34 32 27 29 29 30 31 44 45 43 62 68 70 72 73 74 75 75 75 75 75 74 74 74 73 72 72 71 71 71 69 69 68 67 67 66 64 63 63 63 64
60 56 50 44 32 32 30 35 33 33 33 29 33 41 51 53 58 65 66 70 71 72 73 74 75 75 75 75 75 74 74 73 73 72 71 70 70 70 70 70 68 68 67 66 64 63 63 64 65
59 56 47 39 37 31 31 33 33 36 35 29 30 43 51 55 63 65 67 71 71 72 73 74 75 75 75 75 75 74 74 74 73 72 71 70 70 68 68 70 70 68 67 66 64 63 64 65 66
54 52 46 41 36 37 35 35 39 39 36 31 35 51 56 59 62 65 70 71 71 72 72 74 75 75 75 75 74 74 74 73 73 72 72 70 68 67 67 69 71 70 69 66 65 64 64 65 65
53 49 43 40 37 39 40 40 39 38 38 35 32 49 54 61 67 70 71 71 70 72 73 73 75 75 75 74 74 74 74 73 72 71 70 68 67 66 66 69 70 69 68 66 66 65 65 65 65
47 47 40 36 36 37 37 39 39 39 38 36 40 51 54 61 68 69 70 70 70 70 73 73 73 74 74 74 74 73 72 70 69 68 68 67 66 65 67 68 70 69 68 67 66 65 64 64 64
44 42 37 37 35 35 35 40 39 40 40 38 33 50 56 60 67 69 69 70 70 71 72 73 73 73 73 73 72 72 70 69 69 68 67 67 68 68 68 69 70 69 69 68 67 66 64 64 63
48 43 38 37 36 35 37 39 41 40 40 39 43 52 56 60 66 67 69 70 70 71 71 72 72 72 72 71 71 71 69 69 68 68 67 67 67 68 68 69 70 70 69 69 68 67 65 64 64
48 41 38 38 36 36 39 38 39 45 42 42 40 55 59 65 68 67 68 69 68 70 69 71 71 71 71 70 69 69 68 68 67 67 66 65 64 65 65 67 69 69 69 68 67 66 67 67 66
46 41 40 40 39 38 44 42 40 42 42 41 41 60 64 67 66 66 65 67 67 68 68 69 71 70 70 69 68 67 66 65 65 64 63 62 63 63 65 66 68 69 68 68 67 66 67 65 61
46 39 40 41 42 45 45 45 47 44 42 42 41 47 62 64 65 65 65 65 67 68 67 68 70 70 69 68 67 66 65 65 64 63 62 61 61 62 62 64 65 65 65 65 66 65 63 60 59
41 43 41 41 45 44 42 42 45 46 44 45 44 43 55 61 63 65 64 66 66 66 67 69 69 68 67 66 66 65 65 64 63 63 62 61 59 60 60 61 62 63 63 62 62 62 62 60 59
43 43 43 41 43 43 42 41 41 44 45 47 46 41 56 60 61 62 64 65 65 65 66 67 67 67 66 65 65 65 65 65 64 63 62 61 59 58 60 60 61 61 61 61 60 61 61 59 59
43 42 42 41 40 40 39 39 40 40 49 48 48 39 57 60 60 60 62 63 64 65 65 66 65 66 65 65 65 65 65 65 65 64 62 62 59 57 59 60 60 60 60 60 60 60 60 59 58
42 41 43 41 39 38 37 36 36 40 51 48 47 38 46 58 61 61 62 63 64 64 65 65 65 64 65 64 64 64 64 65 65 65 64 62 59 58 58 59 59 60 60 60 60 59 58 58 58
37 39 37 39 40 39 35 32 36 45 48 48 47 42 37 44 57 60 62 62 63 63 64 65 65 65 63 64 63 63 63 63 64 64 64 63 60 57 57 58 58 59 59 60 59 58 58 57 57
36 30 34 35 39 36 35 32 35 38 42 41 40 40 34 34 37 49 60 62 62 63 63 63 64 65 63 63 63 63 62 61 61 61 63 63 61 58 56 56 57 57 58 58 58 57 57 56 56
29 30 31 31 37 36 35 33 34 37 37 36 35 34 34 34 33 33 44 56 60 62 63 63 64 65 64 64 64 64 65 62 60 60 60 61 61 59 57 57 57 56 57 57 56 56 56 56 56
34 32 32 34 36 36 34 34 34 34 33 34 35 39 34 34 34 32 32 37 50 57 61 63 63 64 64 63 62 62 62 63 63 61 60 59 60 60 58 58 58 59 57 56 57 55 55 55 54
33 32 32 33 35 35 35 35 34 34 34 33 31 33 33 34 31 31 32 33 38 38 53 60 62 63 64 63 63 63 63 63 64 64 62 61 59 59 58 58 58 58 59 59 58 57 56 55 54
33 31 32 30 32 34 32 32 34 35 35 35 33 32 32 33 30 32 33 34 36 36 38 43 47 51 62 63 63 62 62 62 62 62 63 64 63 61 60 59 59 59 59 59 59 58 57 57 54
33 34 33 33 30 27 32 25 29 33 34 34 35 34 33 32 30 32 35 37 39 40 40 39 38 38 39 48 61 62 63 61 61 61 62 62 63 63 63 61 59 59 59 59 58 59 59 58 58
35 38 36 36 31 26 26 26 28 26 30 32 34 34 33 32 31 33 36 40 41 42 42 39 37 38 37 37 42 57 60 60 60 60 60 61 61 62 63 63 61 61 59 58 58 58 59 59 59
40 37 38 37 34 27 27 28 27 25 25 29 32 34 33 31 34 36 41 43 44 44 42 44 45 45 44 40 38 41 52 53 52 50 54 57 59 60 61 61 61 61 60 60 59 58 58 59 59
38 34 28 27 27 23 27 27 28 28 24 26 26 31 31 32 36 40 43 44 44 43 44 45 45 45 46 46 46 44 40 40 41 43 46 50 54 56 58 59 59 59 59 59 59 60 59 58 59
33 30 21 16 22 23 27 25 26 28 28 27 26 30 33 36 39 42 43 44 43 42 44 44 44 45 45 46 46 47 48 48 48 48 50 52 54 56 55 57 58 58 58 58 58 59 58 58 57
36 28 32 23 20 17 23 25 24 25 28 29 31 34 36 38 40 42 43 44 42 41 42 42 43 44 46 46 46 46 46 47 47 47 48 49 50 52 53 54 54 54 54 55 56 54 53 51 50
34 36 28 31 13 16 19 20 22 24 27 32 33 34 36 40 41 42 43 41 41 40 41 42 43 44 44 43 43 42 42 43 43 43 43 43 45 48 48 48 48 48 48 48 48 48 49 46 45
35 34 33 29 25 18 16 17 22 22 28 32 34 38 39 41 41 42 41 40 39 39 40 40 42 43 40 39 37 36 35 34 34 34 34 35 36 39 39 39 40 41 44 45 44 44 44 43 42
34 33 32 21 26 24 16 19 24 23 27 35 37 40 41 40 41 42 40 38 37 37 37 38 40 40 38 37 36 35 34 33 33 32 32 32 32 33 33 33 34 35 37 38 40 39 40 40 39

GFSSGP_sfc_dewp_084.txt.gz
Dewpoint
62 58 53 45 34 35 30 30 38 33 29 30 29 30 30 43 46 43 62 67 70 71 73 74 75 75 75 75 75 74 74 74 73 71 71 71 70 69 69 68 67 67 66 65 64 63 64 65 65
60 56 49 43 31 29 28 35 33 33 35 35 32 41 50 50 59 64 66 69 71 72 73 74 75 75 75 75 74 74 74 73 73 72 71 71 71 69 69 68 67 67 66 64 63 64 65 65 65
59 56 45 38 32 29 27 33 33 38 38 31 30 47 51 54 62 64 66 70 72 72 73 74 75 75 75 75 74 74 74 73 73 72 71 70 70 70 70 69 68 67 66 64 63 65 66 66 66
54 53 46 38 34 35 32 34 39 38 38 36 35 43 55 60 63 65 70 70 71 72 72 74 75 75 75 75 74 74 74 73 72 72 71 70 69 68 69 70 70 69 67 65 64 65 66 66 66
52 50 43 38 37 37 39 39 39 38 39 38 35 40 54 61 66 70 70 70 70 71 72 73 74 75 75 74 74 74 74 73 72 71 70 69 67 67 68 70 70 68 67 66 64 65 65 65 65
49 47 40 37 39 40 38 40 39 38 39 39 37 51 54 65 66 68 69 69 69 71 72 73 73 74 74 74 74 74 73 72 72 70 69 67 67 66 67 70 69 68 67 67 65 65 65 65 65
44 43 36 36 37 38 38 39 37 39 39 39 37 48 55 63 67 68 68 68 68 70 71 72 73 73 73 73 73 72 71 70 70 69 69 68 68 67 67 69 70 68 68 67 66 65 65 65 64
46 42 37 36 37 35 37 39 41 39 40 42 42 43 45 58 68 68 68 68 69 70 70 71 72 72 71 71 71 70 69 69 69 68 67 67 67 67 69 69 70 70 69 69 68 66 65 65 64
48 43 38 38 36 37 38 36 40 44 42 42 42 50 55 62 67 67 68 68 68 68 68 70 71 70 70 70 69 69 68 67 67 67 66 65 65 65 66 67 69 69 69 68 67 67 66 65 65
47 42 39 40 38 37 39 39 39 40 42 42 42 44 59 66 66 64 65 66 66 66 68 69 70 70 70 69 68 66 66 65 65 64 63 62 63 63 65 65 68 69 68 68 67 66 66 63 60
46 39 40 40 40 43 43 44 46 42 41 42 40 44 47 58 62 63 64 66 65 65 66 68 69 69 69 68 67 66 65 64 64 63 62 61 62 62 63 64 65 65 65 64 65 64 63 60 58
43 44 41 40 44 44 42 44 45 44 38 45 45 46 45 47 56 62 64 64 64 67 65 68 69 69 68 67 67 65 64 63 63 62 62 60 60 60 60 62 63 63 63 62 62 62 61 60 58
42 43 43 42 44 43 41 41 41 44 45 47 47 48 45 45 53 62 64 64 65 66 66 67 69 68 66 65 65 65 64 64 63 62 62 60 59 59 59 60 61 61 61 61 60 60 60 59 58
41 42 42 43 41 42 39 40 40 40 47 47 47 47 47 45 59 61 63 64 64 65 66 67 67 67 66 65 65 65 65 64 63 62 62 61 59 57 59 59 59 60 60 60 59 59 59 59 57
42 38 40 42 40 38 37 36 39 42 49 46 46 46 47 45 57 61 63 64 64 65 65 66 66 66 65 65 64 64 65 65 64 63 62 62 60 57 58 59 59 60 60 60 59 58 58 58 58
39 39 33 40 40 39 36 33 37 46 47 47 43 46 46 45 45 60 62 63 64 65 65 65 66 65 65 65 64 64 64 64 64 64 64 62 61 59 58 58 59 59 59 59 59 58 57 57 56
36 34 34 35 40 38 35 33 34 47 46 46 44 46 46 40 37 50 60 63 63 64 64 64 65 64 64 65 64 63 63 63 64 63 64 63 62 60 58 58 58 58 58 58 58 57 57 56 56
31 33 32 32 38 36 35 33 34 45 44 45 47 47 45 36 35 41 49 60 62 63 63 64 64 65 63 63 63 63 63 62 62 62 62 64 63 61 58 57 57 57 57 56 56 56 56 56 56
31 33 32 34 36 35 34 34 34 37 44 44 47 48 45 37 35 35 34 44 58 60 62 63 63 64 64 63 62 62 63 63 61 60 61 61 62 61 59 58 57 56 56 56 56 55 55 54 54
29 31 32 34 36 35 35 34 35 34 36 37 42 44 41 38 36 33 31 31 39 53 58 60 62 63 64 64 63 63 62 63 63 63 61 61 60 60 60 59 58 58 57 57 56 56 54 54 54
30 29 31 30 34 33 32 32 34 36 35 34 34 38 39 38 37 32 32 33 34 38 44 55 60 62 63 63 63 62 62 61 61 62 62 62 61 60 59 59 59 58 59 58 58 57 56 55 54
31 31 32 31 30 29 31 25 28 34 35 35 35 33 33 36 33 31 33 35 36 37 38 39 41 43 48 61 62 61 61 61 61 61 62 62 62 62 61 60 59 59 59 58 58 58 58 58 58
34 34 34 32 30 27 26 26 28 28 32 34 34 35 35 34 32 31 34 37 40 41 40 38 38 38 37 38 47 59 60 61 60 60 60 60 61 62 62 62 61 59 58 58 58 57 57 58 57
39 37 36 35 31 23 26 27 25 27 26 27 32 33 35 35 33 32 37 42 43 42 42 44 44 45 44 40 39 40 50 56 56 56 56 58 59 60 60 61 61 61 60 59 58 58 57 57 57
39 32 29 27 27 21 26 26 28 29 26 26 27 31 34 34 32 35 41 43 43 43 44 44 45 45 46 46 46 44 41 40 42 45 46 47 51 55 57 59 59 59 59 59 59 58 58 57 58
36 30 20 15 19 22 27 24 26 30 30 30 27 27 29 32 34 37 42 43 42 43 44 44 45 45 46 46 46 47 47 47 47 47 49 51 53 54 56 56 57 58 58 58 58 58 58 58 56
35 31 28 22 18 18 23 24 25 26 26 27 28 29 31 34 38 41 43 43 42 43 43 43 44 45 45 45 46 45 46 46 46 46 47 48 48 52 52 53 54 54 55 57 56 55 52 51 50
35 35 26 27 14 16 18 17 21 23 24 27 30 32 35 38 41 42 43 41 41 41 42 43 43 43 42 42 42 40 40 41 41 40 40 42 44 46 47 47 48 49 49 49 50 49 48 46 46
34 31 31 28 23 17 15 18 22 23 22 24 30 34 37 40 41 42 41 40 40 40 41 42 43 41 39 38 36 35 34 34 34 34 34 35 36 37 38 39 41 43 45 45 45 45 45 44 43
34 32 31 22 23 22 16 21 25 24 24 27 33 37 39 40 41 41 40 38 38 39 39 40 41 39 38 36 35 34 34 33 33 33 33 33 33 34 34 35 37 38 38 40 41 40 41 41 40

GFSSGP_sfc_dewp_087.txt.gz
Dewpoint
62 58 53 48 37 35 29 30 36 33 30 31 34 29 30 39 46 44 64 68 68 70 72 73 74 75 75 75 75 74 74 73 73 72 70 70 69 69 68 67 67 66 65 65 65 66 66 66 66
61 55 49 43 32 28 28 33 34 34 36 38 32 44 49 46 61 62 66 68 69 71 72 72 74 75 75 75 74 74 74 73 73 72 71 71 69 69 68 68 67 66 64 64 65 65 65 65 65
59 56 47 40 32 27 27 33 34 37 38 35 35 43 51 53 63 63 66 69 70 71 72 73 74 74 75 74 74 74 74 74 73 73 72 71 70 70 69 68 68 66 64 65 66 67 67 67 67
55 54 47 38 31 32 30 35 39 38 39 39 37 39 56 62 63 65 69 69 71 71 72 74 74 75 75 74 74 74 74 73 72 72 71 70 69 70 70 69 68 68 66 65 66 67 67 67 68
52 51 44 40 36 35 37 38 39 38 38 39 38 43 55 63 68 69 69 69 69 71 72 73 75 75 75 74 74 74 74 73 71 71 70 69 68 69 71 70 69 68 66 65 66 66 66 66 68
50 49 41 38 37 39 38 40 39 38 39 38 39 41 56 66 66 69 70 70 69 70 72 72 73 74 74 74 74 74 73 73 72 72 69 68 67 68 70 70 69 68 66 65 66 66 66 66 67
47 45 40 37 37 39 40 40 37 38 38 40 40 48 51 63 67 69 69 69 69 71 71 72 72 72 73 73 73 73 72 72 71 70 69 68 68 68 69 70 70 68 68 67 66 65 65 65 65
47 45 39 39 37 38 40 39 39 38 39 42 42 41 43 59 68 69 68 66 68 71 70 71 72 71 71 72 71 71 70 70 69 69 68 67 67 67 68 70 70 70 69 68 67 65 65 65 64
48 43 39 38 38 38 38 38 41 43 42 42 45 53 55 64 68 68 67 68 68 68 69 70 71 71 71 71 69 69 68 68 67 67 66 65 66 66 66 67 69 69 70 68 68 67 66 65 65
47 41 39 40 39 39 38 38 42 41 41 41 42 46 50 61 66 66 66 66 67 67 67 69 70 70 70 69 68 66 65 64 63 64 64 64 66 65 66 65 68 69 69 68 67 67 66 62 61
45 39 40 40 40 40 40 43 43 41 40 41 40 45 48 51 57 62 64 66 66 66 67 68 69 70 69 69 67 65 64 64 64 63 63 63 64 65 65 66 68 68 65 66 66 66 64 62 59
42 43 41 41 43 43 42 44 43 42 40 43 45 46 46 46 50 55 62 65 65 65 67 68 68 70 69 68 67 65 64 64 63 63 62 62 63 64 65 66 67 67 66 65 65 65 64 63 60
43 42 42 41 44 43 43 42 41 43 45 47 47 48 47 46 48 55 60 65 65 65 65 67 69 70 69 68 67 65 64 63 63 63 62 60 62 62 63 64 65 65 65 64 64 64 63 63 61
42 42 42 42 41 43 40 40 41 41 43 46 46 46 48 47 47 53 62 64 65 66 65 66 68 68 68 67 66 65 64 64 63 63 63 61 59 61 62 62 63 64 64 64 63 62 62 62 61
42 38 41 42 42 39 38 38 39 40 47 45 46 46 47 47 47 45 59 64 64 65 66 66 67 68 68 67 66 66 65 64 64 63 63 62 61 59 59 61 61 61 62 63 63 62 61 61 60
40 38 36 38 41 40 38 36 37 40 45 42 45 45 46 46 45 45 56 63 65 65 66 67 67 68 68 67 66 66 65 65 64 64 63 63 62 61 59 58 59 60 61 61 61 61 60 60 59
37 33 33 36 41 38 36 35 36 41 45 41 44 43 45 45 44 40 51 62 64 65 65 66 67 67 67 67 66 66 65 65 65 65 64 64 63 62 61 59 59 59 60 60 60 60 60 59 58
29 31 33 33 39 37 35 33 34 42 44 41 45 45 45 45 45 40 43 59 63 64 65 66 66 66 66 66 66 65 65 65 65 65 65 65 64 63 62 61 60 59 59 59 59 59 59 58 58
31 33 32 33 37 36 35 35 35 41 44 43 45 47 45 45 46 39 37 46 60 62 63 65 65 65 64 64 64 64 64 65 64 63 64 64 64 64 62 61 60 59 59 58 58 58 57 57 57
31 32 32 34 36 37 35 34 36 36 43 44 44 45 44 44 44 39 38 34 37 57 61 63 64 65 65 65 64 64 64 65 66 65 63 63 63 64 63 62 61 60 58 58 57 57 57 57 57
32 32 32 31 35 34 34 34 35 36 36 39 41 45 43 42 42 41 36 36 37 39 52 60 62 63 65 65 64 63 63 63 64 64 64 63 62 62 62 62 61 61 60 61 59 59 58 58 58
30 32 32 34 32 29 32 26 30 35 35 35 37 37 42 42 41 35 34 35 37 38 41 45 56 62 63 64 64 63 64 63 63 64 64 64 63 62 61 61 61 61 61 60 61 61 60 59 58
35 31 32 31 30 29 29 29 28 29 33 35 35 35 35 37 38 37 36 37 38 42 42 41 41 42 43 55 62 63 63 63 63 63 63 63 64 64 64 62 61 60 61 61 60 60 60 60 60
36 35 34 34 30 26 26 28 26 27 28 33 35 36 36 36 35 35 36 41 42 43 41 44 44 44 41 41 42 51 58 60 60 61 60 61 61 62 63 64 64 63 61 61 60 60 60 60 60
34 32 28 26 25 21 26 28 27 29 29 28 30 33 35 37 37 36 37 41 43 43 45 45 45 46 46 45 45 43 41 42 47 49 51 50 52 56 58 59 62 63 63 63 62 61 61 60 60
34 30 24 18 20 22 28 26 26 29 31 29 30 28 30 36 36 35 38 42 43 44 45 45 45 46 46 47 47 48 48 47 48 48 50 52 54 55 56 57 59 60 61 61 61 61 61 60 59
36 28 27 23 20 22 24 24 24 27 27 28 28 30 30 30 34 36 40 42 43 44 44 45 45 46 46 46 46 46 47 47 47 48 49 50 50 52 53 54 55 55 58 59 59 57 54 53 52
36 34 28 26 17 18 19 20 20 23 24 25 27 30 31 35 37 41 43 42 43 43 43 45 45 44 45 44 43 42 41 42 41 41 42 44 45 46 47 48 49 49 50 51 52 51 50 49 48
35 34 30 28 25 19 17 17 22 24 23 22 24 30 33 37 41 42 41 41 41 42 43 44 43 42 40 39 38 37 36 36 36 36 37 38 38 39 40 42 44 45 46 47 48 48 47 46 45
36 32 29 24 25 19 20 20 23 23 25 26 27 34 37 40 42 42 40 40 40 40 41 42 41 40 38 37 36 35 35 35 35 35 35 35 36 36 37 39 40 40 41 42 44 43 43 43 42

GFSSGP_sfc_dewp_090.txt.gz
Dewpoint
63 58 52 49 34 30 24 26 32 30 29 30 34 28 30 34 45 46 63 64 64 67 69 70 74 75 75 74 74 74 74 73 73 71 70 69 68 68 68 67 67 66 66 66 67 66 66 65 65
60 54 50 44 31 25 24 26 30 32 34 36 34 33 37 36 56 62 63 66 66 67 69 68 74 74 74 74 74 74 74 73 73 72 70 70 68 68 68 67 65 65 65 66 66 66 66 66 66
59 53 43 36 30 26 23 29 29 36 37 36 33 41 44 49 60 62 64 66 66 67 68 69 74 74 74 74 74 74 74 73 73 73 72 71 69 68 68 67 65 65 66 66 67 67 67 67 67
54 49 45 34 30 29 27 28 33 37 38 37 35 40 56 63 62 63 65 66 65 66 68 73 73 74 74 74 74 74 74 73 72 72 72 71 71 69 69 67 66 67 68 67 67 67 68 69 68
54 49 38 34 30 29 31 34 35 36 37 37 38 44 54 63 66 66 65 66 65 65 68 71 73 75 74 74 74 74 74 72 71 70 70 69 70 70 69 68 67 65 66 67 67 67 67 68 68
51 47 36 32 31 32 31 38 35 34 37 37 37 47 58 65 66 67 66 68 68 66 68 70 73 74 74 74 74 74 73 73 72 71 69 68 68 70 69 68 68 66 65 67 67 66 66 68 68
47 42 36 32 31 33 32 37 36 34 34 38 44 46 56 63 68 68 67 67 68 67 68 69 70 72 73 73 73 73 73 72 72 70 70 68 68 69 70 69 68 67 65 66 66 66 66 66 67
47 46 37 33 31 33 36 37 37 35 36 41 42 42 46 55 68 69 68 68 66 66 66 67 69 70 70 70 72 72 71 70 70 70 69 67 67 68 70 69 69 69 68 67 66 66 66 65 65
50 44 38 34 34 33 37 38 40 41 39 41 50 49 58 62 67 68 67 67 66 66 66 66 67 68 68 68 69 69 69 69 68 67 66 65 59 61 65 68 68 69 69 68 66 66 66 65 65
44 41 37 36 36 36 37 39 39 39 39 40 44 48 61 63 66 66 66 65 65 65 66 67 67 68 68 67 68 66 65 64 63 62 62 58 60 60 60 66 68 69 69 69 68 66 65 62 58
42 34 37 38 40 39 38 38 39 38 37 38 39 46 55 54 57 62 65 66 66 66 67 68 68 67 67 67 66 65 64 63 62 59 57 58 61 61 60 63 68 67 65 65 65 64 62 60 55
38 37 37 40 42 41 38 37 38 38 36 39 39 46 50 51 50 52 59 65 67 66 66 68 68 67 66 66 66 64 63 63 62 60 56 57 59 61 59 60 63 64 64 64 64 62 62 62 59
37 35 39 39 41 42 40 40 38 39 41 42 44 46 46 47 49 52 57 64 66 65 66 67 68 68 67 66 65 64 63 63 62 62 60 56 57 59 61 62 62 63 63 62 62 61 61 61 60
34 35 38 39 40 42 40 38 40 39 44 43 44 45 46 45 46 52 57 61 64 65 65 67 67 67 67 66 66 64 63 63 63 62 62 60 57 57 60 61 62 62 62 61 61 59 58 59 59
36 34 39 40 37 39 42 38 39 39 43 42 42 43 45 46 44 45 52 60 64 64 66 65 67 68 67 66 66 65 64 63 63 63 63 62 61 60 60 58 59 60 59 59 60 60 59 57 57
35 34 33 36 39 37 38 33 37 40 40 41 41 41 43 44 43 44 42 59 63 64 65 66 67 68 68 67 66 66 65 64 64 63 63 63 62 62 61 60 57 57 59 59 59 59 58 57 57
34 28 27 32 39 38 38 31 35 39 40 39 39 40 42 42 43 43 42 51 61 63 64 66 67 67 68 68 68 66 66 65 64 64 64 64 63 62 62 61 60 58 59 59 59 59 58 58 58
28 26 25 29 37 38 36 32 35 37 39 38 37 37 40 41 40 43 43 48 61 63 64 64 66 67 68 69 68 69 66 65 65 65 64 64 63 63 63 62 62 61 60 60 60 59 59 58 57
24 25 24 27 36 36 33 32 34 35 38 36 35 39 40 40 40 43 42 42 61 63 63 64 64 66 67 67 66 66 67 67 66 65 66 65 65 64 64 63 62 62 61 60 60 59 59 58 58
34 24 28 26 37 36 32 32 34 35 36 36 35 34 37 42 41 42 43 38 51 61 63 64 64 64 66 66 66 66 67 67 68 68 66 65 65 65 64 64 63 62 62 61 60 59 58 58 58
32 24 26 29 35 35 33 32 32 33 36 36 38 38 37 42 41 41 42 43 42 46 58 62 63 64 66 66 65 65 65 65 66 66 66 66 65 65 65 64 63 64 63 62 62 61 60 59 60
31 26 30 30 29 27 34 21 28 31 34 35 36 39 40 43 42 41 41 41 41 40 42 49 61 63 65 66 65 64 64 64 65 65 66 66 64 63 63 63 63 63 63 62 64 63 62 61 59
35 33 30 31 29 29 31 28 23 31 31 34 35 36 38 40 40 41 41 41 39 43 43 45 49 59 63 65 65 65 65 65 65 65 64 65 65 65 64 63 63 62 62 62 62 62 61 61 61
37 33 33 32 32 28 23 26 19 24 27 31 33 35 37 37 38 40 41 40 41 44 44 45 45 46 48 57 62 64 65 64 63 64 63 64 64 64 65 65 65 64 63 62 62 62 62 61 61
34 33 29 27 27 20 23 27 22 26 29 28 29 32 36 37 38 38 39 40 42 43 44 44 44 44 43 43 44 47 54 56 57 57 57 57 57 59 61 62 63 63 64 63 63 63 63 62 62
34 34 26 16 16 15 27 24 20 26 27 29 30 30 32 36 38 38 38 40 42 44 44 43 44 45 44 45 45 46 45 44 45 46 46 48 51 54 56 56 59 60 61 62 63 64 63 63 63
35 33 28 26 24 20 21 24 26 26 28 29 30 30 31 32 35 37 39 40 41 43 44 44 44 45 46 46 47 47 47 48 48 49 51 51 52 52 54 55 56 57 59 61 62 62 59 59 56
34 37 30 33 23 16 21 20 11 23 24 24 24 28 30 31 32 33 37 39 42 43 44 45 45 45 46 46 46 45 45 45 45 46 47 48 48 49 51 52 53 53 54 55 56 54 52 52 51
35 35 30 29 28 18 17 16 23 22 24 25 25 27 29 33 35 35 38 41 43 44 44 45 44 45 44 43 43 43 42 41 42 42 42 43 43 44 45 46 48 49 50 50 51 50 49 48 48
36 32 29 30 27 25 25 18 22 24 27 28 29 33 35 37 39 40 40 41 42 43 43 43 43 42 42 41 40 40 40 40 40 39 39 39 40 40 41 42 44 44 45 46 48 47 47 47 46

GFSSGP_sfc_dewp_093.txt.gz
Dewpoint
63 60 50 47 37 31 27 24 21 24 26 28 29 29 35 39 46 49 60 58 64 65 67 71 74 74 75 74 74 74 73 73 72 70 69 68 68 68 68 67 67 67 67 67 66 65 65 64 64
57 56 48 42 34 27 25 23 26 28 27 29 31 30 31 41 55 60 59 62 64 65 66 69 74 74 74 74 74 73 73 72 72 71 70 68 68 68 67 66 66 67 67 66 66 67 67 67 66
59 55 42 39 34 27 25 25 27 30 33 32 26 32 33 49 57 60 62 62 64 65 65 69 74 74 74 74 74 73 73 73 72 72 72 70 68 68 66 65 66 67 67 67 67 67 67 67 67
55 50 47 34 32 30 27 25 25 34 34 33 28 28 54 62 60 61 62 63 63 65 64 71 73 74 74 74 74 73 73 72 72 72 72 71 69 69 67 65 67 68 69 68 68 69 69 69 68
55 48 38 36 32 30 28 28 28 33 32 33 33 38 52 63 64 63 62 62 62 65 69 69 73 74 74 74 74 73 73 73 72 71 71 71 70 69 67 66 67 68 68 67 67 68 69 69 69
52 46 38 33 31 30 29 31 30 31 34 35 34 39 58 64 64 63 62 62 61 65 70 68 72 73 74 74 74 73 73 72 72 71 69 69 71 69 68 66 67 67 67 67 67 67 68 68 68
49 42 37 32 29 29 30 33 30 30 35 37 41 40 58 63 66 65 65 66 63 66 68 68 69 71 72 73 73 73 72 72 71 71 70 69 70 70 68 69 68 66 67 67 67 66 67 68 66
48 47 37 32 30 29 33 33 33 31 33 40 44 46 52 63 68 67 66 67 65 67 67 66 67 68 69 70 72 72 71 70 70 70 69 67 67 70 70 69 69 68 67 67 66 66 65 66 66
49 45 38 33 30 29 33 31 33 35 37 38 47 49 56 59 67 67 67 67 62 65 67 66 66 67 68 67 69 71 70 69 69 67 66 65 60 65 68 67 68 69 68 67 66 66 65 65 65
44 42 38 35 31 29 33 35 36 37 37 40 44 56 58 61 65 66 66 64 62 64 65 66 67 67 67 67 67 68 67 65 64 63 63 59 56 56 65 66 68 69 69 68 67 66 65 63 58
40 37 39 35 34 42 37 37 38 37 35 36 39 52 60 64 64 65 65 63 63 65 67 65 67 66 66 67 66 67 64 63 62 60 59 56 57 59 63 67 68 67 66 65 65 64 61 57 53
37 36 33 37 46 42 39 41 36 38 37 37 39 47 55 59 62 63 65 66 63 65 66 67 67 67 66 66 65 66 63 61 60 57 54 56 57 58 57 61 66 66 65 65 64 61 60 60 57
34 33 32 35 42 44 42 39 37 36 38 38 39 45 49 53 57 60 61 65 66 66 65 66 66 67 65 64 64 65 62 61 61 59 54 53 56 57 56 58 61 62 62 63 62 60 59 59 58
32 34 33 34 42 41 39 37 35 37 37 39 40 43 43 48 50 53 58 61 65 66 66 65 65 65 64 65 64 64 64 62 62 61 59 55 55 56 59 60 60 60 60 60 59 58 57 57 58
36 33 33 35 34 39 38 35 35 37 39 40 39 40 43 44 46 51 54 58 62 64 66 67 67 67 65 65 65 63 63 62 62 61 61 60 58 58 58 58 59 59 58 57 58 58 57 55 54
34 35 29 32 34 33 37 31 32 36 36 40 38 38 43 44 43 48 56 59 62 62 64 65 66 66 67 65 65 67 64 63 63 62 62 62 61 61 61 60 57 57 58 58 58 58 57 56 56
35 35 26 26 36 31 36 31 28 34 37 38 37 37 38 41 42 43 52 59 61 61 62 64 66 66 66 67 67 68 66 64 62 62 62 63 62 61 61 61 59 56 58 58 59 58 57 58 58
33 31 24 22 33 33 32 31 29 34 35 35 35 35 37 39 40 42 48 55 60 61 61 63 66 66 66 68 69 69 68 66 64 64 64 63 62 62 62 61 61 60 59 59 60 59 59 58 58
34 27 21 20 30 31 32 30 29 34 35 35 33 33 34 37 40 41 44 56 59 61 61 62 64 66 67 68 68 67 66 67 67 67 66 65 63 63 63 62 62 62 61 60 60 60 59 60 60
36 31 24 20 31 32 31 30 30 32 34 34 33 32 33 36 38 41 43 47 59 60 62 62 61 63 66 67 67 67 67 68 68 68 66 66 66 66 64 64 63 62 62 61 61 61 60 60 61
34 30 26 20 31 33 31 29 29 31 32 34 33 33 32 33 37 39 42 44 57 60 61 62 61 61 64 66 67 66 67 67 67 67 67 67 67 67 66 65 64 64 64 63 63 62 61 60 61
32 29 29 25 29 24 30 23 25 28 30 31 33 33 34 34 38 40 42 44 45 47 57 61 62 63 65 65 65 65 64 63 65 66 67 66 67 66 66 66 65 64 65 64 64 63 62 62 60
35 37 27 30 27 25 27 24 20 25 27 30 31 32 33 36 40 41 43 45 45 46 47 50 59 62 64 65 65 65 64 65 65 66 65 65 66 66 65 65 65 64 64 64 63 64 63 62 61
37 35 35 31 30 29 24 22 15 24 25 28 29 31 32 35 40 41 43 44 44 48 48 49 49 55 61 64 64 64 63 63 64 64 64 65 65 66 66 66 65 64 63 63 63 63 63 62 62
36 34 30 27 27 19 20 23 20 23 25 26 29 30 32 35 38 40 42 42 42 46 47 46 45 46 49 55 59 62 64 64 63 63 63 63 63 63 63 64 64 65 65 64 64 63 63 63 62
34 34 29 20 21 18 23 19 20 22 24 28 29 29 31 34 35 37 39 43 42 44 46 45 46 45 44 46 48 47 47 47 51 49 49 50 51 54 56 57 58 60 62 62 63 64 63 63 62
35 32 31 26 19 18 19 18 23 25 26 28 29 30 31 33 35 36 38 39 41 44 45 44 45 46 46 46 46 46 46 47 48 50 50 50 51 52 53 54 55 56 57 59 61 62 62 62 60
34 36 29 33 21 16 16 12 16 23 24 26 27 29 30 31 32 33 37 39 40 42 44 45 44 45 46 46 46 46 46 46 47 48 49 49 50 50 52 53 53 54 55 56 58 56 54 53 52
34 34 34 29 29 17 17 14 22 23 24 25 25 26 27 30 32 32 33 37 40 42 44 44 44 45 45 45 44 44 43 43 44 44 44 44 45 46 48 48 49 50 51 52 52 52 51 50 50
34 33 29 29 25 27 26 19 24 26 28 28 28 33 33 34 35 35 35 39 42 43 43 43 44 44 43 43 42 42 42 42 41 41 41 41 41 42 43 44 46 46 47 49 50 48 49 48 48

GFSSGP_sfc_dewp_096.txt.gz
Dewpoint
62 62 60 51 44 36 31 27 26 23 28 30 29 29 37 54 55 52 59 63 68 69 71 73 74 74 74 74 74 73 73 72 71 70 68 68 68 68 68 68 68 68 67 66 66 65 65 65 65
57 57 55 47 40 30 28 28 24 27 28 30 30 32 37 54 59 60 59 65 66 68 70 71 74 75 75 74 73 73 73 72 72 70 70 68 67 67 67 67 67 67 67 67 67 67 66 67 68
56 57 49 43 38 32 28 28 24 29 33 31 31 32 43 55 59 60 62 64 65 67 68 71 74 74 74 73 73 73 73 72 72 71 70 70 67 66 66 67 67 67 67 67 67 68 68 68 69
54 57 52 39 34 34 33 27 28 33 33 31 30 41 60 63 60 62 61 64 64 65 69 72 73 73 73 73 73 73 73 73 73 72 71 71 68 65 66 67 68 68 68 68 69 69 69 69 69
55 54 44 40 35 34 33 30 31 33 33 32 31 45 59 63 65 62 62 64 63 65 70 72 74 74 74 73 73 73 73 73 73 72 71 70 68 66 67 67 69 69 68 68 69 69 69 69 69
51 51 40 37 36 33 32 31 31 33 32 32 31 45 60 64 63 62 62 62 64 68 68 70 72 73 73 73 73 73 73 73 72 72 71 71 68 67 66 67 68 68 67 68 68 68 68 68 68
50 46 41 37 35 32 31 30 29 31 34 36 42 38 61 64 65 63 61 62 68 68 67 69 71 72 73 73 73 73 72 72 71 71 71 71 70 69 67 68 68 67 67 67 67 68 68 67 66
51 49 41 37 34 31 34 32 31 32 35 41 46 50 59 65 67 65 65 66 68 68 67 68 69 70 71 71 72 71 70 70 70 70 69 69 69 69 69 68 68 69 68 68 68 67 68 67 66
49 45 40 39 34 31 32 31 34 34 36 41 49 55 63 65 68 66 66 65 67 67 66 67 68 69 70 70 70 70 70 69 68 67 66 65 68 68 67 67 67 68 68 68 67 66 66 66 65
45 42 40 40 37 32 37 32 34 36 37 43 53 56 63 65 66 65 65 63 64 67 66 66 65 68 69 68 68 69 68 66 65 64 64 63 61 67 66 66 67 68 68 67 67 66 66 63 60
42 39 41 41 39 45 44 39 34 35 37 41 50 56 60 65 65 65 65 64 64 65 66 67 67 67 67 67 67 67 66 65 64 63 62 61 59 65 67 67 67 67 66 66 66 64 61 58 56
39 38 38 41 46 47 43 47 42 38 36 40 50 57 62 63 64 64 65 63 64 65 66 66 68 67 67 67 66 66 65 63 62 60 58 58 60 59 65 66 67 66 65 65 64 63 62 60 57
37 35 35 37 43 45 45 43 42 44 42 38 49 54 57 62 63 64 65 66 65 66 66 67 68 68 67 67 66 65 64 62 60 57 53 57 58 58 57 64 66 65 64 64 64 62 60 60 58
39 36 34 35 40 44 43 43 44 43 43 39 43 46 51 54 61 61 63 64 65 66 65 67 67 67 66 66 66 64 64 61 61 60 57 54 57 58 58 59 62 62 63 63 61 59 58 58 58
40 36 35 37 41 44 44 40 43 45 40 38 39 42 44 50 53 59 61 63 65 65 67 66 65 66 66 67 67 65 63 62 62 62 60 57 56 56 59 60 60 60 59 58 58 58 57 56 55
38 35 34 36 38 41 42 38 40 41 41 40 39 39 42 45 47 51 54 62 64 65 65 67 68 67 67 66 67 67 64 64 63 62 62 61 60 60 59 59 58 59 58 58 58 58 57 56 56
37 32 32 30 34 33 39 35 35 35 34 39 39 38 41 43 43 46 54 58 62 64 65 66 67 66 67 67 68 67 66 65 64 63 62 62 61 61 61 61 59 56 58 58 59 58 58 57 57
29 31 28 26 28 34 30 30 31 30 33 35 37 36 37 42 42 44 52 58 62 62 64 65 66 66 66 67 67 67 67 66 65 64 63 63 62 61 62 62 61 58 59 59 59 59 59 58 58
33 29 27 26 28 29 32 32 31 30 32 33 35 36 36 37 39 43 48 57 61 61 62 64 65 66 67 67 66 65 65 66 66 65 64 63 63 63 62 62 62 61 59 59 59 59 59 59 59
35 35 27 28 30 30 32 32 31 30 34 34 34 34 33 35 38 40 47 54 59 60 61 64 65 66 66 66 67 66 65 65 65 66 66 66 65 65 63 63 63 62 62 61 60 60 59 59 60
33 32 31 32 30 34 30 31 31 29 33 34 35 34 33 34 35 39 43 49 58 60 61 63 63 64 67 67 66 65 65 65 65 65 66 66 66 66 66 65 64 64 63 62 62 61 60 59 59
30 32 31 29 31 32 35 28 35 34 31 33 33 33 33 33 34 37 43 48 57 60 61 62 61 63 65 66 65 63 63 62 63 64 65 65 66 65 65 65 65 65 64 63 63 63 62 60 59
32 36 35 36 31 28 30 27 30 32 27 29 31 33 34 34 35 38 42 45 45 50 54 60 62 63 64 64 64 63 62 61 61 63 63 64 65 65 65 65 64 64 64 64 64 63 63 62 60
37 35 35 36 34 28 30 24 18 22 25 28 30 31 33 33 35 39 46 47 46 48 48 49 58 61 63 63 62 60 61 60 61 62 62 63 64 65 65 65 64 64 64 63 63 63 63 62 61
36 34 28 27 26 25 28 24 20 22 25 27 28 31 32 32 36 41 44 45 46 47 49 51 50 51 57 60 62 61 58 59 58 60 60 58 58 59 62 63 63 63 64 64 64 63 63 63 62
34 34 28 17 19 18 24 29 21 23 26 28 29 30 31 33 37 41 43 43 45 47 48 47 47 46 49 51 53 55 58 58 56 55 55 56 57 57 57 57 57 58 60 62 63 63 63 63 62
34 31 35 30 23 22 20 18 19 26 27 28 28 29 30 33 35 39 40 43 44 46 46 46 46 47 47 48 46 45 46 47 48 49 50 50 51 51 52 54 54 55 56 57 59 61 61 62 61
34 35 30 32 23 23 18 16 18 24 24 27 28 29 30 31 32 33 38 40 44 44 45 45 46 46 47 47 46 46 46 47 48 49 49 49 50 50 51 52 53 53 54 54 55 56 55 55 53
32 30 34 32 29 21 17 17 24 24 26 25 26 27 30 31 32 32 34 37 43 44 44 44 45 46 46 46 45 45 45 44 44 44 44 44 44 45 46 47 48 49 50 51 52 52 52 52 51
32 30 32 30 26 29 28 20 26 27 27 28 31 32 33 34 34 34 34 40 42 43 44 44 45 45 44 44 43 43 42 42 42 41 41 41 41 42 42 43 45 45 45 48 50 49 50 50 49

GFSSGP_sfc_dewp_099.txt.gz
Dewpoint
57 60 62 56 43 40 35 28 29 25 27 29 29 51 55 56 54 50 64 70 71 71 72 73 74 74 74 73 73 72 72 71 71 70 68 69 70 69 69 69 68 67 66 65 65 65 65 65 66
55 56 59 50 41 34 29 32 27 27 29 31 30 41 54 55 60 61 67 70 71 71 71 72 74 74 74 73 73 72 72 71 70 70 69 68 68 68 68 68 67 67 67 66 66 67 67 68 69
55 57 53 44 39 34 31 29 30 31 32 31 29 48 56 58 60 61 68 69 70 70 71 72 74 74 74 73 73 72 72 71 71 70 69 68 67 67 67 67 67 67 68 68 67 68 69 70 70
54 57 55 41 38 37 34 30 28 32 33 31 43 58 61 64 62 64 67 69 69 70 71 73 74 74 73 73 73 73 73 72 71 71 70 68 66 67 67 67 68 69 69 69 69 69 69 69 69
57 53 47 42 38 36 35 35 33 32 32 30 31 57 59 63 65 64 66 67 67 69 71 72 74 73 73 73 73 73 73 72 71 71 68 66 66 67 68 68 69 69 70 69 69 69 69 69 68
50 51 42 39 39 36 36 35 33 34 32 32 37 58 59 64 63 64 66 65 69 69 70 71 72 72 73 73 73 73 73 72 72 72 69 67 66 67 68 68 69 68 69 69 68 69 69 68 67
47 46 42 39 38 37 36 35 33 33 33 38 43 56 60 63 64 64 64 68 69 69 70 71 71 72 72 72 72 73 73 72 72 71 70 69 67 68 68 69 69 68 68 68 68 68 67 66 65
49 49 41 39 37 36 36 35 32 33 37 44 48 56 59 63 65 66 66 67 67 69 70 71 71 71 71 71 71 71 71 70 71 71 69 68 68 67 69 68 69 68 68 68 69 68 67 66 64
48 43 41 38 37 37 37 33 35 36 39 51 55 60 63 66 66 67 67 67 66 68 69 69 70 71 71 71 70 69 69 69 68 68 67 67 67 67 66 66 68 68 68 68 67 67 67 66 65
45 42 40 42 41 40 44 38 36 40 45 53 57 64 65 66 65 65 66 66 66 66 68 69 69 70 70 69 69 68 67 66 65 65 65 66 67 66 66 65 66 68 67 68 67 66 65 63 60
42 40 41 42 43 47 45 43 45 41 42 52 56 62 64 65 65 64 64 66 66 66 67 68 68 69 69 68 68 67 66 65 64 63 63 62 65 66 66 66 66 65 65 65 65 64 62 60 60
40 40 41 41 48 47 44 46 45 45 42 52 57 63 63 64 64 63 63 64 66 65 66 67 68 68 67 67 67 66 65 65 64 63 62 59 62 66 66 66 65 65 65 64 64 63 61 59 57
39 39 39 38 47 47 47 45 46 46 47 48 58 62 63 63 64 64 64 65 66 65 66 68 68 68 67 67 67 66 65 64 63 60 58 59 62 64 66 65 65 65 65 65 64 64 62 60 58
41 39 38 38 46 46 46 46 48 47 47 47 57 60 62 63 62 63 64 64 65 65 66 68 67 68 67 67 66 65 64 62 58 56 54 58 59 58 61 65 65 64 64 64 63 62 60 59 59
40 38 37 41 45 45 45 44 45 49 50 47 50 54 57 62 62 62 63 64 65 65 66 67 67 67 66 67 67 65 64 62 59 58 55 54 57 58 58 63 63 63 63 63 61 58 57 56 55
38 38 34 38 40 44 43 38 44 48 50 47 46 44 52 56 60 61 62 63 65 65 65 66 67 67 67 66 67 67 64 63 61 60 59 57 57 58 58 59 60 59 59 57 58 57 57 56 55
36 33 33 33 38 44 41 38 43 46 49 47 45 40 46 48 50 54 60 62 64 65 65 66 67 67 66 66 67 67 66 63 62 62 61 60 59 60 59 60 58 58 58 58 58 58 57 57 56
30 32 31 31 34 42 40 36 36 46 47 46 43 40 42 44 45 49 54 61 63 65 65 66 66 66 67 67 67 67 67 65 63 63 61 61 61 61 61 61 60 57 58 58 59 58 58 57 57
32 32 31 28 30 37 39 36 36 39 45 45 43 43 37 42 43 46 55 59 63 64 65 65 65 66 66 66 65 65 65 66 66 65 64 63 62 61 61 62 61 58 58 58 58 59 58 58 58
35 33 29 29 28 29 31 33 33 31 32 36 38 37 36 36 39 44 53 59 61 62 64 64 65 66 66 66 66 65 64 64 65 66 65 65 64 63 62 62 62 61 59 59 59 59 59 59 59
33 34 30 28 31 32 31 32 34 33 32 35 35 35 34 34 36 44 51 57 59 60 62 64 65 65 65 66 65 64 64 64 64 64 65 65 66 66 65 64 64 63 62 61 61 60 59 58 59
32 37 33 32 33 29 36 27 32 33 32 33 33 34 34 33 35 44 49 54 58 60 61 63 64 65 66 65 65 63 62 62 63 64 65 65 65 65 66 65 65 65 64 64 63 63 62 60 59
34 37 35 34 33 30 34 32 30 34 31 32 33 33 34 33 34 41 45 52 58 60 59 61 62 64 65 65 63 62 61 60 62 62 63 63 64 64 65 65 64 64 64 64 63 63 63 62 61
37 37 37 36 35 25 32 31 20 30 31 31 31 33 33 34 34 40 44 49 50 52 51 56 60 62 63 62 61 60 58 59 60 60 61 62 63 64 64 64 63 63 63 63 63 63 63 63 62
36 34 28 26 26 22 30 28 23 26 29 30 29 31 33 34 34 40 45 45 46 47 48 52 56 58 60 59 58 58 58 58 58 59 60 58 58 59 62 63 63 62 63 63 63 62 62 62 61
34 33 24 21 22 20 28 24 25 25 26 29 29 31 32 33 33 43 45 45 45 46 47 48 51 52 56 58 58 58 58 58 57 56 55 55 56 57 60 60 60 61 62 62 62 62 62 61 61
34 30 35 29 26 20 25 23 20 26 27 27 29 30 32 32 34 42 44 44 45 46 47 45 47 47 50 51 47 48 50 51 49 49 51 52 52 52 53 54 54 55 56 56 57 58 59 59 60
34 34 30 29 21 19 18 16 16 24 25 27 29 29 30 32 35 41 43 43 45 46 46 45 45 46 47 47 47 47 47 48 49 50 49 50 50 50 51 52 53 53 53 53 53 54 54 56 55
30 29 33 33 27 21 16 17 25 25 25 26 27 29 30 31 32 33 38 43 44 44 44 44 45 45 46 46 46 46 46 46 47 46 46 45 45 46 47 47 48 49 49 50 51 51 52 53 52
31 29 33 25 26 24 20 19 27 27 27 30 31 32 33 34 33 33 41 43 43 44 44 45 45 46 45 45 44 44 45 45 43 42 42 43 42 42 43 44 45 45 45 46 49 49 49 51 51

GFSSGP_sfc_dewp_102.txt.gz
Dewpoint
53 58 60 58 44 41 36 34 33 29 30 30 31 49 48 54 50 48 67 69 71 72 73 73 74 74 73 72 72 71 71 71 71 71 72 72 71 70 69 68 67 67 66 65 65 65 67 69 69
54 54 59 52 41 34 30 33 28 30 28 32 51 55 54 56 62 67 68 70 71 72 72 73 74 74 73 73 72 71 71 70 70 70 70 70 70 69 68 67 66 66 66 65 65 66 69 70 70
57 56 53 46 40 33 26 31 29 30 31 31 44 57 56 57 65 66 69 70 70 71 71 72 74 73 73 72 72 71 71 71 70 70 70 70 69 68 67 67 67 67 67 67 68 69 70 70 70
56 56 53 43 39 38 32 29 29 30 32 31 49 58 61 63 62 68 70 70 70 71 71 72 73 73 72 72 72 72 71 70 68 68 69 69 68 67 67 67 68 69 69 69 69 70 70 69 69
55 53 44 42 40 38 37 35 33 32 31 30 53 57 60 63 66 69 70 70 70 71 71 72 73 72 73 73 72 72 71 71 68 67 67 67 67 67 67 67 69 69 70 69 69 69 69 68 68
47 50 43 40 38 39 36 36 35 33 33 31 57 58 59 64 67 69 69 69 70 70 71 71 72 72 72 73 73 72 71 72 70 68 66 67 67 67 68 69 70 70 69 69 69 69 69 67 66
44 45 41 42 39 37 37 37 38 35 32 38 55 55 60 63 67 68 68 69 69 70 70 71 70 71 71 72 72 72 71 71 70 69 68 68 68 68 68 68 69 69 68 69 69 68 67 65 65
45 44 41 42 40 37 38 36 38 36 34 43 58 56 59 63 66 67 68 68 68 69 70 70 70 70 70 71 71 71 71 70 70 69 68 67 67 68 69 68 68 69 69 69 68 67 66 65 65
47 41 36 39 39 39 39 36 34 38 41 52 56 59 62 64 65 67 67 68 68 69 70 70 70 70 70 70 70 70 70 69 69 68 66 66 66 66 66 67 68 68 69 69 68 67 66 65 64
43 38 37 40 42 41 45 39 36 48 52 55 61 63 64 65 65 65 66 66 67 67 69 70 70 70 70 69 68 67 67 66 67 67 66 66 65 65 65 66 67 68 68 68 67 66 66 63 59
41 36 38 43 43 45 46 45 45 47 49 55 59 62 63 65 64 65 65 66 66 67 68 69 69 69 69 68 67 66 65 64 64 65 65 66 65 65 64 64 65 64 64 65 65 64 62 60 59
37 40 38 44 47 48 46 47 46 45 44 51 61 62 63 63 64 65 65 65 66 67 68 69 69 69 68 67 66 66 64 64 64 63 64 64 64 65 64 63 63 63 63 62 62 61 59 58 58
39 38 39 41 48 47 48 47 46 44 48 49 58 62 62 62 63 64 66 66 66 66 67 68 69 68 67 67 66 65 64 64 64 63 62 60 65 65 65 64 64 63 63 63 62 62 61 61 59
39 40 39 39 46 47 46 47 48 47 50 49 54 60 61 61 63 63 64 65 65 66 67 68 68 67 66 67 66 65 65 64 63 61 61 60 64 66 65 64 64 63 64 64 63 63 63 62 59
37 38 38 38 44 44 46 45 45 49 50 48 47 51 59 61 62 62 64 65 65 66 67 67 68 67 66 67 66 65 64 63 62 58 58 59 61 63 64 64 64 64 64 63 63 62 59 58 56
38 37 33 39 43 45 45 37 45 50 49 48 47 47 51 60 61 61 63 64 65 66 66 67 68 67 67 66 66 65 64 61 59 56 56 56 58 59 59 63 63 63 62 62 61 58 57 56 55
36 32 33 35 42 43 40 39 45 49 50 47 48 47 46 55 59 60 62 63 65 65 66 67 67 66 66 67 66 65 65 61 59 58 57 56 56 58 59 60 61 60 59 58 58 57 57 56 56
29 31 32 33 38 42 38 37 43 48 48 48 48 48 47 50 54 57 60 63 64 65 66 66 67 66 66 66 66 66 65 63 62 60 59 59 59 59 59 60 58 58 58 58 58 57 57 57 57
33 33 31 31 36 39 38 36 44 47 47 46 48 47 47 45 48 51 57 62 63 64 65 65 66 66 66 66 65 65 64 65 65 64 62 61 60 60 60 60 60 57 57 58 58 58 58 58 58
34 31 32 33 33 37 37 36 39 46 45 46 46 47 46 43 43 47 55 60 63 64 64 64 65 66 66 66 65 65 64 64 65 66 65 64 63 62 61 61 61 60 57 57 58 58 59 58 59
33 31 31 32 35 36 35 35 38 40 43 45 47 47 44 38 41 44 53 58 61 62 63 64 65 65 66 66 65 64 64 64 64 64 65 66 65 65 64 63 63 62 60 60 60 60 60 59 59
29 35 33 32 33 31 36 28 34 38 35 36 41 45 41 37 36 43 49 56 59 61 62 63 64 65 65 65 65 64 64 62 63 64 64 65 65 65 65 64 65 64 64 63 62 63 62 61 59
34 38 34 33 32 30 34 28 29 33 32 31 32 35 35 34 34 42 47 56 59 59 61 62 63 63 64 64 64 63 61 62 62 63 63 63 64 64 64 65 64 64 64 64 63 63 62 62 61
38 37 36 36 33 24 31 29 24 30 30 31 32 33 34 34 34 39 47 53 57 57 57 59 61 62 63 63 61 61 60 59 60 60 60 62 63 63 64 64 63 63 63 62 62 62 62 62 62
36 34 27 26 26 20 33 32 29 28 31 31 31 32 34 34 34 39 44 51 53 54 55 58 60 60 60 60 60 59 59 59 59 60 60 59 59 59 62 63 62 61 62 62 62 62 62 61 61
33 32 27 21 19 24 31 27 25 26 27 33 33 32 33 34 34 40 45 48 50 52 52 55 57 59 58 57 57 56 57 57 57 58 58 58 56 56 58 60 59 59 58 60 59 60 61 61 61
33 30 35 26 24 22 27 25 22 26 27 28 30 30 31 33 34 42 45 46 46 47 49 54 55 55 56 56 56 55 55 55 54 52 53 53 53 54 55 56 56 56 56 56 57 57 57 57 58
34 35 26 26 20 17 20 17 18 23 26 28 29 29 30 32 33 41 44 45 45 45 46 46 50 52 53 53 53 53 52 51 50 50 50 50 50 51 52 52 52 53 54 53 53 53 53 52 53
31 30 31 31 24 18 15 16 24 25 25 26 27 30 30 32 34 40 44 44 45 45 45 45 45 46 48 48 48 48 48 48 49 49 48 48 48 48 48 49 49 49 49 49 50 51 51 51 52
30 28 32 20 23 21 16 20 25 27 29 30 31 33 34 32 32 37 42 43 44 44 44 44 45 45 46 45 46 45 46 45 45 45 44 44 43 43 43 45 45 45 45 45 47 48 48 49 52

GFSSGP_sfc_dewp_105.txt.gz
Dewpoint
54 56 60 57 46 40 35 37 36 30 30 35 31 46 48 50 47 45 67 68 71 71 72 72 74 73 72 71 70 70 71 72 72 73 72 72 71 71 69 68 67 67 66 67 68 69 69 70 69
56 53 59 51 43 35 34 35 33 35 29 42 53 54 53 54 63 66 67 70 71 72 72 72 73 73 72 70 70 70 70 72 72 72 72 71 70 69 68 67 66 66 65 66 68 69 70 69 68
57 54 52 48 41 35 26 33 28 30 30 33 50 58 56 58 65 66 69 70 71 71 72 72 73 73 72 71 71 71 70 71 71 72 72 70 69 68 67 66 66 67 68 69 69 70 69 69 69
54 53 52 45 39 39 29 29 30 29 29 31 52 57 60 63 65 68 70 70 71 71 71 72 72 72 72 71 71 70 69 69 69 71 71 70 68 67 67 67 68 69 69 70 70 69 68 69 69
53 49 43 41 39 38 38 34 29 27 29 31 56 56 59 63 68 69 69 70 70 70 71 71 72 72 72 72 71 71 69 68 68 69 69 68 67 67 67 67 69 69 70 70 69 69 67 69 68
47 46 40 38 40 39 39 38 35 33 32 40 56 57 59 66 68 69 70 69 70 69 70 70 71 71 72 72 71 71 70 69 68 69 68 67 66 67 68 68 69 69 69 69 69 68 67 67 67
43 40 35 37 39 40 39 37 35 33 32 32 57 55 60 66 68 69 69 69 69 70 69 69 70 71 71 71 71 71 70 69 68 68 68 68 68 69 70 70 70 69 69 69 69 68 66 66 67
45 42 35 36 39 39 41 39 37 35 32 45 58 55 59 66 68 69 69 69 69 69 69 70 70 70 70 71 70 70 70 69 68 68 68 67 67 68 69 69 69 69 69 69 68 67 65 66 66
46 38 34 34 36 41 42 38 38 37 41 47 54 58 61 66 68 68 67 68 68 68 69 69 69 70 70 70 70 70 70 69 67 67 66 66 66 66 66 67 68 69 69 68 67 66 66 64 64
39 37 35 36 36 41 46 44 38 40 48 54 58 63 65 65 66 65 65 65 66 67 68 69 69 69 69 70 70 69 69 68 66 65 64 65 64 65 66 66 67 68 68 68 68 67 65 61 58
38 35 38 37 40 46 46 47 46 44 42 53 56 62 64 64 64 64 64 64 65 66 68 69 69 69 69 68 67 66 67 67 66 65 65 64 64 63 64 64 65 64 64 64 64 63 61 58 58
36 36 37 39 44 43 45 50 47 46 45 48 51 62 63 64 64 63 63 64 66 67 67 68 69 69 68 67 66 64 64 65 65 65 65 64 63 62 62 62 62 61 62 61 60 60 59 58 57
38 34 36 39 41 46 46 48 47 44 48 52 54 62 62 63 63 63 64 65 66 66 67 68 69 68 67 66 65 63 63 63 64 64 64 64 64 63 62 62 62 61 62 61 60 59 58 59 59
39 37 35 37 42 43 43 45 49 48 49 49 55 58 61 62 63 65 65 65 66 66 67 68 68 68 67 66 65 63 63 64 63 63 64 63 65 65 63 63 62 62 62 62 62 62 61 61 61
38 37 38 37 40 42 43 40 47 50 48 48 49 50 55 61 64 64 64 65 66 66 67 68 68 67 66 66 65 64 64 64 63 61 61 61 65 65 64 63 63 63 63 62 62 62 61 59 59
37 37 32 35 39 42 40 35 44 50 47 47 48 48 49 53 62 64 65 65 66 66 67 68 68 67 66 66 66 65 64 64 63 61 59 60 61 64 64 63 63 63 63 62 62 61 59 57 55
36 28 33 33 40 43 39 36 42 50 49 47 47 47 47 48 55 61 64 65 66 66 66 67 67 66 66 66 66 65 65 62 61 59 57 58 59 61 62 63 63 63 62 61 61 59 57 56 56
29 30 31 32 39 40 38 37 41 45 49 47 47 46 46 46 49 59 62 64 65 66 66 67 67 67 66 66 66 65 64 62 60 57 56 56 57 58 59 59 61 61 60 59 58 57 57 57 56
33 32 30 33 39 39 37 36 39 42 42 47 47 45 46 46 46 49 61 63 64 64 66 66 66 66 66 66 65 64 63 62 62 61 60 58 57 58 59 59 58 58 58 58 57 57 57 57 57
33 32 30 34 36 38 38 36 39 42 42 47 47 46 46 46 44 44 54 61 64 64 64 65 65 66 66 66 66 65 64 64 64 64 63 61 61 60 59 60 60 57 57 57 57 58 58 58 58
32 31 32 31 38 38 37 37 39 43 44 46 47 47 47 46 45 42 50 58 61 62 63 65 65 66 66 66 65 64 64 63 64 64 64 64 63 63 63 62 62 61 59 58 59 59 59 58 59
29 33 33 33 34 31 37 29 36 39 41 43 45 46 46 46 45 41 46 55 59 61 63 64 64 65 65 65 64 63 63 62 63 64 64 64 65 65 64 63 63 63 63 62 61 62 61 60 59
33 35 33 34 35 34 34 28 29 37 37 40 41 45 47 47 45 41 42 54 58 60 61 62 63 63 63 64 64 63 61 62 62 63 63 63 64 64 65 64 63 64 64 64 64 63 62 61 60
37 36 34 36 34 23 31 28 25 33 32 34 37 43 46 47 44 38 42 51 56 57 58 60 61 62 63 63 62 62 61 60 60 61 61 61 63 63 64 63 63 63 63 63 63 63 62 62 62
34 31 26 24 24 21 32 29 25 30 31 31 33 34 42 41 35 35 45 52 55 56 57 58 59 60 62 61 61 60 60 60 60 60 59 59 60 60 62 62 62 61 61 61 60 59 58 60 60
32 33 19 17 19 24 33 26 25 28 28 31 32 32 33 34 34 36 43 50 54 55 55 57 58 60 61 60 59 58 59 59 59 59 59 59 58 57 58 59 58 58 58 59 58 57 58 58 59
32 29 35 23 22 22 27 27 22 25 27 27 32 32 32 34 34 35 42 48 52 53 53 56 57 59 58 57 57 57 56 57 56 55 55 55 54 55 56 57 56 56 56 56 57 57 56 57 58
34 35 29 22 12 19 22 19 18 24 24 28 30 31 32 32 34 35 42 46 50 52 51 53 54 55 55 55 55 55 55 54 53 52 52 52 51 52 53 52 52 52 53 52 52 52 52 52 52
29 27 32 30 23 18 17 17 23 26 26 27 29 29 31 31 32 35 42 45 46 46 48 49 51 52 53 53 51 51 51 50 49 50 49 49 49 49 49 50 50 49 49 49 49 49 49 49 49
30 28 30 22 22 22 16 22 25 27 30 31 32 33 34 33 33 37 43 44 45 45 45 45 46 49 49 49 49 48 48 47 46 46 45 45 44 45 45 46 45 45 44 44 44 45 47 47 48

GFSSGP_sfc_dewp_108.txt.gz
Dewpoint
56 56 59 56 45 44 38 37 39 31 30 34 34 44 48 50 48 43 65 68 70 71 72 72 73 72 71 70 70 72 73 73 74 74 73 72 71 71 69 68 68 67 68 68 68 70 69 69 68
57 55 58 52 43 36 36 37 37 34 31 33 41 53 53 48 62 65 67 70 70 71 71 71 73 72 71 70 70 72 72 73 73 73 73 72 71 69 68 67 67 67 69 69 70 70 69 69 68
54 55 49 47 43 36 32 34 33 35 34 40 42 53 57 55 63 65 68 70 71 71 71 71 72 72 71 70 70 72 72 72 72 72 72 71 69 68 67 66 67 69 70 71 70 69 69 68 67
53 50 49 42 40 38 35 28 32 29 30 30 47 45 55 63 64 67 70 70 70 71 71 72 72 72 71 71 71 71 72 72 72 72 71 70 68 67 67 67 68 69 71 70 69 69 69 68 66
53 48 38 36 39 41 39 35 30 29 28 30 52 44 47 64 68 69 69 69 68 70 71 71 72 72 71 71 71 71 71 71 71 71 70 68 67 67 67 67 69 70 71 70 68 68 68 67 65
47 47 37 31 32 42 41 39 38 31 27 44 54 49 52 66 68 69 69 68 68 69 70 70 71 71 71 70 70 70 70 70 71 70 69 68 67 67 67 68 70 71 70 69 68 68 68 67 66
41 42 35 33 31 33 40 41 37 37 32 34 54 53 61 66 68 69 69 68 69 70 69 69 69 70 70 70 70 69 69 69 69 69 68 68 68 68 68 69 70 70 70 70 69 67 67 67 66
42 41 36 34 32 34 40 41 41 40 36 50 56 53 59 66 68 69 69 69 69 68 69 69 69 70 69 69 69 69 68 68 68 68 67 67 68 69 70 69 70 70 70 70 69 68 67 67 66
43 36 32 34 33 33 41 44 43 42 38 44 56 56 61 68 68 67 67 68 68 68 68 69 69 69 69 69 69 69 68 68 67 67 66 66 66 66 66 67 68 69 70 69 68 66 66 66 65
39 34 32 34 35 34 37 43 46 46 40 45 58 62 66 67 67 66 65 65 66 66 68 69 69 69 69 69 69 68 67 66 65 65 64 65 64 65 66 66 68 69 69 68 67 66 64 60 58
37 33 32 34 38 40 38 43 46 47 45 43 54 61 65 66 66 65 65 65 65 66 68 68 68 69 68 68 68 68 67 65 64 63 64 64 64 64 64 64 64 64 64 64 63 62 59 58 57
35 36 35 35 40 39 41 44 44 47 47 48 48 62 64 63 63 64 64 65 66 66 67 68 68 68 67 67 67 67 66 65 64 64 63 63 63 62 62 62 62 62 62 61 60 59 58 58 57
37 35 37 36 37 38 42 44 45 44 47 49 52 59 61 62 63 63 64 64 65 64 66 68 68 68 67 67 65 65 65 65 64 64 64 63 62 61 61 61 60 60 60 59 58 58 57 57 58
37 37 38 37 37 38 40 41 43 45 48 48 55 59 59 62 62 63 62 62 63 65 66 68 67 68 67 66 64 63 64 65 64 64 64 63 63 62 61 61 61 60 61 61 60 59 59 60 60
38 34 36 37 34 36 42 39 38 43 47 49 52 54 58 61 62 62 62 62 59 62 66 67 67 68 66 66 64 62 63 63 64 64 64 64 64 63 62 62 61 61 61 61 61 61 61 60 60
35 34 31 36 33 35 39 33 38 45 45 47 48 49 52 56 59 63 63 63 63 65 66 67 67 67 66 65 65 63 63 63 63 62 64 63 65 65 63 62 62 62 62 62 61 61 59 58 57
33 29 30 32 32 33 38 34 38 43 44 47 47 47 49 52 58 62 64 64 64 65 66 67 67 67 66 65 65 65 64 63 63 61 60 61 62 64 64 63 62 62 62 62 61 60 58 57 56
24 29 31 30 32 32 37 36 41 42 42 43 48 46 49 49 51 58 62 64 65 66 67 67 67 67 66 66 65 65 64 63 61 60 58 59 60 62 63 63 62 62 62 61 60 59 58 57 56
31 29 29 31 37 35 37 35 36 42 40 42 46 46 47 50 50 53 62 63 63 65 66 67 67 67 66 66 64 64 63 61 60 59 59 58 58 59 61 61 61 61 61 61 59 58 57 57 57
32 29 31 33 36 36 37 36 40 40 41 42 45 46 46 48 49 48 59 63 63 63 65 66 66 66 66 66 65 64 64 63 63 62 60 59 58 59 59 59 59 59 59 58 58 58 57 57 58
31 30 32 32 37 39 38 36 39 41 43 44 45 46 46 47 47 47 55 60 62 63 64 65 65 66 66 65 65 64 63 63 62 62 62 62 62 60 60 60 60 58 58 58 58 58 58 58 59
26 34 36 34 33 31 36 28 37 40 41 43 44 45 46 46 45 43 46 56 60 62 63 64 65 66 66 66 65 63 63 62 63 63 63 64 64 62 62 62 62 61 61 61 60 61 61 60 59
33 36 34 35 32 35 33 27 34 39 38 39 41 44 46 46 46 44 43 50 57 61 62 63 63 64 65 65 64 62 63 64 64 63 63 64 64 64 64 63 63 63 63 63 63 62 62 61 61
36 36 34 34 31 24 32 26 28 35 36 38 39 44 45 45 45 44 39 42 55 58 61 62 63 63 64 64 64 63 62 62 62 62 63 63 63 63 64 64 64 64 64 63 63 63 62 62 61
33 27 23 19 19 22 30 27 24 35 35 37 36 41 45 44 46 42 37 48 54 57 58 60 61 61 62 63 62 62 61 62 61 61 62 61 61 62 62 62 61 61 61 61 61 61 60 60 60
32 27 20 17 20 24 31 25 25 28 32 36 37 37 45 43 45 38 36 44 51 55 56 58 59 60 61 61 60 61 60 60 60 60 60 60 59 59 60 60 59 59 59 59 57 57 57 58 58
33 29 33 24 21 19 25 24 22 26 26 28 31 36 36 37 35 35 36 43 51 54 56 57 57 59 60 60 58 58 57 58 58 57 57 56 56 56 58 57 57 56 56 56 56 56 56 57 58
35 36 25 24 16 19 22 19 20 25 26 27 30 32 33 33 34 35 37 43 50 53 53 55 56 58 57 55 56 55 55 55 55 55 54 53 53 53 53 53 53 52 52 51 51 50 50 50 50
31 30 30 28 24 20 18 19 24 26 27 28 31 31 31 31 32 34 36 44 47 49 50 52 53 54 54 53 52 53 52 51 51 51 50 49 49 50 50 50 49 49 48 48 48 48 49 50 50
30 28 31 21 22 21 19 22 25 27 31 32 33 35 34 35 38 39 36 43 45 47 48 49 49 51 50 50 50 49 49 49 48 47 46 47 46 46 46 46 45 44 43 43 43 44 44 45 46

GFSSGP_sfc_dewp_111.txt.gz
Dewpoint
58 57 58 57 45 45 37 37 39 32 31 37 44 48 48 49 47 45 66 67 68 69 70 71 73 73 72 72 73 73 73 74 74 73 73 72 72 71 70 71 71 70 70 70 70 69 68 69 69
56 57 57 52 44 36 34 39 36 37 33 37 42 51 50 44 61 64 66 68 69 70 70 70 72 72 72 72 73 74 74 74 74 73 73 73 71 70 69 70 70 70 71 70 70 70 69 68 68
54 54 50 46 42 38 34 37 38 36 36 36 38 53 54 54 63 64 68 69 69 70 70 70 72 72 72 72 73 73 74 74 73 72 72 72 71 69 68 69 70 70 71 71 70 69 69 68 67
54 53 49 41 37 39 40 34 35 35 34 31 39 40 57 63 64 66 69 69 69 70 70 71 72 72 72 72 73 73 73 73 72 72 72 71 70 68 68 70 70 71 71 70 70 68 68 66 65
54 49 39 36 34 39 41 40 37 32 32 29 44 40 48 64 68 68 69 69 68 69 70 70 72 72 72 72 73 73 73 73 72 72 71 70 69 68 68 69 71 71 70 70 69 68 67 65 64
47 47 37 33 32 33 39 41 40 39 37 30 48 47 48 66 68 69 69 68 68 69 70 70 70 71 71 71 72 72 72 72 72 71 70 69 68 68 68 70 71 71 69 69 69 68 67 65 64
41 41 35 33 32 31 37 42 41 41 40 38 46 49 56 65 68 70 69 68 69 69 69 69 69 69 70 70 71 71 71 71 71 71 70 69 68 68 68 70 71 71 70 69 69 68 67 65 64
42 40 33 34 33 33 33 34 41 42 41 41 54 46 51 63 69 69 68 68 68 69 69 69 68 67 68 68 69 70 70 70 70 69 68 67 67 68 69 70 70 70 70 69 69 69 68 67 65
43 35 30 30 34 34 34 32 40 44 42 41 43 55 58 65 68 67 67 67 67 68 68 69 68 68 68 66 67 68 68 68 68 67 66 66 65 67 67 67 69 69 70 69 68 67 67 67 66
39 34 30 30 31 33 35 35 38 39 43 45 46 54 62 66 66 65 65 65 65 67 67 68 68 67 68 67 67 66 66 65 64 64 65 67 68 67 66 66 68 69 69 68 67 66 64 62 61
38 32 30 31 32 37 38 38 38 43 43 45 45 48 58 66 64 64 65 65 65 66 67 67 67 67 67 67 68 66 66 65 65 65 65 67 67 67 67 68 68 67 65 65 64 61 59 59 58
35 36 35 32 34 36 37 40 40 41 42 44 46 48 48 63 64 63 64 65 65 66 66 67 67 67 67 68 67 66 65 65 64 65 65 66 66 66 66 66 66 66 65 64 62 59 59 59 58
34 34 35 36 38 36 37 37 38 42 46 42 44 48 49 51 62 63 61 65 66 65 66 67 68 67 65 65 67 66 64 64 64 65 65 65 65 64 65 64 64 64 63 62 60 58 58 58 58
35 36 35 36 36 37 35 35 40 43 45 46 45 46 49 52 59 62 62 61 61 65 67 67 67 67 66 65 65 65 64 63 64 64 64 64 64 63 63 63 62 62 61 60 58 57 58 60 61
36 34 35 34 36 35 37 34 34 41 43 45 45 44 46 52 58 62 62 62 62 65 67 66 67 67 66 66 66 65 64 63 63 63 64 63 63 63 62 61 61 60 61 61 61 61 62 62 62
33 32 27 30 34 35 36 30 37 41 43 44 43 42 47 52 55 63 64 64 64 65 66 67 67 67 67 65 65 65 65 65 64 63 63 63 62 62 61 60 61 62 63 63 63 62 62 62 60
29 23 24 25 35 33 35 30 39 42 45 43 41 40 48 52 56 59 63 64 63 64 66 66 67 66 66 66 65 64 64 64 64 64 64 63 64 63 63 62 62 63 63 63 63 62 62 61 60
20 25 27 25 32 32 33 30 40 43 44 42 40 40 46 50 54 58 62 63 62 64 66 67 66 66 66 66 65 65 64 63 63 63 64 64 64 65 65 64 63 63 63 63 62 62 61 60 58
29 28 27 27 29 32 33 29 35 42 41 39 40 42 44 48 49 55 61 63 63 65 66 66 66 66 66 65 64 64 63 64 64 62 61 62 63 64 65 64 64 63 63 62 62 61 60 59 58
29 29 28 29 31 32 31 31 36 40 38 39 41 43 43 47 48 54 62 62 63 64 66 66 66 66 66 66 65 65 65 64 64 63 61 60 61 61 62 62 62 63 62 62 61 60 59 58 59
29 29 29 30 34 35 34 35 39 39 40 42 43 45 45 47 47 50 60 61 62 63 65 66 66 66 66 66 65 65 65 64 64 63 63 61 60 61 61 61 62 61 61 61 61 60 60 59 60
28 34 35 32 34 30 37 28 36 38 38 41 43 44 46 47 46 46 55 60 61 61 64 65 65 64 66 65 64 64 63 63 64 63 63 63 62 61 62 62 62 61 62 61 61 61 61 61 60
33 34 35 35 35 33 33 29 35 38 36 39 43 45 46 46 45 44 49 56 59 63 63 64 64 64 63 65 64 63 61 63 63 64 63 63 63 63 63 63 63 63 63 63 62 61 61 62 61
36 35 35 34 32 27 32 27 30 35 36 38 41 45 47 45 46 44 43 46 57 61 62 63 62 63 64 64 64 62 61 62 64 64 63 63 64 64 64 64 64 64 64 64 64 63 63 63 62
34 27 21 23 23 24 32 27 26 33 37 38 40 44 45 45 45 41 43 49 57 59 61 62 63 62 63 62 61 63 62 63 63 63 63 63 63 63 63 64 64 64 64 64 63 63 62 63 61
32 27 23 16 19 25 29 26 23 26 28 36 39 44 46 44 43 40 39 46 54 58 60 61 61 61 63 63 63 62 63 62 63 63 63 63 62 63 63 63 62 62 62 62 61 60 60 60 60
33 27 34 24 22 23 25 22 23 26 27 28 32 43 44 43 36 37 38 45 51 55 58 60 61 61 62 62 62 62 62 62 61 62 61 60 60 61 61 61 59 59 59 58 58 58 58 58 58
33 35 26 26 18 20 20 21 23 25 27 29 31 36 43 41 39 38 36 42 50 54 56 58 59 59 59 60 60 59 59 60 59 59 58 56 57 58 57 56 55 54 54 54 54 53 52 52 52
31 31 30 27 23 21 18 25 25 26 29 31 33 32 39 41 35 37 35 43 49 52 55 56 57 57 56 56 57 57 56 56 56 55 53 52 53 53 53 53 52 50 49 49 50 50 50 50 50
30 30 30 23 24 21 23 25 26 28 32 33 34 35 36 40 41 41 40 42 46 50 52 54 55 55 54 54 54 53 53 53 52 50 50 50 49 49 49 48 46 45 44 45 45 45 46 47 48

GFSSGP_sfc_dewp_114.txt.gz
Dewpoint
56 53 51 52 43 39 33 32 34 31 32 35 38 40 42 44 46 46 64 64 64 65 68 71 73 71 73 73 74 74 74 74 74 74 73 72 72 71 71 71 71 71 71 70 69 69 70 70 70
55 51 50 47 39 29 29 32 34 35 32 34 34 39 45 44 53 62 64 66 66 65 68 69 73 73 73 73 73 74 74 74 74 74 74 73 72 71 71 71 70 72 71 71 69 69 69 69 69
53 51 41 37 36 30 26 31 35 35 35 35 33 37 40 43 58 61 65 66 66 65 68 69 73 73 73 74 73 73 74 74 74 73 72 72 72 71 71 71 71 72 72 71 70 68 68 68 69
51 50 43 38 28 28 28 29 36 36 34 33 34 34 41 54 61 63 66 67 66 65 67 71 72 73 73 74 73 74 74 74 73 72 72 72 71 71 71 71 72 72 71 71 69 68 67 66 67
52 47 36 32 26 24 25 30 35 34 33 32 32 32 35 61 65 66 66 67 66 66 68 69 72 72 73 74 73 74 74 73 72 72 72 71 70 70 71 71 72 71 71 70 68 66 65 64 64
43 40 32 29 26 25 24 28 37 35 33 34 32 31 35 60 65 68 68 68 67 67 68 69 71 71 73 73 73 73 73 73 72 72 71 70 70 70 70 72 71 71 70 69 68 65 65 64 64
39 35 30 27 25 25 26 28 35 35 37 37 36 32 35 61 64 67 68 68 68 68 68 68 68 69 71 72 72 72 72 72 71 71 70 69 69 69 70 71 71 70 70 70 69 66 65 64 64
40 38 31 28 26 25 27 29 30 34 39 40 40 36 36 53 65 64 67 68 68 69 68 67 65 64 69 71 71 71 71 71 70 69 68 68 67 68 70 70 70 70 70 70 69 68 65 64 64
39 34 28 26 24 25 29 28 30 32 36 40 41 44 44 47 65 67 67 67 68 68 68 67 64 62 62 69 69 70 70 69 68 67 66 65 63 66 68 67 69 69 69 70 69 68 67 66 66
35 30 27 25 24 24 27 33 33 34 30 35 42 43 47 52 62 66 66 64 66 67 68 66 63 61 61 64 68 68 67 66 65 65 64 59 60 62 64 66 68 69 68 68 68 67 66 64 61
33 30 26 25 27 28 29 31 33 34 35 35 37 42 48 50 60 65 66 66 65 66 68 66 63 63 60 60 66 67 66 65 64 64 60 58 59 62 65 67 66 66 64 62 63 62 59 60 58
30 29 28 30 30 29 30 31 31 34 36 37 38 42 48 47 50 55 64 66 65 66 66 66 63 62 59 59 59 62 65 64 61 60 59 62 64 61 63 65 65 63 62 61 60 58 59 59 58
29 27 27 28 32 33 32 30 32 33 36 39 40 43 46 46 49 54 57 65 61 64 66 66 64 61 60 59 58 58 59 59 59 59 62 64 64 63 64 64 64 62 61 60 57 56 57 57 57
27 30 31 31 32 33 33 32 31 33 37 41 43 43 44 45 46 51 55 63 63 64 66 66 66 61 63 62 59 58 58 58 59 59 62 64 63 61 61 61 61 61 60 57 56 55 55 56 56
30 29 29 29 31 33 34 32 31 29 33 39 43 43 42 44 45 50 56 63 62 60 67 66 65 63 62 65 63 60 58 58 59 59 60 62 62 62 61 59 60 59 57 56 55 55 56 58 59
28 27 25 19 26 30 34 30 29 30 29 34 40 42 41 42 43 51 57 59 60 60 66 66 66 65 63 65 65 64 61 57 58 59 60 60 60 60 59 58 58 57 56 56 55 55 57 60 61
27 23 18 18 21 27 32 30 31 35 32 32 38 41 42 41 43 50 58 59 60 57 63 66 66 65 65 66 66 66 65 60 57 56 57 59 58 59 58 56 56 57 60 60 61 61 61 61 61
20 23 22 20 23 31 29 29 32 39 41 41 41 42 41 41 43 46 58 60 62 60 63 66 66 66 66 67 66 66 65 64 63 60 58 57 57 58 58 58 60 61 62 61 61 61 62 61 60
26 26 25 22 24 26 33 29 30 40 42 41 43 42 42 42 43 46 52 57 62 62 64 65 66 66 66 65 65 65 63 63 63 64 64 63 62 62 62 62 62 63 62 62 62 62 62 61 60
27 25 25 23 25 27 29 30 28 35 39 41 42 41 41 41 42 44 50 60 60 63 64 65 66 66 66 66 65 65 64 63 62 63 63 63 63 64 63 63 63 63 63 63 62 62 61 61 60
27 28 26 26 31 30 30 29 30 38 39 39 40 41 43 42 42 45 48 60 61 62 63 64 65 66 66 66 66 65 65 65 63 64 63 62 62 63 64 63 64 64 64 63 63 63 62 60 61
28 32 34 34 31 29 30 25 33 35 38 39 41 43 44 43 44 46 48 59 61 62 64 64 66 66 66 66 66 65 64 63 62 64 64 63 61 62 63 63 62 63 64 63 63 63 63 61 60
33 35 34 35 32 33 32 31 33 38 37 38 40 42 43 45 45 46 49 59 61 62 61 64 64 65 65 66 65 64 64 65 65 65 64 64 63 62 62 62 62 63 63 63 62 61 61 62 61
36 35 35 34 33 29 31 28 33 36 35 37 38 41 43 47 47 46 53 60 60 61 61 62 63 63 64 64 64 63 63 63 63 64 64 64 64 63 63 63 63 63 64 63 63 62 62 62 62
35 33 27 26 27 26 34 25 27 29 36 38 39 41 46 47 47 43 48 58 61 60 60 61 62 61 62 62 63 62 62 62 62 63 63 63 63 64 64 64 64 64 63 64 62 62 63 63 63
32 32 27 20 23 27 30 26 28 28 29 31 41 43 46 47 45 41 47 55 60 61 61 61 61 60 61 61 62 62 62 62 62 62 63 62 63 63 64 64 64 64 64 63 63 63 62 63 63
33 31 35 27 23 23 28 27 28 29 31 31 41 43 45 47 45 40 46 52 59 60 61 61 60 61 61 61 61 61 62 59 61 62 63 62 63 63 63 63 63 63 63 62 62 61 60 60 60
35 36 31 31 21 22 24 28 28 28 30 32 40 42 45 46 39 37 44 49 54 59 60 61 62 61 61 61 61 60 60 59 60 61 62 61 61 62 62 61 61 60 59 59 59 58 58 58 57
32 31 30 27 25 21 21 27 27 30 33 33 38 44 45 45 43 39 39 47 53 56 59 59 59 60 60 61 61 60 60 60 60 60 60 59 60 60 59 58 57 55 55 55 55 54 52 52 52
31 31 30 29 24 25 24 27 27 30 34 35 35 42 45 45 44 42 41 43 51 55 57 57 58 58 59 59 59 59 59 58 58 57 57 57 57 56 54 53 52 51 50 51 50 49 49 49 49

GFSSGP_sfc_dewp_117.txt.gz
Dewpoint
57 50 46 49 41 35 29 29 28 29 28 28 32 37 38 40 42 52 61 62 61 64 67 70 73 74 74 75 75 75 75 74 74 73 73 72 72 71 72 72 72 71 70 69 70 70 70 70 70
51 47 45 39 33 28 25 25 27 28 32 31 31 35 37 40 48 60 59 62 62 64 67 67 73 74 74 74 75 75 74 74 74 73 73 73 72 72 72 72 72 72 71 71 70 70 70 70 69
51 47 40 32 32 29 24 24 25 27 33 32 31 33 36 40 45 57 63 64 63 65 68 68 72 73 74 74 74 75 74 74 74 73 73 72 72 72 72 71 71 71 71 70 69 70 70 69 68
45 45 41 31 23 24 26 24 22 28 33 33 32 31 31 36 42 56 64 63 63 67 67 71 72 72 73 73 74 74 74 74 73 73 72 72 72 72 71 72 72 71 71 70 68 68 68 68 68
44 41 34 27 23 22 21 21 24 25 33 33 33 31 31 38 60 62 64 65 63 66 68 70 73 73 73 73 73 74 74 73 73 73 72 72 72 72 72 72 71 71 71 69 68 66 66 66 65
39 37 29 25 24 22 20 19 19 23 28 31 31 31 31 35 58 64 65 65 64 66 69 69 71 72 73 73 73 74 73 73 72 72 72 71 71 71 72 72 71 71 70 67 66 65 65 65 64
36 32 27 23 20 20 20 22 21 21 25 29 30 31 32 33 56 65 63 67 67 68 70 69 69 70 72 72 73 73 73 72 71 71 71 70 70 71 72 71 71 71 70 68 67 65 65 64 64
35 33 27 25 22 22 23 22 23 24 23 28 30 30 34 34 53 63 65 67 68 68 69 69 67 66 68 71 71 71 71 71 70 70 69 68 68 69 71 70 70 70 70 69 67 66 65 64 64
35 31 28 26 23 22 22 21 24 25 25 26 28 32 37 46 51 61 65 67 67 68 68 69 66 63 64 68 70 70 70 69 69 67 66 66 64 66 68 67 69 69 70 69 68 67 66 66 65
33 29 26 24 24 22 22 22 21 24 26 25 27 34 42 45 50 57 63 63 66 67 67 68 64 60 62 67 70 69 69 68 66 65 64 61 60 64 66 66 68 69 69 69 68 67 66 63 59
33 30 28 26 25 25 25 25 25 26 29 32 27 28 40 45 50 56 62 63 61 65 67 68 63 59 60 65 69 69 69 66 66 64 62 55 59 64 67 67 65 65 65 64 65 64 61 60 58
29 28 27 27 28 28 28 28 25 26 28 28 33 35 34 42 46 51 57 62 63 61 65 68 62 58 58 63 68 68 67 65 64 64 57 55 58 64 66 65 64 62 61 61 60 59 58 58 57
25 24 25 25 26 26 27 28 28 27 27 27 31 37 40 41 45 50 53 57 58 62 63 67 64 59 56 60 64 67 66 64 64 64 55 57 59 60 65 64 64 61 60 59 58 57 57 56 55
26 25 24 23 26 28 27 28 29 28 28 27 30 34 37 42 46 50 51 53 57 61 64 63 66 61 56 56 62 64 65 64 59 59 60 64 61 60 63 64 64 61 60 58 56 55 56 55 55
24 23 23 23 22 24 27 27 27 29 27 26 29 32 36 41 45 47 50 52 58 59 66 65 66 60 56 55 55 57 61 60 58 58 62 64 61 61 62 61 61 60 59 56 55 54 54 55 56
26 25 23 20 18 18 24 27 28 29 29 28 26 33 36 40 42 46 50 52 59 61 64 66 66 60 59 56 56 55 57 57 57 57 61 62 60 61 61 60 59 58 56 55 55 54 56 58 60
24 22 16 14 12 14 21 30 29 30 29 28 26 26 32 38 41 43 47 53 59 58 63 65 66 61 63 62 60 57 55 57 57 58 59 60 59 59 59 58 57 56 56 55 56 56 57 61 60
20 21 18 15 15 22 28 28 28 29 29 28 26 27 32 38 41 43 46 56 59 61 61 63 65 64 64 65 64 62 57 56 57 58 59 59 58 58 58 57 55 55 58 59 60 60 61 60 60
23 22 22 18 18 18 18 23 33 30 33 33 32 35 35 41 41 43 48 56 59 61 61 64 65 64 65 65 65 64 61 58 57 57 56 57 56 56 56 56 57 59 60 60 60 61 61 61 61
21 20 19 19 19 21 23 23 24 29 35 38 38 38 41 40 40 41 46 54 57 60 60 61 65 65 65 64 64 64 64 63 63 62 59 57 56 58 58 60 60 60 61 60 61 62 62 62 62
23 23 23 21 25 29 30 26 24 29 33 35 39 39 39 39 40 40 45 53 58 57 61 60 62 65 65 65 65 65 64 64 64 64 64 63 63 63 63 63 62 63 62 63 63 63 63 61 62
28 26 32 30 30 26 26 24 28 27 31 35 36 38 40 40 40 41 45 51 58 58 58 62 61 65 65 65 64 64 63 62 62 63 63 63 63 64 65 65 64 64 65 64 64 64 64 64 62
30 33 34 34 32 31 29 28 30 28 32 35 37 40 41 42 41 43 46 51 59 59 60 62 63 64 65 65 65 64 63 62 62 64 63 63 63 63 64 64 64 64 65 65 65 64 62 62 62
36 35 34 33 32 26 28 29 31 34 36 36 39 41 43 45 45 46 47 51 60 60 61 62 62 63 64 64 64 64 64 64 63 64 63 63 63 63 63 63 64 64 64 64 63 63 63 62 62
34 33 28 26 25 25 33 30 33 35 35 40 40 42 46 46 46 46 47 56 59 60 60 59 61 62 62 64 64 63 62 63 64 64 64 63 63 63 63 63 64 64 64 63 63 63 63 63 63
32 33 28 21 24 25 26 27 32 35 35 40 40 43 46 45 43 41 49 58 60 59 60 60 60 60 61 61 61 62 62 62 63 63 63 63 63 63 63 63 64 63 63 63 64 63 63 63 63
33 32 34 29 30 25 30 33 35 34 37 39 40 43 45 44 42 44 47 58 59 59 59 59 60 60 60 61 60 61 61 61 61 62 62 62 62 63 64 63 63 63 63 63 63 63 62 62 62
36 36 30 32 25 23 27 27 28 34 37 39 39 44 45 45 43 43 51 58 59 59 59 60 60 60 60 61 61 60 61 61 61 61 61 61 62 62 63 63 63 63 63 63 63 61 60 59 59
34 31 29 28 24 26 22 26 36 34 35 39 40 44 45 44 45 44 51 58 59 60 60 61 61 61 60 61 60 60 60 60 60 60 61 61 61 62 62 62 61 61 60 60 59 58 57 57 55
32 31 29 31 24 28 24 28 34 35 37 40 41 44 45 45 44 45 49 55 57 58 58 58 59 60 60 61 60 60 59 59 59 59 60 61 60 61 60 60 58 58 58 56 55 53 53 52 51